<?xml version="1.0" encoding="UTF-8" standalone="no" ?>
<gpx xmlns="http://www.topografix.com/GPX/1/1" xmlns:xsi="http://www.w3.org/2001/XMLSchema-instance" xsi:schemaLocation="http://www.topografix.com/GPX/1/1 http://www.topografix.com/GPX/1/1/gpx.xsd" version="1.1" creator="VisuGPX - https://www.visugpx.com">
  <metadata>
    <name>Combe_Sauvage</name>
    <desc><![CDATA[ASCEA Montagne - Combe Sauvage.]]></desc>
  </metadata>
  <trk>
    <name><![CDATA[2017-01-22 15:16:44]]></name>
    <trkseg>
      <trkpt lat="46.00228" lon="6.50453">
        <ele>1344.06</ele>
        <time>2017-01-22T07:51:59.000Z</time>
      </trkpt>
      <trkpt lat="46.00223" lon="6.50445">
        <ele>1341.66</ele>
        <time>2017-01-22T07:52:03.000Z</time>
      </trkpt>
      <trkpt lat="46.00221" lon="6.50442">
        <ele>1342.14</ele>
        <time>2017-01-22T07:52:44.000Z</time>
      </trkpt>
      <trkpt lat="46.00222" lon="6.50443">
        <ele>1341.66</ele>
        <time>2017-01-22T07:53:10.000Z</time>
      </trkpt>
      <trkpt lat="46.00222" lon="6.50443">
        <ele>1341.66</ele>
        <time>2017-01-22T07:53:43.000Z</time>
      </trkpt>
      <trkpt lat="46.00223" lon="6.5044">
        <ele>1341.66</ele>
        <time>2017-01-22T07:54:15.000Z</time>
      </trkpt>
      <trkpt lat="46.00223" lon="6.50438">
        <ele>1341.66</ele>
        <time>2017-01-22T07:54:50.000Z</time>
      </trkpt>
      <trkpt lat="46.00222" lon="6.50441">
        <ele>1342.14</ele>
        <time>2017-01-22T07:55:22.000Z</time>
      </trkpt>
      <trkpt lat="46.00221" lon="6.50445">
        <ele>1342.14</ele>
        <time>2017-01-22T07:55:55.000Z</time>
      </trkpt>
      <trkpt lat="46.00222" lon="6.50442">
        <ele>1342.14</ele>
        <time>2017-01-22T07:56:24.000Z</time>
      </trkpt>
      <trkpt lat="46.00221" lon="6.50447">
        <ele>1342.62</ele>
        <time>2017-01-22T07:56:50.000Z</time>
      </trkpt>
      <trkpt lat="46.00221" lon="6.50445">
        <ele>1342.62</ele>
        <time>2017-01-22T07:57:24.000Z</time>
      </trkpt>
      <trkpt lat="46.00222" lon="6.50442">
        <ele>1342.62</ele>
        <time>2017-01-22T07:57:45.000Z</time>
      </trkpt>
      <trkpt lat="46.00222" lon="6.50443">
        <ele>1342.14</ele>
        <time>2017-01-22T07:58:08.000Z</time>
      </trkpt>
      <trkpt lat="46.00222" lon="6.50443">
        <ele>1344.06</ele>
        <time>2017-01-22T07:58:10.000Z</time>
      </trkpt>
      <trkpt lat="46.00224" lon="6.50442">
        <ele>1344.06</ele>
        <time>2017-01-22T07:58:21.000Z</time>
      </trkpt>
      <trkpt lat="46.00223" lon="6.50441">
        <ele>1344.06</ele>
        <time>2017-01-22T07:58:24.000Z</time>
      </trkpt>
      <trkpt lat="46.00224" lon="6.50433">
        <ele>1344.54</ele>
        <time>2017-01-22T07:58:30.000Z</time>
      </trkpt>
      <trkpt lat="46.0023" lon="6.50419">
        <ele>1345.5</ele>
        <time>2017-01-22T07:58:44.000Z</time>
      </trkpt>
      <trkpt lat="46.0023" lon="6.50419">
        <ele>1345.5</ele>
        <time>2017-01-22T07:58:45.000Z</time>
      </trkpt>
      <trkpt lat="46.00234" lon="6.50413">
        <ele>1345.98</ele>
        <time>2017-01-22T07:58:51.000Z</time>
      </trkpt>
      <trkpt lat="46.0024" lon="6.50398">
        <ele>1346.94</ele>
        <time>2017-01-22T07:59:04.000Z</time>
      </trkpt>
      <trkpt lat="46.00249" lon="6.50378">
        <ele>1348.39</ele>
        <time>2017-01-22T07:59:20.000Z</time>
      </trkpt>
      <trkpt lat="46.00257" lon="6.50361">
        <ele>1349.35</ele>
        <time>2017-01-22T07:59:35.000Z</time>
      </trkpt>
      <trkpt lat="46.0026" lon="6.50356">
        <ele>1350.31</ele>
        <time>2017-01-22T07:59:40.000Z</time>
      </trkpt>
      <trkpt lat="46.00266" lon="6.50334">
        <ele>1351.75</ele>
        <time>2017-01-22T07:59:57.000Z</time>
      </trkpt>
      <trkpt lat="46.00271" lon="6.50315">
        <ele>1352.71</ele>
        <time>2017-01-22T08:00:11.000Z</time>
      </trkpt>
      <trkpt lat="46.00277" lon="6.50294">
        <ele>1354.15</ele>
        <time>2017-01-22T08:00:28.000Z</time>
      </trkpt>
      <trkpt lat="46.0028" lon="6.50273">
        <ele>1355.12</ele>
        <time>2017-01-22T08:00:43.000Z</time>
      </trkpt>
      <trkpt lat="46.00282" lon="6.50254">
        <ele>1356.56</ele>
        <time>2017-01-22T08:00:58.000Z</time>
      </trkpt>
      <trkpt lat="46.00284" lon="6.50234">
        <ele>1357.52</ele>
        <time>2017-01-22T08:01:14.000Z</time>
      </trkpt>
      <trkpt lat="46.00284" lon="6.50214">
        <ele>1358.96</ele>
        <time>2017-01-22T08:01:31.000Z</time>
      </trkpt>
      <trkpt lat="46.00283" lon="6.50197">
        <ele>1359.92</ele>
        <time>2017-01-22T08:01:46.000Z</time>
      </trkpt>
      <trkpt lat="46.00281" lon="6.50183">
        <ele>1360.88</ele>
        <time>2017-01-22T08:02:00.000Z</time>
      </trkpt>
      <trkpt lat="46.00279" lon="6.50169">
        <ele>1361.84</ele>
        <time>2017-01-22T08:02:13.000Z</time>
      </trkpt>
      <trkpt lat="46.00275" lon="6.50151">
        <ele>1362.81</ele>
        <time>2017-01-22T08:02:29.000Z</time>
      </trkpt>
      <trkpt lat="46.00271" lon="6.50134">
        <ele>1363.77</ele>
        <time>2017-01-22T08:02:45.000Z</time>
      </trkpt>
      <trkpt lat="46.00266" lon="6.50115">
        <ele>1365.21</ele>
        <time>2017-01-22T08:03:03.000Z</time>
      </trkpt>
      <trkpt lat="46.00262" lon="6.50097">
        <ele>1366.65</ele>
        <time>2017-01-22T08:03:20.000Z</time>
      </trkpt>
      <trkpt lat="46.00257" lon="6.50084">
        <ele>1367.61</ele>
        <time>2017-01-22T08:03:34.000Z</time>
      </trkpt>
      <trkpt lat="46.00251" lon="6.50067">
        <ele>1368.57</ele>
        <time>2017-01-22T08:03:49.000Z</time>
      </trkpt>
      <trkpt lat="46.00246" lon="6.50053">
        <ele>1370.02</ele>
        <time>2017-01-22T08:04:05.000Z</time>
      </trkpt>
      <trkpt lat="46.00241" lon="6.50039">
        <ele>1370.98</ele>
        <time>2017-01-22T08:04:19.000Z</time>
      </trkpt>
      <trkpt lat="46.00234" lon="6.50026">
        <ele>1371.94</ele>
        <time>2017-01-22T08:04:35.000Z</time>
      </trkpt>
      <trkpt lat="46.00225" lon="6.50015">
        <ele>1373.38</ele>
        <time>2017-01-22T08:04:50.000Z</time>
      </trkpt>
      <trkpt lat="46.00218" lon="6.50001">
        <ele>1374.82</ele>
        <time>2017-01-22T08:05:06.000Z</time>
      </trkpt>
      <trkpt lat="46.00213" lon="6.49989">
        <ele>1375.3</ele>
        <time>2017-01-22T08:05:18.000Z</time>
      </trkpt>
      <trkpt lat="46.00211" lon="6.49971">
        <ele>1376.75</ele>
        <time>2017-01-22T08:05:34.000Z</time>
      </trkpt>
      <trkpt lat="46.00209" lon="6.49954">
        <ele>1377.71</ele>
        <time>2017-01-22T08:05:49.000Z</time>
      </trkpt>
      <trkpt lat="46.00207" lon="6.49936">
        <ele>1379.63</ele>
        <time>2017-01-22T08:06:05.000Z</time>
      </trkpt>
      <trkpt lat="46.00205" lon="6.49916">
        <ele>1381.07</ele>
        <time>2017-01-22T08:06:22.000Z</time>
      </trkpt>
      <trkpt lat="46.00202" lon="6.49898">
        <ele>1382.03</ele>
        <time>2017-01-22T08:06:37.000Z</time>
      </trkpt>
      <trkpt lat="46.00198" lon="6.49884">
        <ele>1383.47</ele>
        <time>2017-01-22T08:06:51.000Z</time>
      </trkpt>
      <trkpt lat="46.00193" lon="6.49865">
        <ele>1385.4</ele>
        <time>2017-01-22T08:07:07.000Z</time>
      </trkpt>
      <trkpt lat="46.00188" lon="6.4985">
        <ele>1386.84</ele>
        <time>2017-01-22T08:07:21.000Z</time>
      </trkpt>
      <trkpt lat="46.00182" lon="6.49832">
        <ele>1388.76</ele>
        <time>2017-01-22T08:07:37.000Z</time>
      </trkpt>
      <trkpt lat="46.00177" lon="6.49819">
        <ele>1389.72</ele>
        <time>2017-01-22T08:07:52.000Z</time>
      </trkpt>
      <trkpt lat="46.00169" lon="6.49804">
        <ele>1391.17</ele>
        <time>2017-01-22T08:08:08.000Z</time>
      </trkpt>
      <trkpt lat="46.00163" lon="6.4979">
        <ele>1392.61</ele>
        <time>2017-01-22T08:08:22.000Z</time>
      </trkpt>
      <trkpt lat="46.00156" lon="6.49773">
        <ele>1394.05</ele>
        <time>2017-01-22T08:08:38.000Z</time>
      </trkpt>
      <trkpt lat="46.00147" lon="6.49758">
        <ele>1395.49</ele>
        <time>2017-01-22T08:08:55.000Z</time>
      </trkpt>
      <trkpt lat="46.0014" lon="6.49744">
        <ele>1397.41</ele>
        <time>2017-01-22T08:09:10.000Z</time>
      </trkpt>
      <trkpt lat="46.00132" lon="6.49728">
        <ele>1398.86</ele>
        <time>2017-01-22T08:09:26.000Z</time>
      </trkpt>
      <trkpt lat="46.00124" lon="6.49711">
        <ele>1400.3</ele>
        <time>2017-01-22T08:09:42.000Z</time>
      </trkpt>
      <trkpt lat="46.00117" lon="6.49697">
        <ele>1401.74</ele>
        <time>2017-01-22T08:09:57.000Z</time>
      </trkpt>
      <trkpt lat="46.00108" lon="6.49678">
        <ele>1403.18</ele>
        <time>2017-01-22T08:10:15.000Z</time>
      </trkpt>
      <trkpt lat="46.001" lon="6.49662">
        <ele>1404.62</ele>
        <time>2017-01-22T08:10:31.000Z</time>
      </trkpt>
      <trkpt lat="46.00093" lon="6.49646">
        <ele>1406.07</ele>
        <time>2017-01-22T08:10:48.000Z</time>
      </trkpt>
      <trkpt lat="46.00085" lon="6.4963">
        <ele>1407.51</ele>
        <time>2017-01-22T08:11:04.000Z</time>
      </trkpt>
      <trkpt lat="46.00076" lon="6.49612">
        <ele>1409.91</ele>
        <time>2017-01-22T08:11:22.000Z</time>
      </trkpt>
      <trkpt lat="46.00068" lon="6.49599">
        <ele>1411.35</ele>
        <time>2017-01-22T08:11:38.000Z</time>
      </trkpt>
      <trkpt lat="46.0006" lon="6.49583">
        <ele>1412.31</ele>
        <time>2017-01-22T08:11:55.000Z</time>
      </trkpt>
      <trkpt lat="46.00054" lon="6.49568">
        <ele>1414.24</ele>
        <time>2017-01-22T08:12:10.000Z</time>
      </trkpt>
      <trkpt lat="46.00047" lon="6.49555">
        <ele>1415.2</ele>
        <time>2017-01-22T08:12:24.000Z</time>
      </trkpt>
      <trkpt lat="46.00041" lon="6.4954">
        <ele>1416.64</ele>
        <time>2017-01-22T08:12:41.000Z</time>
      </trkpt>
      <trkpt lat="46.00038" lon="6.49524">
        <ele>1417.6</ele>
        <time>2017-01-22T08:12:57.000Z</time>
      </trkpt>
      <trkpt lat="46.00038" lon="6.49513">
        <ele>1419.04</ele>
        <time>2017-01-22T08:13:10.000Z</time>
      </trkpt>
      <trkpt lat="46.00042" lon="6.49499">
        <ele>1420</ele>
        <time>2017-01-22T08:13:25.000Z</time>
      </trkpt>
      <trkpt lat="46.00046" lon="6.49484">
        <ele>1421.45</ele>
        <time>2017-01-22T08:13:40.000Z</time>
      </trkpt>
      <trkpt lat="46.00049" lon="6.49466">
        <ele>1422.41</ele>
        <time>2017-01-22T08:13:56.000Z</time>
      </trkpt>
      <trkpt lat="46.00052" lon="6.49451">
        <ele>1423.85</ele>
        <time>2017-01-22T08:14:11.000Z</time>
      </trkpt>
      <trkpt lat="46.00053" lon="6.49436">
        <ele>1424.81</ele>
        <time>2017-01-22T08:14:25.000Z</time>
      </trkpt>
      <trkpt lat="46.00055" lon="6.49421">
        <ele>1426.25</ele>
        <time>2017-01-22T08:14:40.000Z</time>
      </trkpt>
      <trkpt lat="46.00055" lon="6.49403">
        <ele>1426.73</ele>
        <time>2017-01-22T08:14:55.000Z</time>
      </trkpt>
      <trkpt lat="46.00055" lon="6.49385">
        <ele>1428.66</ele>
        <time>2017-01-22T08:15:12.000Z</time>
      </trkpt>
      <trkpt lat="46.00055" lon="6.49373">
        <ele>1429.14</ele>
        <time>2017-01-22T08:15:24.000Z</time>
      </trkpt>
      <trkpt lat="46.00057" lon="6.49359">
        <ele>1430.1</ele>
        <time>2017-01-22T08:15:37.000Z</time>
      </trkpt>
      <trkpt lat="46.00057" lon="6.49349">
        <ele>1431.06</ele>
        <time>2017-01-22T08:15:51.000Z</time>
      </trkpt>
      <trkpt lat="46.00055" lon="6.49345">
        <ele>1429.62</ele>
        <time>2017-01-22T08:16:14.000Z</time>
      </trkpt>
      <trkpt lat="46.00056" lon="6.4935">
        <ele>1431.06</ele>
        <time>2017-01-22T08:16:39.000Z</time>
      </trkpt>
      <trkpt lat="46.00056" lon="6.49349">
        <ele>1429.14</ele>
        <time>2017-01-22T08:16:43.000Z</time>
      </trkpt>
      <trkpt lat="46.00055" lon="6.49347">
        <ele>1430.1</ele>
        <time>2017-01-22T08:16:49.000Z</time>
      </trkpt>
      <trkpt lat="46.00055" lon="6.49346">
        <ele>1429.14</ele>
        <time>2017-01-22T08:16:55.000Z</time>
      </trkpt>
      <trkpt lat="46.00056" lon="6.49348">
        <ele>1430.1</ele>
        <time>2017-01-22T08:17:13.000Z</time>
      </trkpt>
      <trkpt lat="46.00056" lon="6.49348">
        <ele>1432.02</ele>
        <time>2017-01-22T08:17:25.000Z</time>
      </trkpt>
      <trkpt lat="46.00054" lon="6.49345">
        <ele>1432.02</ele>
        <time>2017-01-22T08:17:46.000Z</time>
      </trkpt>
      <trkpt lat="46.00055" lon="6.49333">
        <ele>1432.02</ele>
        <time>2017-01-22T08:18:03.000Z</time>
      </trkpt>
      <trkpt lat="46.00055" lon="6.49329">
        <ele>1432.5</ele>
        <time>2017-01-22T08:18:07.000Z</time>
      </trkpt>
      <trkpt lat="46.00055" lon="6.49322">
        <ele>1432.98</ele>
        <time>2017-01-22T08:18:13.000Z</time>
      </trkpt>
      <trkpt lat="46.00053" lon="6.49314">
        <ele>1433.46</ele>
        <time>2017-01-22T08:18:20.000Z</time>
      </trkpt>
      <trkpt lat="46.0005" lon="6.49297">
        <ele>1434.42</ele>
        <time>2017-01-22T08:18:35.000Z</time>
      </trkpt>
      <trkpt lat="46.00044" lon="6.49284">
        <ele>1435.87</ele>
        <time>2017-01-22T08:18:49.000Z</time>
      </trkpt>
      <trkpt lat="46.00036" lon="6.49272">
        <ele>1436.83</ele>
        <time>2017-01-22T08:19:02.000Z</time>
      </trkpt>
      <trkpt lat="46.0003" lon="6.49265">
        <ele>1437.79</ele>
        <time>2017-01-22T08:19:14.000Z</time>
      </trkpt>
      <trkpt lat="46.00023" lon="6.49256">
        <ele>1439.23</ele>
        <time>2017-01-22T08:19:28.000Z</time>
      </trkpt>
      <trkpt lat="46.00014" lon="6.49245">
        <ele>1440.67</ele>
        <time>2017-01-22T08:19:44.000Z</time>
      </trkpt>
      <trkpt lat="46.00005" lon="6.49237">
        <ele>1441.63</ele>
        <time>2017-01-22T08:19:58.000Z</time>
      </trkpt>
      <trkpt lat="45.99997" lon="6.49231">
        <ele>1442.6</ele>
        <time>2017-01-22T08:20:13.000Z</time>
      </trkpt>
      <trkpt lat="45.99989" lon="6.49227">
        <ele>1443.56</ele>
        <time>2017-01-22T08:20:24.000Z</time>
      </trkpt>
      <trkpt lat="45.99977" lon="6.49224">
        <ele>1444.52</ele>
        <time>2017-01-22T08:20:39.000Z</time>
      </trkpt>
      <trkpt lat="45.99966" lon="6.49218">
        <ele>1445.96</ele>
        <time>2017-01-22T08:20:54.000Z</time>
      </trkpt>
      <trkpt lat="45.99958" lon="6.49204">
        <ele>1447.88</ele>
        <time>2017-01-22T08:21:10.000Z</time>
      </trkpt>
      <trkpt lat="45.99952" lon="6.4919">
        <ele>1448.84</ele>
        <time>2017-01-22T08:21:25.000Z</time>
      </trkpt>
      <trkpt lat="45.99945" lon="6.49176">
        <ele>1450.29</ele>
        <time>2017-01-22T08:21:40.000Z</time>
      </trkpt>
      <trkpt lat="45.99937" lon="6.49163">
        <ele>1451.73</ele>
        <time>2017-01-22T08:21:56.000Z</time>
      </trkpt>
      <trkpt lat="45.9993" lon="6.49152">
        <ele>1453.17</ele>
        <time>2017-01-22T08:22:09.000Z</time>
      </trkpt>
      <trkpt lat="45.99922" lon="6.49139">
        <ele>1454.13</ele>
        <time>2017-01-22T08:22:24.000Z</time>
      </trkpt>
      <trkpt lat="45.99914" lon="6.49126">
        <ele>1455.57</ele>
        <time>2017-01-22T08:22:39.000Z</time>
      </trkpt>
      <trkpt lat="45.99907" lon="6.49113">
        <ele>1456.53</ele>
        <time>2017-01-22T08:22:53.000Z</time>
      </trkpt>
      <trkpt lat="45.99901" lon="6.49096">
        <ele>1457.98</ele>
        <time>2017-01-22T08:23:09.000Z</time>
      </trkpt>
      <trkpt lat="45.99893" lon="6.4908">
        <ele>1458.94</ele>
        <time>2017-01-22T08:23:25.000Z</time>
      </trkpt>
      <trkpt lat="45.99885" lon="6.49067">
        <ele>1460.38</ele>
        <time>2017-01-22T08:23:41.000Z</time>
      </trkpt>
      <trkpt lat="45.99876" lon="6.49056">
        <ele>1461.82</ele>
        <time>2017-01-22T08:23:56.000Z</time>
      </trkpt>
      <trkpt lat="45.99866" lon="6.49045">
        <ele>1463.26</ele>
        <time>2017-01-22T08:24:11.000Z</time>
      </trkpt>
      <trkpt lat="45.99857" lon="6.49035">
        <ele>1464.23</ele>
        <time>2017-01-22T08:24:26.000Z</time>
      </trkpt>
      <trkpt lat="45.99849" lon="6.49025">
        <ele>1465.67</ele>
        <time>2017-01-22T08:24:40.000Z</time>
      </trkpt>
      <trkpt lat="45.9984" lon="6.49014">
        <ele>1467.11</ele>
        <time>2017-01-22T08:24:54.000Z</time>
      </trkpt>
      <trkpt lat="45.99832" lon="6.49003">
        <ele>1468.07</ele>
        <time>2017-01-22T08:25:08.000Z</time>
      </trkpt>
      <trkpt lat="45.99823" lon="6.48991">
        <ele>1469.51</ele>
        <time>2017-01-22T08:25:23.000Z</time>
      </trkpt>
      <trkpt lat="45.99814" lon="6.48978">
        <ele>1470.95</ele>
        <time>2017-01-22T08:25:37.000Z</time>
      </trkpt>
      <trkpt lat="45.9981" lon="6.4897">
        <ele>1471.44</ele>
        <time>2017-01-22T08:25:46.000Z</time>
      </trkpt>
      <trkpt lat="45.99804" lon="6.48956">
        <ele>1473.36</ele>
        <time>2017-01-22T08:26:01.000Z</time>
      </trkpt>
      <trkpt lat="45.998" lon="6.48939">
        <ele>1474.32</ele>
        <time>2017-01-22T08:26:16.000Z</time>
      </trkpt>
      <trkpt lat="45.99796" lon="6.48923">
        <ele>1475.76</ele>
        <time>2017-01-22T08:26:30.000Z</time>
      </trkpt>
      <trkpt lat="45.99791" lon="6.48905">
        <ele>1477.2</ele>
        <time>2017-01-22T08:26:46.000Z</time>
      </trkpt>
      <trkpt lat="45.99787" lon="6.48888">
        <ele>1478.65</ele>
        <time>2017-01-22T08:27:02.000Z</time>
      </trkpt>
      <trkpt lat="45.99783" lon="6.4887">
        <ele>1480.09</ele>
        <time>2017-01-22T08:27:17.000Z</time>
      </trkpt>
      <trkpt lat="45.99782" lon="6.48851">
        <ele>1481.53</ele>
        <time>2017-01-22T08:27:33.000Z</time>
      </trkpt>
      <trkpt lat="45.99781" lon="6.48845">
        <ele>1482.01</ele>
        <time>2017-01-22T08:27:38.000Z</time>
      </trkpt>
      <trkpt lat="45.99779" lon="6.48826">
        <ele>1483.45</ele>
        <time>2017-01-22T08:27:54.000Z</time>
      </trkpt>
      <trkpt lat="45.99773" lon="6.48812">
        <ele>1484.89</ele>
        <time>2017-01-22T08:28:08.000Z</time>
      </trkpt>
      <trkpt lat="45.99773" lon="6.4881">
        <ele>1485.37</ele>
        <time>2017-01-22T08:28:10.000Z</time>
      </trkpt>
      <trkpt lat="45.99769" lon="6.48789">
        <ele>1486.82</ele>
        <time>2017-01-22T08:28:27.000Z</time>
      </trkpt>
      <trkpt lat="45.99765" lon="6.48772">
        <ele>1488.26</ele>
        <time>2017-01-22T08:28:42.000Z</time>
      </trkpt>
      <trkpt lat="45.99767" lon="6.48757">
        <ele>1488.74</ele>
        <time>2017-01-22T08:28:55.000Z</time>
      </trkpt>
      <trkpt lat="45.99767" lon="6.48751">
        <ele>1489.22</ele>
        <time>2017-01-22T08:29:00.000Z</time>
      </trkpt>
      <trkpt lat="45.99766" lon="6.48734">
        <ele>1491.14</ele>
        <time>2017-01-22T08:29:15.000Z</time>
      </trkpt>
      <trkpt lat="45.99765" lon="6.4872">
        <ele>1492.1</ele>
        <time>2017-01-22T08:29:27.000Z</time>
      </trkpt>
      <trkpt lat="45.99764" lon="6.48706">
        <ele>1492.58</ele>
        <time>2017-01-22T08:29:39.000Z</time>
      </trkpt>
      <trkpt lat="45.99761" lon="6.4869">
        <ele>1494.03</ele>
        <time>2017-01-22T08:29:52.000Z</time>
      </trkpt>
      <trkpt lat="45.9976" lon="6.48676">
        <ele>1495.47</ele>
        <time>2017-01-22T08:30:06.000Z</time>
      </trkpt>
      <trkpt lat="45.9976" lon="6.48661">
        <ele>1496.91</ele>
        <time>2017-01-22T08:30:19.000Z</time>
      </trkpt>
      <trkpt lat="45.99759" lon="6.48648">
        <ele>1497.39</ele>
        <time>2017-01-22T08:30:32.000Z</time>
      </trkpt>
      <trkpt lat="45.99759" lon="6.48648">
        <ele>1497.87</ele>
        <time>2017-01-22T08:30:46.000Z</time>
      </trkpt>
      <trkpt lat="45.99759" lon="6.4865">
        <ele>1497.87</ele>
        <time>2017-01-22T08:31:11.000Z</time>
      </trkpt>
      <trkpt lat="45.99761" lon="6.4864">
        <ele>1498.35</ele>
        <time>2017-01-22T08:31:25.000Z</time>
      </trkpt>
      <trkpt lat="45.99762" lon="6.48629">
        <ele>1499.79</ele>
        <time>2017-01-22T08:31:35.000Z</time>
      </trkpt>
      <trkpt lat="45.99766" lon="6.48621">
        <ele>1500.76</ele>
        <time>2017-01-22T08:31:49.000Z</time>
      </trkpt>
      <trkpt lat="45.99765" lon="6.48611">
        <ele>1501.24</ele>
        <time>2017-01-22T08:32:00.000Z</time>
      </trkpt>
      <trkpt lat="45.99764" lon="6.4861">
        <ele>1501.24</ele>
        <time>2017-01-22T08:32:01.000Z</time>
      </trkpt>
      <trkpt lat="45.99762" lon="6.48593">
        <ele>1502.2</ele>
        <time>2017-01-22T08:32:16.000Z</time>
      </trkpt>
      <trkpt lat="45.99757" lon="6.48578">
        <ele>1503.64</ele>
        <time>2017-01-22T08:32:31.000Z</time>
      </trkpt>
      <trkpt lat="45.99754" lon="6.48567">
        <ele>1505.08</ele>
        <time>2017-01-22T08:32:44.000Z</time>
      </trkpt>
      <trkpt lat="45.99752" lon="6.48562">
        <ele>1505.08</ele>
        <time>2017-01-22T08:32:50.000Z</time>
      </trkpt>
      <trkpt lat="45.99747" lon="6.48548">
        <ele>1506.52</ele>
        <time>2017-01-22T08:33:05.000Z</time>
      </trkpt>
      <trkpt lat="45.99744" lon="6.48535">
        <ele>1507.48</ele>
        <time>2017-01-22T08:33:20.000Z</time>
      </trkpt>
      <trkpt lat="45.99743" lon="6.48531">
        <ele>1508.45</ele>
        <time>2017-01-22T08:33:33.000Z</time>
      </trkpt>
      <trkpt lat="45.99744" lon="6.48535">
        <ele>1508.45</ele>
        <time>2017-01-22T08:33:49.000Z</time>
      </trkpt>
      <trkpt lat="45.99741" lon="6.48528">
        <ele>1508.45</ele>
        <time>2017-01-22T08:34:15.000Z</time>
      </trkpt>
      <trkpt lat="45.99746" lon="6.48531">
        <ele>1508.45</ele>
        <time>2017-01-22T08:34:42.000Z</time>
      </trkpt>
      <trkpt lat="45.99743" lon="6.48531">
        <ele>1508.45</ele>
        <time>2017-01-22T08:35:09.000Z</time>
      </trkpt>
      <trkpt lat="45.99739" lon="6.48523">
        <ele>1508.45</ele>
        <time>2017-01-22T08:35:24.000Z</time>
      </trkpt>
      <trkpt lat="45.99738" lon="6.48517">
        <ele>1508.93</ele>
        <time>2017-01-22T08:35:39.000Z</time>
      </trkpt>
      <trkpt lat="45.99735" lon="6.48511">
        <ele>1509.89</ele>
        <time>2017-01-22T08:35:50.000Z</time>
      </trkpt>
      <trkpt lat="45.99731" lon="6.48503">
        <ele>1511.33</ele>
        <time>2017-01-22T08:36:01.000Z</time>
      </trkpt>
      <trkpt lat="45.99727" lon="6.4849">
        <ele>1511.33</ele>
        <time>2017-01-22T08:36:13.000Z</time>
      </trkpt>
      <trkpt lat="45.99724" lon="6.48476">
        <ele>1512.77</ele>
        <time>2017-01-22T08:36:27.000Z</time>
      </trkpt>
      <trkpt lat="45.99723" lon="6.48462">
        <ele>1514.21</ele>
        <time>2017-01-22T08:36:41.000Z</time>
      </trkpt>
      <trkpt lat="45.99722" lon="6.4845">
        <ele>1514.69</ele>
        <time>2017-01-22T08:36:54.000Z</time>
      </trkpt>
      <trkpt lat="45.99716" lon="6.48435">
        <ele>1515.66</ele>
        <time>2017-01-22T08:37:10.000Z</time>
      </trkpt>
      <trkpt lat="45.99712" lon="6.48418">
        <ele>1517.58</ele>
        <time>2017-01-22T08:37:28.000Z</time>
      </trkpt>
      <trkpt lat="45.9971" lon="6.48402">
        <ele>1519.02</ele>
        <time>2017-01-22T08:37:44.000Z</time>
      </trkpt>
      <trkpt lat="45.99701" lon="6.48387">
        <ele>1520.46</ele>
        <time>2017-01-22T08:37:59.000Z</time>
      </trkpt>
      <trkpt lat="45.99697" lon="6.48379">
        <ele>1520.94</ele>
        <time>2017-01-22T08:38:11.000Z</time>
      </trkpt>
      <trkpt lat="45.9969" lon="6.48366">
        <ele>1522.39</ele>
        <time>2017-01-22T08:38:25.000Z</time>
      </trkpt>
      <trkpt lat="45.99683" lon="6.48354">
        <ele>1523.83</ele>
        <time>2017-01-22T08:38:39.000Z</time>
      </trkpt>
      <trkpt lat="45.9968" lon="6.4835">
        <ele>1524.31</ele>
        <time>2017-01-22T08:38:44.000Z</time>
      </trkpt>
      <trkpt lat="45.99672" lon="6.48334">
        <ele>1525.75</ele>
        <time>2017-01-22T08:39:01.000Z</time>
      </trkpt>
      <trkpt lat="45.99667" lon="6.48319">
        <ele>1527.19</ele>
        <time>2017-01-22T08:39:16.000Z</time>
      </trkpt>
      <trkpt lat="45.99663" lon="6.48307">
        <ele>1528.63</ele>
        <time>2017-01-22T08:39:29.000Z</time>
      </trkpt>
      <trkpt lat="45.9966" lon="6.48292">
        <ele>1529.59</ele>
        <time>2017-01-22T08:39:43.000Z</time>
      </trkpt>
      <trkpt lat="45.99655" lon="6.48276">
        <ele>1530.56</ele>
        <time>2017-01-22T08:40:00.000Z</time>
      </trkpt>
      <trkpt lat="45.9965" lon="6.48263">
        <ele>1532.48</ele>
        <time>2017-01-22T08:40:15.000Z</time>
      </trkpt>
      <trkpt lat="45.99646" lon="6.48251">
        <ele>1533.44</ele>
        <time>2017-01-22T08:40:29.000Z</time>
      </trkpt>
      <trkpt lat="45.9964" lon="6.48237">
        <ele>1534.88</ele>
        <time>2017-01-22T08:40:44.000Z</time>
      </trkpt>
      <trkpt lat="45.99632" lon="6.48225">
        <ele>1535.36</ele>
        <time>2017-01-22T08:40:58.000Z</time>
      </trkpt>
      <trkpt lat="45.9962" lon="6.48215">
        <ele>1537.29</ele>
        <time>2017-01-22T08:41:16.000Z</time>
      </trkpt>
      <trkpt lat="45.99611" lon="6.4821">
        <ele>1538.25</ele>
        <time>2017-01-22T08:41:29.000Z</time>
      </trkpt>
      <trkpt lat="45.99601" lon="6.48206">
        <ele>1540.17</ele>
        <time>2017-01-22T08:41:42.000Z</time>
      </trkpt>
      <trkpt lat="45.99598" lon="6.48203">
        <ele>1540.17</ele>
        <time>2017-01-22T08:41:47.000Z</time>
      </trkpt>
      <trkpt lat="45.9959" lon="6.48192">
        <ele>1541.61</ele>
        <time>2017-01-22T08:42:02.000Z</time>
      </trkpt>
      <trkpt lat="45.99583" lon="6.48181">
        <ele>1542.57</ele>
        <time>2017-01-22T08:42:16.000Z</time>
      </trkpt>
      <trkpt lat="45.99575" lon="6.48172">
        <ele>1543.53</ele>
        <time>2017-01-22T08:42:31.000Z</time>
      </trkpt>
      <trkpt lat="45.99568" lon="6.48164">
        <ele>1544.5</ele>
        <time>2017-01-22T08:42:44.000Z</time>
      </trkpt>
      <trkpt lat="45.9956" lon="6.48155">
        <ele>1546.42</ele>
        <time>2017-01-22T08:42:58.000Z</time>
      </trkpt>
      <trkpt lat="45.99551" lon="6.48145">
        <ele>1546.9</ele>
        <time>2017-01-22T08:43:13.000Z</time>
      </trkpt>
      <trkpt lat="45.99542" lon="6.48136">
        <ele>1548.34</ele>
        <time>2017-01-22T08:43:27.000Z</time>
      </trkpt>
      <trkpt lat="45.99538" lon="6.48133">
        <ele>1548.34</ele>
        <time>2017-01-22T08:43:40.000Z</time>
      </trkpt>
      <trkpt lat="45.99528" lon="6.48124">
        <ele>1550.26</ele>
        <time>2017-01-22T08:43:56.000Z</time>
      </trkpt>
      <trkpt lat="45.9952" lon="6.48114">
        <ele>1550.74</ele>
        <time>2017-01-22T08:44:10.000Z</time>
      </trkpt>
      <trkpt lat="45.99515" lon="6.48106">
        <ele>1551.71</ele>
        <time>2017-01-22T08:44:22.000Z</time>
      </trkpt>
      <trkpt lat="45.99507" lon="6.48098">
        <ele>1553.15</ele>
        <time>2017-01-22T08:44:38.000Z</time>
      </trkpt>
      <trkpt lat="45.99499" lon="6.48087">
        <ele>1554.11</ele>
        <time>2017-01-22T08:44:52.000Z</time>
      </trkpt>
      <trkpt lat="45.99495" lon="6.48072">
        <ele>1555.55</ele>
        <time>2017-01-22T08:45:08.000Z</time>
      </trkpt>
      <trkpt lat="45.9949" lon="6.48056">
        <ele>1556.03</ele>
        <time>2017-01-22T08:45:23.000Z</time>
      </trkpt>
      <trkpt lat="45.99487" lon="6.48039">
        <ele>1557.95</ele>
        <time>2017-01-22T08:45:39.000Z</time>
      </trkpt>
      <trkpt lat="45.99484" lon="6.48024">
        <ele>1558.92</ele>
        <time>2017-01-22T08:45:53.000Z</time>
      </trkpt>
      <trkpt lat="45.99479" lon="6.48011">
        <ele>1559.88</ele>
        <time>2017-01-22T08:46:07.000Z</time>
      </trkpt>
      <trkpt lat="45.99472" lon="6.47997">
        <ele>1561.8</ele>
        <time>2017-01-22T08:46:22.000Z</time>
      </trkpt>
      <trkpt lat="45.99466" lon="6.47986">
        <ele>1562.76</ele>
        <time>2017-01-22T08:46:35.000Z</time>
      </trkpt>
      <trkpt lat="45.99465" lon="6.47984">
        <ele>1562.76</ele>
        <time>2017-01-22T08:46:37.000Z</time>
      </trkpt>
      <trkpt lat="45.99459" lon="6.47971">
        <ele>1564.2</ele>
        <time>2017-01-22T08:46:50.000Z</time>
      </trkpt>
      <trkpt lat="45.99453" lon="6.47956">
        <ele>1565.16</ele>
        <time>2017-01-22T08:47:05.000Z</time>
      </trkpt>
      <trkpt lat="45.99448" lon="6.47941">
        <ele>1566.61</ele>
        <time>2017-01-22T08:47:20.000Z</time>
      </trkpt>
      <trkpt lat="45.99442" lon="6.47926">
        <ele>1567.57</ele>
        <time>2017-01-22T08:47:34.000Z</time>
      </trkpt>
      <trkpt lat="45.99439" lon="6.47911">
        <ele>1569.01</ele>
        <time>2017-01-22T08:47:48.000Z</time>
      </trkpt>
      <trkpt lat="45.99437" lon="6.479">
        <ele>1570.45</ele>
        <time>2017-01-22T08:47:59.000Z</time>
      </trkpt>
      <trkpt lat="45.99434" lon="6.4788">
        <ele>1571.41</ele>
        <time>2017-01-22T08:48:16.000Z</time>
      </trkpt>
      <trkpt lat="45.99431" lon="6.47863">
        <ele>1572.85</ele>
        <time>2017-01-22T08:48:33.000Z</time>
      </trkpt>
      <trkpt lat="45.99427" lon="6.47849">
        <ele>1574.3</ele>
        <time>2017-01-22T08:48:48.000Z</time>
      </trkpt>
      <trkpt lat="45.9942" lon="6.47836">
        <ele>1576.22</ele>
        <time>2017-01-22T08:49:03.000Z</time>
      </trkpt>
      <trkpt lat="45.9941" lon="6.47826">
        <ele>1577.18</ele>
        <time>2017-01-22T08:49:17.000Z</time>
      </trkpt>
      <trkpt lat="45.99399" lon="6.47816">
        <ele>1578.14</ele>
        <time>2017-01-22T08:49:30.000Z</time>
      </trkpt>
      <trkpt lat="45.99389" lon="6.47808">
        <ele>1579.1</ele>
        <time>2017-01-22T08:49:42.000Z</time>
      </trkpt>
      <trkpt lat="45.99384" lon="6.47803">
        <ele>1580.06</ele>
        <time>2017-01-22T08:49:49.000Z</time>
      </trkpt>
      <trkpt lat="45.99377" lon="6.47799">
        <ele>1580.54</ele>
        <time>2017-01-22T08:50:00.000Z</time>
      </trkpt>
      <trkpt lat="45.99366" lon="6.4779">
        <ele>1581.51</ele>
        <time>2017-01-22T08:50:12.000Z</time>
      </trkpt>
      <trkpt lat="45.99361" lon="6.47785">
        <ele>1582.95</ele>
        <time>2017-01-22T08:50:27.000Z</time>
      </trkpt>
      <trkpt lat="45.99363" lon="6.47789">
        <ele>1583.43</ele>
        <time>2017-01-22T08:50:47.000Z</time>
      </trkpt>
      <trkpt lat="45.99369" lon="6.47793">
        <ele>1584.39</ele>
        <time>2017-01-22T08:51:02.000Z</time>
      </trkpt>
      <trkpt lat="45.99376" lon="6.47791">
        <ele>1581.99</ele>
        <time>2017-01-22T08:51:19.000Z</time>
      </trkpt>
      <trkpt lat="45.99378" lon="6.47789">
        <ele>1581.03</ele>
        <time>2017-01-22T08:51:39.000Z</time>
      </trkpt>
      <trkpt lat="45.99379" lon="6.47789">
        <ele>1581.03</ele>
        <time>2017-01-22T08:52:08.000Z</time>
      </trkpt>
      <trkpt lat="45.99376" lon="6.47794">
        <ele>1581.03</ele>
        <time>2017-01-22T08:52:36.000Z</time>
      </trkpt>
      <trkpt lat="45.99376" lon="6.47794">
        <ele>1581.99</ele>
        <time>2017-01-22T08:53:00.000Z</time>
      </trkpt>
      <trkpt lat="45.99375" lon="6.47788">
        <ele>1581.99</ele>
        <time>2017-01-22T08:53:21.000Z</time>
      </trkpt>
      <trkpt lat="45.99376" lon="6.47794">
        <ele>1582.47</ele>
        <time>2017-01-22T08:53:51.000Z</time>
      </trkpt>
      <trkpt lat="45.99374" lon="6.47793">
        <ele>1581.99</ele>
        <time>2017-01-22T08:54:24.000Z</time>
      </trkpt>
      <trkpt lat="45.99372" lon="6.47792">
        <ele>1581.99</ele>
        <time>2017-01-22T08:54:53.000Z</time>
      </trkpt>
      <trkpt lat="45.9937" lon="6.47792">
        <ele>1584.39</ele>
        <time>2017-01-22T08:55:10.000Z</time>
      </trkpt>
      <trkpt lat="45.99366" lon="6.47789">
        <ele>1584.39</ele>
        <time>2017-01-22T08:55:30.000Z</time>
      </trkpt>
      <trkpt lat="45.99364" lon="6.47789">
        <ele>1584.39</ele>
        <time>2017-01-22T08:55:43.000Z</time>
      </trkpt>
      <trkpt lat="45.9936" lon="6.47786">
        <ele>1584.87</ele>
        <time>2017-01-22T08:56:07.000Z</time>
      </trkpt>
      <trkpt lat="45.9936" lon="6.47785">
        <ele>1585.35</ele>
        <time>2017-01-22T08:56:09.000Z</time>
      </trkpt>
      <trkpt lat="45.9937" lon="6.47784">
        <ele>1588.24</ele>
        <time>2017-01-22T08:56:23.000Z</time>
      </trkpt>
      <trkpt lat="45.99377" lon="6.47785">
        <ele>1589.2</ele>
        <time>2017-01-22T08:56:36.000Z</time>
      </trkpt>
      <trkpt lat="45.99383" lon="6.47785">
        <ele>1590.64</ele>
        <time>2017-01-22T08:56:52.000Z</time>
      </trkpt>
      <trkpt lat="45.99387" lon="6.47786">
        <ele>1591.6</ele>
        <time>2017-01-22T08:57:07.000Z</time>
      </trkpt>
      <trkpt lat="45.99389" lon="6.47786">
        <ele>1592.56</ele>
        <time>2017-01-22T08:57:21.000Z</time>
      </trkpt>
      <trkpt lat="45.99393" lon="6.47786">
        <ele>1593.52</ele>
        <time>2017-01-22T08:57:35.000Z</time>
      </trkpt>
      <trkpt lat="45.99399" lon="6.47786">
        <ele>1594.96</ele>
        <time>2017-01-22T08:57:46.000Z</time>
      </trkpt>
      <trkpt lat="45.99404" lon="6.47785">
        <ele>1596.41</ele>
        <time>2017-01-22T08:57:59.000Z</time>
      </trkpt>
      <trkpt lat="45.99409" lon="6.47784">
        <ele>1597.85</ele>
        <time>2017-01-22T08:58:14.000Z</time>
      </trkpt>
      <trkpt lat="45.99414" lon="6.47787">
        <ele>1599.29</ele>
        <time>2017-01-22T08:58:27.000Z</time>
      </trkpt>
      <trkpt lat="45.99419" lon="6.47784">
        <ele>1600.25</ele>
        <time>2017-01-22T08:58:39.000Z</time>
      </trkpt>
      <trkpt lat="45.99422" lon="6.47784">
        <ele>1601.21</ele>
        <time>2017-01-22T08:58:58.000Z</time>
      </trkpt>
      <trkpt lat="45.99416" lon="6.4778">
        <ele>1601.69</ele>
        <time>2017-01-22T08:59:15.000Z</time>
      </trkpt>
      <trkpt lat="45.99413" lon="6.47775">
        <ele>1602.17</ele>
        <time>2017-01-22T08:59:33.000Z</time>
      </trkpt>
      <trkpt lat="45.99414" lon="6.47779">
        <ele>1602.17</ele>
        <time>2017-01-22T08:59:54.000Z</time>
      </trkpt>
      <trkpt lat="45.99411" lon="6.47774">
        <ele>1604.1</ele>
        <time>2017-01-22T09:00:10.000Z</time>
      </trkpt>
      <trkpt lat="45.99406" lon="6.47766">
        <ele>1606.02</ele>
        <time>2017-01-22T09:00:25.000Z</time>
      </trkpt>
      <trkpt lat="45.99404" lon="6.47766">
        <ele>1606.5</ele>
        <time>2017-01-22T09:00:38.000Z</time>
      </trkpt>
      <trkpt lat="45.99406" lon="6.47768">
        <ele>1606.5</ele>
        <time>2017-01-22T09:00:52.000Z</time>
      </trkpt>
      <trkpt lat="45.99408" lon="6.47766">
        <ele>1607.46</ele>
        <time>2017-01-22T09:01:05.000Z</time>
      </trkpt>
      <trkpt lat="45.99416" lon="6.47766">
        <ele>1608.9</ele>
        <time>2017-01-22T09:01:19.000Z</time>
      </trkpt>
      <trkpt lat="45.99421" lon="6.47766">
        <ele>1609.86</ele>
        <time>2017-01-22T09:01:38.000Z</time>
      </trkpt>
      <trkpt lat="45.99427" lon="6.47767">
        <ele>1610.83</ele>
        <time>2017-01-22T09:01:51.000Z</time>
      </trkpt>
      <trkpt lat="45.99429" lon="6.47767">
        <ele>1612.27</ele>
        <time>2017-01-22T09:02:04.000Z</time>
      </trkpt>
      <trkpt lat="45.99428" lon="6.47765">
        <ele>1612.27</ele>
        <time>2017-01-22T09:02:23.000Z</time>
      </trkpt>
      <trkpt lat="45.99424" lon="6.47759">
        <ele>1613.71</ele>
        <time>2017-01-22T09:02:35.000Z</time>
      </trkpt>
      <trkpt lat="45.99421" lon="6.47757">
        <ele>1614.19</ele>
        <time>2017-01-22T09:02:49.000Z</time>
      </trkpt>
      <trkpt lat="45.99418" lon="6.47754">
        <ele>1615.63</ele>
        <time>2017-01-22T09:03:02.000Z</time>
      </trkpt>
      <trkpt lat="45.99416" lon="6.47751">
        <ele>1617.07</ele>
        <time>2017-01-22T09:03:12.000Z</time>
      </trkpt>
      <trkpt lat="45.99415" lon="6.47747">
        <ele>1618.52</ele>
        <time>2017-01-22T09:03:25.000Z</time>
      </trkpt>
      <trkpt lat="45.99413" lon="6.47744">
        <ele>1619.96</ele>
        <time>2017-01-22T09:03:37.000Z</time>
      </trkpt>
      <trkpt lat="45.99412" lon="6.47742">
        <ele>1619.96</ele>
        <time>2017-01-22T09:03:53.000Z</time>
      </trkpt>
      <trkpt lat="45.99417" lon="6.47753">
        <ele>1620.92</ele>
        <time>2017-01-22T09:04:07.000Z</time>
      </trkpt>
      <trkpt lat="45.99421" lon="6.47751">
        <ele>1622.36</ele>
        <time>2017-01-22T09:04:20.000Z</time>
      </trkpt>
      <trkpt lat="45.99427" lon="6.47748">
        <ele>1623.32</ele>
        <time>2017-01-22T09:04:33.000Z</time>
      </trkpt>
      <trkpt lat="45.9943" lon="6.47748">
        <ele>1624.28</ele>
        <time>2017-01-22T09:04:50.000Z</time>
      </trkpt>
      <trkpt lat="45.99432" lon="6.47748">
        <ele>1624.28</ele>
        <time>2017-01-22T09:05:15.000Z</time>
      </trkpt>
      <trkpt lat="45.99433" lon="6.47747">
        <ele>1625.25</ele>
        <time>2017-01-22T09:05:31.000Z</time>
      </trkpt>
      <trkpt lat="45.99431" lon="6.47743">
        <ele>1625.25</ele>
        <time>2017-01-22T09:05:45.000Z</time>
      </trkpt>
      <trkpt lat="45.99428" lon="6.47738">
        <ele>1627.17</ele>
        <time>2017-01-22T09:05:58.000Z</time>
      </trkpt>
      <trkpt lat="45.99424" lon="6.47732">
        <ele>1628.61</ele>
        <time>2017-01-22T09:06:11.000Z</time>
      </trkpt>
      <trkpt lat="45.99422" lon="6.47728">
        <ele>1630.05</ele>
        <time>2017-01-22T09:06:24.000Z</time>
      </trkpt>
      <trkpt lat="45.99421" lon="6.47734">
        <ele>1630.05</ele>
        <time>2017-01-22T09:06:42.000Z</time>
      </trkpt>
      <trkpt lat="45.99425" lon="6.47733">
        <ele>1631.01</ele>
        <time>2017-01-22T09:06:54.000Z</time>
      </trkpt>
      <trkpt lat="45.9943" lon="6.47734">
        <ele>1631.98</ele>
        <time>2017-01-22T09:07:07.000Z</time>
      </trkpt>
      <trkpt lat="45.99437" lon="6.47734">
        <ele>1633.9</ele>
        <time>2017-01-22T09:07:21.000Z</time>
      </trkpt>
      <trkpt lat="45.99443" lon="6.47736">
        <ele>1635.34</ele>
        <time>2017-01-22T09:07:34.000Z</time>
      </trkpt>
      <trkpt lat="45.99446" lon="6.47739">
        <ele>1635.34</ele>
        <time>2017-01-22T09:07:47.000Z</time>
      </trkpt>
      <trkpt lat="45.99448" lon="6.4774">
        <ele>1636.78</ele>
        <time>2017-01-22T09:07:58.000Z</time>
      </trkpt>
      <trkpt lat="45.99449" lon="6.47742">
        <ele>1637.26</ele>
        <time>2017-01-22T09:08:11.000Z</time>
      </trkpt>
      <trkpt lat="45.99454" lon="6.47745">
        <ele>1638.22</ele>
        <time>2017-01-22T09:08:23.000Z</time>
      </trkpt>
      <trkpt lat="45.99458" lon="6.47746">
        <ele>1639.67</ele>
        <time>2017-01-22T09:08:36.000Z</time>
      </trkpt>
      <trkpt lat="45.99463" lon="6.47747">
        <ele>1640.63</ele>
        <time>2017-01-22T09:08:47.000Z</time>
      </trkpt>
      <trkpt lat="45.99466" lon="6.47748">
        <ele>1641.59</ele>
        <time>2017-01-22T09:08:59.000Z</time>
      </trkpt>
      <trkpt lat="45.99469" lon="6.47754">
        <ele>1642.55</ele>
        <time>2017-01-22T09:09:11.000Z</time>
      </trkpt>
      <trkpt lat="45.9947" lon="6.47759">
        <ele>1643.51</ele>
        <time>2017-01-22T09:09:22.000Z</time>
      </trkpt>
      <trkpt lat="45.99471" lon="6.47766">
        <ele>1644.47</ele>
        <time>2017-01-22T09:09:35.000Z</time>
      </trkpt>
      <trkpt lat="45.99474" lon="6.47773">
        <ele>1645.43</ele>
        <time>2017-01-22T09:09:50.000Z</time>
      </trkpt>
      <trkpt lat="45.99474" lon="6.47767">
        <ele>1646.4</ele>
        <time>2017-01-22T09:10:04.000Z</time>
      </trkpt>
      <trkpt lat="45.99475" lon="6.47759">
        <ele>1647.36</ele>
        <time>2017-01-22T09:10:17.000Z</time>
      </trkpt>
      <trkpt lat="45.99475" lon="6.47753">
        <ele>1647.84</ele>
        <time>2017-01-22T09:10:29.000Z</time>
      </trkpt>
      <trkpt lat="45.99476" lon="6.47748">
        <ele>1649.76</ele>
        <time>2017-01-22T09:10:41.000Z</time>
      </trkpt>
      <trkpt lat="45.99476" lon="6.47742">
        <ele>1650.72</ele>
        <time>2017-01-22T09:10:54.000Z</time>
      </trkpt>
      <trkpt lat="45.99476" lon="6.47734">
        <ele>1652.16</ele>
        <time>2017-01-22T09:11:07.000Z</time>
      </trkpt>
      <trkpt lat="45.99473" lon="6.47729">
        <ele>1653.6</ele>
        <time>2017-01-22T09:11:18.000Z</time>
      </trkpt>
      <trkpt lat="45.9947" lon="6.47723">
        <ele>1655.05</ele>
        <time>2017-01-22T09:11:30.000Z</time>
      </trkpt>
      <trkpt lat="45.99468" lon="6.47721">
        <ele>1656.01</ele>
        <time>2017-01-22T09:11:42.000Z</time>
      </trkpt>
      <trkpt lat="45.99466" lon="6.47716">
        <ele>1656.97</ele>
        <time>2017-01-22T09:11:54.000Z</time>
      </trkpt>
      <trkpt lat="45.99464" lon="6.4771">
        <ele>1658.89</ele>
        <time>2017-01-22T09:12:07.000Z</time>
      </trkpt>
      <trkpt lat="45.99464" lon="6.47707">
        <ele>1659.85</ele>
        <time>2017-01-22T09:12:19.000Z</time>
      </trkpt>
      <trkpt lat="45.99462" lon="6.47705">
        <ele>1660.33</ele>
        <time>2017-01-22T09:12:36.000Z</time>
      </trkpt>
      <trkpt lat="45.99465" lon="6.47705">
        <ele>1660.81</ele>
        <time>2017-01-22T09:12:50.000Z</time>
      </trkpt>
      <trkpt lat="45.99472" lon="6.47708">
        <ele>1662.74</ele>
        <time>2017-01-22T09:13:02.000Z</time>
      </trkpt>
      <trkpt lat="45.99477" lon="6.47709">
        <ele>1664.18</ele>
        <time>2017-01-22T09:13:14.000Z</time>
      </trkpt>
      <trkpt lat="45.99483" lon="6.47712">
        <ele>1666.1</ele>
        <time>2017-01-22T09:13:27.000Z</time>
      </trkpt>
      <trkpt lat="45.99489" lon="6.47713">
        <ele>1667.54</ele>
        <time>2017-01-22T09:13:40.000Z</time>
      </trkpt>
      <trkpt lat="45.99493" lon="6.47715">
        <ele>1668.99</ele>
        <time>2017-01-22T09:13:51.000Z</time>
      </trkpt>
      <trkpt lat="45.99498" lon="6.47717">
        <ele>1670.43</ele>
        <time>2017-01-22T09:14:04.000Z</time>
      </trkpt>
      <trkpt lat="45.99504" lon="6.4772">
        <ele>1671.39</ele>
        <time>2017-01-22T09:14:18.000Z</time>
      </trkpt>
      <trkpt lat="45.99508" lon="6.47722">
        <ele>1672.83</ele>
        <time>2017-01-22T09:14:29.000Z</time>
      </trkpt>
      <trkpt lat="45.9951" lon="6.47723">
        <ele>1674.27</ele>
        <time>2017-01-22T09:14:43.000Z</time>
      </trkpt>
      <trkpt lat="45.99509" lon="6.47717">
        <ele>1675.23</ele>
        <time>2017-01-22T09:14:54.000Z</time>
      </trkpt>
      <trkpt lat="45.9951" lon="6.47712">
        <ele>1676.68</ele>
        <time>2017-01-22T09:15:04.000Z</time>
      </trkpt>
      <trkpt lat="45.9951" lon="6.47713">
        <ele>1676.68</ele>
        <time>2017-01-22T09:15:13.000Z</time>
      </trkpt>
      <trkpt lat="45.99515" lon="6.47714">
        <ele>1677.64</ele>
        <time>2017-01-22T09:15:25.000Z</time>
      </trkpt>
      <trkpt lat="45.99519" lon="6.47711">
        <ele>1678.12</ele>
        <time>2017-01-22T09:15:35.000Z</time>
      </trkpt>
      <trkpt lat="45.99524" lon="6.47705">
        <ele>1680.52</ele>
        <time>2017-01-22T09:15:51.000Z</time>
      </trkpt>
      <trkpt lat="45.99526" lon="6.47706">
        <ele>1680.04</ele>
        <time>2017-01-22T09:16:04.000Z</time>
      </trkpt>
      <trkpt lat="45.99528" lon="6.47708">
        <ele>1679.56</ele>
        <time>2017-01-22T09:16:15.000Z</time>
      </trkpt>
      <trkpt lat="45.9953" lon="6.47709">
        <ele>1679.56</ele>
        <time>2017-01-22T09:16:50.000Z</time>
      </trkpt>
      <trkpt lat="45.99529" lon="6.47709">
        <ele>1679.56</ele>
        <time>2017-01-22T09:17:26.000Z</time>
      </trkpt>
      <trkpt lat="45.9953" lon="6.4771">
        <ele>1679.56</ele>
        <time>2017-01-22T09:18:10.000Z</time>
      </trkpt>
      <trkpt lat="45.99528" lon="6.47708">
        <ele>1679.56</ele>
        <time>2017-01-22T09:18:42.000Z</time>
      </trkpt>
      <trkpt lat="45.99526" lon="6.47708">
        <ele>1678.6</ele>
        <time>2017-01-22T09:18:53.000Z</time>
      </trkpt>
      <trkpt lat="45.99526" lon="6.47708">
        <ele>1678.12</ele>
        <time>2017-01-22T09:19:22.000Z</time>
      </trkpt>
      <trkpt lat="45.99527" lon="6.47708">
        <ele>1680.04</ele>
        <time>2017-01-22T09:19:25.000Z</time>
      </trkpt>
      <trkpt lat="45.99528" lon="6.47705">
        <ele>1680.04</ele>
        <time>2017-01-22T09:20:00.000Z</time>
      </trkpt>
      <trkpt lat="45.99529" lon="6.47706">
        <ele>1681</ele>
        <time>2017-01-22T09:20:22.000Z</time>
      </trkpt>
      <trkpt lat="45.99532" lon="6.47706">
        <ele>1681</ele>
        <time>2017-01-22T09:20:38.000Z</time>
      </trkpt>
      <trkpt lat="45.99542" lon="6.477">
        <ele>1682.93</ele>
        <time>2017-01-22T09:20:53.000Z</time>
      </trkpt>
      <trkpt lat="45.9955" lon="6.47695">
        <ele>1684.37</ele>
        <time>2017-01-22T09:21:08.000Z</time>
      </trkpt>
      <trkpt lat="45.99554" lon="6.47689">
        <ele>1686.29</ele>
        <time>2017-01-22T09:21:21.000Z</time>
      </trkpt>
      <trkpt lat="45.99557" lon="6.47682">
        <ele>1688.21</ele>
        <time>2017-01-22T09:21:35.000Z</time>
      </trkpt>
      <trkpt lat="45.99561" lon="6.47676">
        <ele>1690.14</ele>
        <time>2017-01-22T09:21:49.000Z</time>
      </trkpt>
      <trkpt lat="45.99566" lon="6.47679">
        <ele>1691.1</ele>
        <time>2017-01-22T09:22:01.000Z</time>
      </trkpt>
      <trkpt lat="45.99572" lon="6.47683">
        <ele>1693.02</ele>
        <time>2017-01-22T09:22:14.000Z</time>
      </trkpt>
      <trkpt lat="45.99574" lon="6.47679">
        <ele>1693.98</ele>
        <time>2017-01-22T09:22:25.000Z</time>
      </trkpt>
      <trkpt lat="45.99575" lon="6.4767">
        <ele>1695.42</ele>
        <time>2017-01-22T09:22:39.000Z</time>
      </trkpt>
      <trkpt lat="45.99575" lon="6.47664">
        <ele>1697.34</ele>
        <time>2017-01-22T09:22:52.000Z</time>
      </trkpt>
      <trkpt lat="45.99575" lon="6.47655">
        <ele>1699.27</ele>
        <time>2017-01-22T09:23:07.000Z</time>
      </trkpt>
      <trkpt lat="45.99577" lon="6.47652">
        <ele>1700.23</ele>
        <time>2017-01-22T09:23:17.000Z</time>
      </trkpt>
      <trkpt lat="45.99585" lon="6.47653">
        <ele>1701.67</ele>
        <time>2017-01-22T09:23:29.000Z</time>
      </trkpt>
      <trkpt lat="45.9959" lon="6.47656">
        <ele>1703.59</ele>
        <time>2017-01-22T09:23:41.000Z</time>
      </trkpt>
      <trkpt lat="45.99591" lon="6.4765">
        <ele>1704.55</ele>
        <time>2017-01-22T09:23:53.000Z</time>
      </trkpt>
      <trkpt lat="45.99591" lon="6.47643">
        <ele>1706</ele>
        <time>2017-01-22T09:24:05.000Z</time>
      </trkpt>
      <trkpt lat="45.99591" lon="6.47636">
        <ele>1707.92</ele>
        <time>2017-01-22T09:24:18.000Z</time>
      </trkpt>
      <trkpt lat="45.99596" lon="6.47632">
        <ele>1709.84</ele>
        <time>2017-01-22T09:24:32.000Z</time>
      </trkpt>
      <trkpt lat="45.99601" lon="6.47635">
        <ele>1711.28</ele>
        <time>2017-01-22T09:24:44.000Z</time>
      </trkpt>
      <trkpt lat="45.99603" lon="6.47631">
        <ele>1713.21</ele>
        <time>2017-01-22T09:24:56.000Z</time>
      </trkpt>
      <trkpt lat="45.99603" lon="6.47622">
        <ele>1715.61</ele>
        <time>2017-01-22T09:25:10.000Z</time>
      </trkpt>
      <trkpt lat="45.99605" lon="6.47611">
        <ele>1717.05</ele>
        <time>2017-01-22T09:25:24.000Z</time>
      </trkpt>
      <trkpt lat="45.9961" lon="6.4761">
        <ele>1717.05</ele>
        <time>2017-01-22T09:25:33.000Z</time>
      </trkpt>
      <trkpt lat="45.9962" lon="6.47617">
        <ele>1717.53</ele>
        <time>2017-01-22T09:25:45.000Z</time>
      </trkpt>
      <trkpt lat="45.99625" lon="6.47619">
        <ele>1718.49</ele>
        <time>2017-01-22T09:25:58.000Z</time>
      </trkpt>
      <trkpt lat="45.99629" lon="6.47621">
        <ele>1719.46</ele>
        <time>2017-01-22T09:26:10.000Z</time>
      </trkpt>
      <trkpt lat="45.99636" lon="6.47622">
        <ele>1720.9</ele>
        <time>2017-01-22T09:26:25.000Z</time>
      </trkpt>
      <trkpt lat="45.99642" lon="6.47622">
        <ele>1722.34</ele>
        <time>2017-01-22T09:26:38.000Z</time>
      </trkpt>
      <trkpt lat="45.99649" lon="6.47626">
        <ele>1724.26</ele>
        <time>2017-01-22T09:26:52.000Z</time>
      </trkpt>
      <trkpt lat="45.99656" lon="6.47628">
        <ele>1726.18</ele>
        <time>2017-01-22T09:27:05.000Z</time>
      </trkpt>
      <trkpt lat="45.99661" lon="6.4763">
        <ele>1727.63</ele>
        <time>2017-01-22T09:27:19.000Z</time>
      </trkpt>
      <trkpt lat="45.99668" lon="6.47633">
        <ele>1729.55</ele>
        <time>2017-01-22T09:27:33.000Z</time>
      </trkpt>
      <trkpt lat="45.99675" lon="6.47637">
        <ele>1730.99</ele>
        <time>2017-01-22T09:27:45.000Z</time>
      </trkpt>
      <trkpt lat="45.99681" lon="6.47641">
        <ele>1732.91</ele>
        <time>2017-01-22T09:28:00.000Z</time>
      </trkpt>
      <trkpt lat="45.99686" lon="6.47642">
        <ele>1735.32</ele>
        <time>2017-01-22T09:28:12.000Z</time>
      </trkpt>
      <trkpt lat="45.99692" lon="6.47641">
        <ele>1737.24</ele>
        <time>2017-01-22T09:28:24.000Z</time>
      </trkpt>
      <trkpt lat="45.99698" lon="6.47641">
        <ele>1739.16</ele>
        <time>2017-01-22T09:28:38.000Z</time>
      </trkpt>
      <trkpt lat="45.99705" lon="6.47639">
        <ele>1739.64</ele>
        <time>2017-01-22T09:28:49.000Z</time>
      </trkpt>
      <trkpt lat="45.99716" lon="6.47632">
        <ele>1740.6</ele>
        <time>2017-01-22T09:29:05.000Z</time>
      </trkpt>
      <trkpt lat="45.99726" lon="6.47628">
        <ele>1742.53</ele>
        <time>2017-01-22T09:29:21.000Z</time>
      </trkpt>
      <trkpt lat="45.99733" lon="6.47628">
        <ele>1744.93</ele>
        <time>2017-01-22T09:29:35.000Z</time>
      </trkpt>
      <trkpt lat="45.99741" lon="6.47628">
        <ele>1747.33</ele>
        <time>2017-01-22T09:29:48.000Z</time>
      </trkpt>
      <trkpt lat="45.99747" lon="6.4763">
        <ele>1749.26</ele>
        <time>2017-01-22T09:30:03.000Z</time>
      </trkpt>
      <trkpt lat="45.99751" lon="6.47633">
        <ele>1749.74</ele>
        <time>2017-01-22T09:30:17.000Z</time>
      </trkpt>
      <trkpt lat="45.99761" lon="6.47633">
        <ele>1752.14</ele>
        <time>2017-01-22T09:30:30.000Z</time>
      </trkpt>
      <trkpt lat="45.99768" lon="6.47635">
        <ele>1753.1</ele>
        <time>2017-01-22T09:30:42.000Z</time>
      </trkpt>
      <trkpt lat="45.99779" lon="6.47626">
        <ele>1753.58</ele>
        <time>2017-01-22T09:30:56.000Z</time>
      </trkpt>
      <trkpt lat="45.9979" lon="6.47624">
        <ele>1755.02</ele>
        <time>2017-01-22T09:31:12.000Z</time>
      </trkpt>
      <trkpt lat="45.99802" lon="6.47625">
        <ele>1756.47</ele>
        <time>2017-01-22T09:31:27.000Z</time>
      </trkpt>
      <trkpt lat="45.99811" lon="6.47625">
        <ele>1757.91</ele>
        <time>2017-01-22T09:31:41.000Z</time>
      </trkpt>
      <trkpt lat="45.9982" lon="6.47625">
        <ele>1760.31</ele>
        <time>2017-01-22T09:31:54.000Z</time>
      </trkpt>
      <trkpt lat="45.99828" lon="6.47629">
        <ele>1762.23</ele>
        <time>2017-01-22T09:32:07.000Z</time>
      </trkpt>
      <trkpt lat="45.99834" lon="6.47637">
        <ele>1765.12</ele>
        <time>2017-01-22T09:32:20.000Z</time>
      </trkpt>
      <trkpt lat="45.99837" lon="6.47644">
        <ele>1766.56</ele>
        <time>2017-01-22T09:32:38.000Z</time>
      </trkpt>
      <trkpt lat="45.99839" lon="6.47644">
        <ele>1766.56</ele>
        <time>2017-01-22T09:32:56.000Z</time>
      </trkpt>
      <trkpt lat="45.99839" lon="6.47639">
        <ele>1766.56</ele>
        <time>2017-01-22T09:33:08.000Z</time>
      </trkpt>
      <trkpt lat="45.99841" lon="6.47637">
        <ele>1767.52</ele>
        <time>2017-01-22T09:33:21.000Z</time>
      </trkpt>
      <trkpt lat="45.99841" lon="6.4763">
        <ele>1769.44</ele>
        <time>2017-01-22T09:33:37.000Z</time>
      </trkpt>
      <trkpt lat="45.99846" lon="6.47632">
        <ele>1771.37</ele>
        <time>2017-01-22T09:33:49.000Z</time>
      </trkpt>
      <trkpt lat="45.99851" lon="6.47641">
        <ele>1773.29</ele>
        <time>2017-01-22T09:34:03.000Z</time>
      </trkpt>
      <trkpt lat="45.99852" lon="6.47651">
        <ele>1774.25</ele>
        <time>2017-01-22T09:34:16.000Z</time>
      </trkpt>
      <trkpt lat="45.99857" lon="6.47661">
        <ele>1776.17</ele>
        <time>2017-01-22T09:34:28.000Z</time>
      </trkpt>
      <trkpt lat="45.99863" lon="6.47666">
        <ele>1778.1</ele>
        <time>2017-01-22T09:34:42.000Z</time>
      </trkpt>
      <trkpt lat="45.99865" lon="6.47657">
        <ele>1780.02</ele>
        <time>2017-01-22T09:34:56.000Z</time>
      </trkpt>
      <trkpt lat="45.99869" lon="6.47649">
        <ele>1781.46</ele>
        <time>2017-01-22T09:35:12.000Z</time>
      </trkpt>
      <trkpt lat="45.99867" lon="6.47641">
        <ele>1783.38</ele>
        <time>2017-01-22T09:35:24.000Z</time>
      </trkpt>
      <trkpt lat="45.99866" lon="6.47632">
        <ele>1786.27</ele>
        <time>2017-01-22T09:35:39.000Z</time>
      </trkpt>
      <trkpt lat="45.99866" lon="6.47629">
        <ele>1786.75</ele>
        <time>2017-01-22T09:35:51.000Z</time>
      </trkpt>
      <trkpt lat="45.99866" lon="6.47624">
        <ele>1787.23</ele>
        <time>2017-01-22T09:36:04.000Z</time>
      </trkpt>
      <trkpt lat="45.99866" lon="6.47618">
        <ele>1789.15</ele>
        <time>2017-01-22T09:36:16.000Z</time>
      </trkpt>
      <trkpt lat="45.99866" lon="6.47615">
        <ele>1790.11</ele>
        <time>2017-01-22T09:36:28.000Z</time>
      </trkpt>
      <trkpt lat="45.99868" lon="6.47611">
        <ele>1791.55</ele>
        <time>2017-01-22T09:36:39.000Z</time>
      </trkpt>
      <trkpt lat="45.99868" lon="6.47609">
        <ele>1792.03</ele>
        <time>2017-01-22T09:36:56.000Z</time>
      </trkpt>
      <trkpt lat="45.9987" lon="6.47604">
        <ele>1793.96</ele>
        <time>2017-01-22T09:37:09.000Z</time>
      </trkpt>
      <trkpt lat="45.99871" lon="6.47601">
        <ele>1795.4</ele>
        <time>2017-01-22T09:37:21.000Z</time>
      </trkpt>
      <trkpt lat="45.9987" lon="6.47595">
        <ele>1796.84</ele>
        <time>2017-01-22T09:37:34.000Z</time>
      </trkpt>
      <trkpt lat="45.99868" lon="6.47587">
        <ele>1799.24</ele>
        <time>2017-01-22T09:37:49.000Z</time>
      </trkpt>
      <trkpt lat="45.99866" lon="6.4758">
        <ele>1800.69</ele>
        <time>2017-01-22T09:38:02.000Z</time>
      </trkpt>
      <trkpt lat="45.99865" lon="6.47572">
        <ele>1803.09</ele>
        <time>2017-01-22T09:38:16.000Z</time>
      </trkpt>
      <trkpt lat="45.99865" lon="6.47567">
        <ele>1804.05</ele>
        <time>2017-01-22T09:38:31.000Z</time>
      </trkpt>
      <trkpt lat="45.99868" lon="6.47565">
        <ele>1805.49</ele>
        <time>2017-01-22T09:38:44.000Z</time>
      </trkpt>
      <trkpt lat="45.99873" lon="6.47566">
        <ele>1806.45</ele>
        <time>2017-01-22T09:38:59.000Z</time>
      </trkpt>
      <trkpt lat="45.99874" lon="6.47564">
        <ele>1807.42</ele>
        <time>2017-01-22T09:39:12.000Z</time>
      </trkpt>
      <trkpt lat="45.99873" lon="6.47556">
        <ele>1809.34</ele>
        <time>2017-01-22T09:39:25.000Z</time>
      </trkpt>
      <trkpt lat="45.99871" lon="6.47551">
        <ele>1810.3</ele>
        <time>2017-01-22T09:39:35.000Z</time>
      </trkpt>
      <trkpt lat="45.99869" lon="6.47548">
        <ele>1811.26</ele>
        <time>2017-01-22T09:39:46.000Z</time>
      </trkpt>
      <trkpt lat="45.99863" lon="6.47541">
        <ele>1813.18</ele>
        <time>2017-01-22T09:39:59.000Z</time>
      </trkpt>
      <trkpt lat="45.99865" lon="6.47537">
        <ele>1815.11</ele>
        <time>2017-01-22T09:40:10.000Z</time>
      </trkpt>
      <trkpt lat="45.9987" lon="6.4753">
        <ele>1817.03</ele>
        <time>2017-01-22T09:40:17.000Z</time>
      </trkpt>
      <trkpt lat="45.9987" lon="6.47528">
        <ele>1817.03</ele>
        <time>2017-01-22T09:40:35.000Z</time>
      </trkpt>
      <trkpt lat="45.99873" lon="6.47531">
        <ele>1817.03</ele>
        <time>2017-01-22T09:40:55.000Z</time>
      </trkpt>
      <trkpt lat="45.99871" lon="6.47532">
        <ele>1817.03</ele>
        <time>2017-01-22T09:41:17.000Z</time>
      </trkpt>
      <trkpt lat="45.99873" lon="6.47535">
        <ele>1817.03</ele>
        <time>2017-01-22T09:41:37.000Z</time>
      </trkpt>
      <trkpt lat="45.99872" lon="6.47533">
        <ele>1817.51</ele>
        <time>2017-01-22T09:41:59.000Z</time>
      </trkpt>
      <trkpt lat="45.99871" lon="6.47535">
        <ele>1817.51</ele>
        <time>2017-01-22T09:42:26.000Z</time>
      </trkpt>
      <trkpt lat="45.9987" lon="6.4753">
        <ele>1817.51</ele>
        <time>2017-01-22T09:42:46.000Z</time>
      </trkpt>
      <trkpt lat="45.99871" lon="6.4753">
        <ele>1817.51</ele>
        <time>2017-01-22T09:43:09.000Z</time>
      </trkpt>
      <trkpt lat="45.99871" lon="6.47522">
        <ele>1818.95</ele>
        <time>2017-01-22T09:43:23.000Z</time>
      </trkpt>
      <trkpt lat="45.99868" lon="6.47514">
        <ele>1820.39</ele>
        <time>2017-01-22T09:43:36.000Z</time>
      </trkpt>
      <trkpt lat="45.99864" lon="6.47505">
        <ele>1823.28</ele>
        <time>2017-01-22T09:43:50.000Z</time>
      </trkpt>
      <trkpt lat="45.99862" lon="6.47496">
        <ele>1824.72</ele>
        <time>2017-01-22T09:44:03.000Z</time>
      </trkpt>
      <trkpt lat="45.99864" lon="6.4749">
        <ele>1826.16</ele>
        <time>2017-01-22T09:44:16.000Z</time>
      </trkpt>
      <trkpt lat="45.99864" lon="6.47491">
        <ele>1826.64</ele>
        <time>2017-01-22T09:44:35.000Z</time>
      </trkpt>
      <trkpt lat="45.99873" lon="6.47487">
        <ele>1828.56</ele>
        <time>2017-01-22T09:44:49.000Z</time>
      </trkpt>
      <trkpt lat="45.99881" lon="6.47488">
        <ele>1830.49</ele>
        <time>2017-01-22T09:45:02.000Z</time>
      </trkpt>
      <trkpt lat="45.99884" lon="6.47491">
        <ele>1831.93</ele>
        <time>2017-01-22T09:45:17.000Z</time>
      </trkpt>
      <trkpt lat="45.99889" lon="6.47488">
        <ele>1833.85</ele>
        <time>2017-01-22T09:45:34.000Z</time>
      </trkpt>
      <trkpt lat="45.99891" lon="6.47482">
        <ele>1835.77</ele>
        <time>2017-01-22T09:45:46.000Z</time>
      </trkpt>
      <trkpt lat="45.99891" lon="6.47473">
        <ele>1838.18</ele>
        <time>2017-01-22T09:45:59.000Z</time>
      </trkpt>
      <trkpt lat="45.99892" lon="6.47463">
        <ele>1840.1</ele>
        <time>2017-01-22T09:46:14.000Z</time>
      </trkpt>
      <trkpt lat="45.99891" lon="6.47454">
        <ele>1842.02</ele>
        <time>2017-01-22T09:46:28.000Z</time>
      </trkpt>
      <trkpt lat="45.99891" lon="6.47447">
        <ele>1843.95</ele>
        <time>2017-01-22T09:46:42.000Z</time>
      </trkpt>
      <trkpt lat="45.99889" lon="6.47438">
        <ele>1845.39</ele>
        <time>2017-01-22T09:46:56.000Z</time>
      </trkpt>
      <trkpt lat="45.99889" lon="6.47435">
        <ele>1846.83</ele>
        <time>2017-01-22T09:47:09.000Z</time>
      </trkpt>
      <trkpt lat="45.99891" lon="6.47434">
        <ele>1847.31</ele>
        <time>2017-01-22T09:47:25.000Z</time>
      </trkpt>
      <trkpt lat="45.99895" lon="6.47432">
        <ele>1848.75</ele>
        <time>2017-01-22T09:47:37.000Z</time>
      </trkpt>
      <trkpt lat="45.99903" lon="6.47434">
        <ele>1850.68</ele>
        <time>2017-01-22T09:47:52.000Z</time>
      </trkpt>
      <trkpt lat="45.9991" lon="6.4744">
        <ele>1852.12</ele>
        <time>2017-01-22T09:48:05.000Z</time>
      </trkpt>
      <trkpt lat="45.99916" lon="6.47447">
        <ele>1854.52</ele>
        <time>2017-01-22T09:48:21.000Z</time>
      </trkpt>
      <trkpt lat="45.9992" lon="6.47453">
        <ele>1856.92</ele>
        <time>2017-01-22T09:48:35.000Z</time>
      </trkpt>
      <trkpt lat="45.99924" lon="6.47458">
        <ele>1858.85</ele>
        <time>2017-01-22T09:48:50.000Z</time>
      </trkpt>
      <trkpt lat="45.99929" lon="6.47462">
        <ele>1859.81</ele>
        <time>2017-01-22T09:49:04.000Z</time>
      </trkpt>
      <trkpt lat="45.99929" lon="6.47463">
        <ele>1860.77</ele>
        <time>2017-01-22T09:49:20.000Z</time>
      </trkpt>
      <trkpt lat="45.99932" lon="6.47459">
        <ele>1862.21</ele>
        <time>2017-01-22T09:49:34.000Z</time>
      </trkpt>
      <trkpt lat="45.99935" lon="6.47455">
        <ele>1863.65</ele>
        <time>2017-01-22T09:49:52.000Z</time>
      </trkpt>
      <trkpt lat="45.99941" lon="6.47451">
        <ele>1865.09</ele>
        <time>2017-01-22T09:50:08.000Z</time>
      </trkpt>
      <trkpt lat="45.99945" lon="6.47452">
        <ele>1866.06</ele>
        <time>2017-01-22T09:50:19.000Z</time>
      </trkpt>
      <trkpt lat="45.9995" lon="6.47455">
        <ele>1867.02</ele>
        <time>2017-01-22T09:50:31.000Z</time>
      </trkpt>
      <trkpt lat="45.99953" lon="6.47457">
        <ele>1868.46</ele>
        <time>2017-01-22T09:50:42.000Z</time>
      </trkpt>
      <trkpt lat="45.99955" lon="6.47458">
        <ele>1868.94</ele>
        <time>2017-01-22T09:50:56.000Z</time>
      </trkpt>
      <trkpt lat="45.99959" lon="6.4746">
        <ele>1869.9</ele>
        <time>2017-01-22T09:51:07.000Z</time>
      </trkpt>
      <trkpt lat="45.99962" lon="6.47463">
        <ele>1870.38</ele>
        <time>2017-01-22T09:51:23.000Z</time>
      </trkpt>
      <trkpt lat="45.99965" lon="6.47468">
        <ele>1871.82</ele>
        <time>2017-01-22T09:51:33.000Z</time>
      </trkpt>
      <trkpt lat="45.9997" lon="6.47473">
        <ele>1874.23</ele>
        <time>2017-01-22T09:51:46.000Z</time>
      </trkpt>
      <trkpt lat="45.99974" lon="6.47477">
        <ele>1875.67</ele>
        <time>2017-01-22T09:51:59.000Z</time>
      </trkpt>
      <trkpt lat="45.9998" lon="6.4748">
        <ele>1878.55</ele>
        <time>2017-01-22T09:52:13.000Z</time>
      </trkpt>
      <trkpt lat="45.99987" lon="6.47483">
        <ele>1880.48</ele>
        <time>2017-01-22T09:52:26.000Z</time>
      </trkpt>
      <trkpt lat="45.99992" lon="6.47487">
        <ele>1880.96</ele>
        <time>2017-01-22T09:52:37.000Z</time>
      </trkpt>
      <trkpt lat="45.99995" lon="6.47491">
        <ele>1881.44</ele>
        <time>2017-01-22T09:52:48.000Z</time>
      </trkpt>
      <trkpt lat="45.99995" lon="6.47498">
        <ele>1881.44</ele>
        <time>2017-01-22T09:52:59.000Z</time>
      </trkpt>
      <trkpt lat="45.99995" lon="6.47509">
        <ele>1883.36</ele>
        <time>2017-01-22T09:53:14.000Z</time>
      </trkpt>
      <trkpt lat="45.99994" lon="6.4752">
        <ele>1884.8</ele>
        <time>2017-01-22T09:53:27.000Z</time>
      </trkpt>
      <trkpt lat="45.99995" lon="6.47528">
        <ele>1885.76</ele>
        <time>2017-01-22T09:53:37.000Z</time>
      </trkpt>
      <trkpt lat="45.99994" lon="6.47535">
        <ele>1887.69</ele>
        <time>2017-01-22T09:53:50.000Z</time>
      </trkpt>
      <trkpt lat="45.99994" lon="6.47547">
        <ele>1889.13</ele>
        <time>2017-01-22T09:54:04.000Z</time>
      </trkpt>
      <trkpt lat="45.99992" lon="6.47555">
        <ele>1891.05</ele>
        <time>2017-01-22T09:54:17.000Z</time>
      </trkpt>
      <trkpt lat="45.99994" lon="6.47556">
        <ele>1891.05</ele>
        <time>2017-01-22T09:54:35.000Z</time>
      </trkpt>
      <trkpt lat="45.99994" lon="6.47563">
        <ele>1892.49</ele>
        <time>2017-01-22T09:54:47.000Z</time>
      </trkpt>
      <trkpt lat="45.99995" lon="6.4757">
        <ele>1893.93</ele>
        <time>2017-01-22T09:54:58.000Z</time>
      </trkpt>
      <trkpt lat="46" lon="6.47563">
        <ele>1895.86</ele>
        <time>2017-01-22T09:55:11.000Z</time>
      </trkpt>
      <trkpt lat="46.00006" lon="6.47554">
        <ele>1898.26</ele>
        <time>2017-01-22T09:55:27.000Z</time>
      </trkpt>
      <trkpt lat="46.00012" lon="6.47549">
        <ele>1899.7</ele>
        <time>2017-01-22T09:55:41.000Z</time>
      </trkpt>
      <trkpt lat="46.00016" lon="6.47541">
        <ele>1901.63</ele>
        <time>2017-01-22T09:55:54.000Z</time>
      </trkpt>
      <trkpt lat="46.00019" lon="6.47537">
        <ele>1903.07</ele>
        <time>2017-01-22T09:56:08.000Z</time>
      </trkpt>
      <trkpt lat="46.00023" lon="6.47528">
        <ele>1904.51</ele>
        <time>2017-01-22T09:56:26.000Z</time>
      </trkpt>
      <trkpt lat="46.00025" lon="6.4752">
        <ele>1906.43</ele>
        <time>2017-01-22T09:56:40.000Z</time>
      </trkpt>
      <trkpt lat="46.00033" lon="6.47515">
        <ele>1907.39</ele>
        <time>2017-01-22T09:56:53.000Z</time>
      </trkpt>
      <trkpt lat="46.00034" lon="6.47512">
        <ele>1908.83</ele>
        <time>2017-01-22T09:57:07.000Z</time>
      </trkpt>
      <trkpt lat="46.00036" lon="6.47511">
        <ele>1909.8</ele>
        <time>2017-01-22T09:57:22.000Z</time>
      </trkpt>
      <trkpt lat="46.00039" lon="6.47517">
        <ele>1910.76</ele>
        <time>2017-01-22T09:57:34.000Z</time>
      </trkpt>
      <trkpt lat="46.00041" lon="6.47527">
        <ele>1913.16</ele>
        <time>2017-01-22T09:57:48.000Z</time>
      </trkpt>
      <trkpt lat="46.00044" lon="6.47534">
        <ele>1914.12</ele>
        <time>2017-01-22T09:58:00.000Z</time>
      </trkpt>
      <trkpt lat="46.00045" lon="6.47532">
        <ele>1914.6</ele>
        <time>2017-01-22T09:58:16.000Z</time>
      </trkpt>
      <trkpt lat="46.00045" lon="6.47526">
        <ele>1915.56</ele>
        <time>2017-01-22T09:58:32.000Z</time>
      </trkpt>
      <trkpt lat="46.00049" lon="6.47523">
        <ele>1917.01</ele>
        <time>2017-01-22T09:58:46.000Z</time>
      </trkpt>
      <trkpt lat="46.00052" lon="6.47517">
        <ele>1917.97</ele>
        <time>2017-01-22T09:58:58.000Z</time>
      </trkpt>
      <trkpt lat="46.00055" lon="6.47519">
        <ele>1918.93</ele>
        <time>2017-01-22T09:59:12.000Z</time>
      </trkpt>
      <trkpt lat="46.00059" lon="6.47529">
        <ele>1920.37</ele>
        <time>2017-01-22T09:59:26.000Z</time>
      </trkpt>
      <trkpt lat="46.0006" lon="6.47533">
        <ele>1922.29</ele>
        <time>2017-01-22T09:59:38.000Z</time>
      </trkpt>
      <trkpt lat="46.00062" lon="6.47528">
        <ele>1922.77</ele>
        <time>2017-01-22T09:59:48.000Z</time>
      </trkpt>
      <trkpt lat="46.00063" lon="6.47521">
        <ele>1924.22</ele>
        <time>2017-01-22T10:00:01.000Z</time>
      </trkpt>
      <trkpt lat="46.00064" lon="6.47512">
        <ele>1926.62</ele>
        <time>2017-01-22T10:00:16.000Z</time>
      </trkpt>
      <trkpt lat="46.00066" lon="6.4751">
        <ele>1927.58</ele>
        <time>2017-01-22T10:00:28.000Z</time>
      </trkpt>
      <trkpt lat="46.00065" lon="6.47511">
        <ele>1928.06</ele>
        <time>2017-01-22T10:00:42.000Z</time>
      </trkpt>
      <trkpt lat="46.00069" lon="6.47519">
        <ele>1929.98</ele>
        <time>2017-01-22T10:00:57.000Z</time>
      </trkpt>
      <trkpt lat="46.00076" lon="6.47525">
        <ele>1932.39</ele>
        <time>2017-01-22T10:01:11.000Z</time>
      </trkpt>
      <trkpt lat="46.00083" lon="6.47529">
        <ele>1934.31</ele>
        <time>2017-01-22T10:01:25.000Z</time>
      </trkpt>
      <trkpt lat="46.00086" lon="6.47532">
        <ele>1935.75</ele>
        <time>2017-01-22T10:01:38.000Z</time>
      </trkpt>
      <trkpt lat="46.0009" lon="6.47526">
        <ele>1937.67</ele>
        <time>2017-01-22T10:01:53.000Z</time>
      </trkpt>
      <trkpt lat="46.00092" lon="6.47519">
        <ele>1938.64</ele>
        <time>2017-01-22T10:02:07.000Z</time>
      </trkpt>
      <trkpt lat="46.00092" lon="6.47509">
        <ele>1940.08</ele>
        <time>2017-01-22T10:02:21.000Z</time>
      </trkpt>
      <trkpt lat="46.00092" lon="6.47502">
        <ele>1942</ele>
        <time>2017-01-22T10:02:33.000Z</time>
      </trkpt>
      <trkpt lat="46.00094" lon="6.47492">
        <ele>1943.92</ele>
        <time>2017-01-22T10:02:47.000Z</time>
      </trkpt>
      <trkpt lat="46.00098" lon="6.47482">
        <ele>1946.33</ele>
        <time>2017-01-22T10:03:03.000Z</time>
      </trkpt>
      <trkpt lat="46.00103" lon="6.47484">
        <ele>1947.77</ele>
        <time>2017-01-22T10:03:15.000Z</time>
      </trkpt>
      <trkpt lat="46.00109" lon="6.47488">
        <ele>1949.21</ele>
        <time>2017-01-22T10:03:29.000Z</time>
      </trkpt>
      <trkpt lat="46.00117" lon="6.47488">
        <ele>1952.09</ele>
        <time>2017-01-22T10:03:45.000Z</time>
      </trkpt>
      <trkpt lat="46.00117" lon="6.47483">
        <ele>1953.06</ele>
        <time>2017-01-22T10:03:55.000Z</time>
      </trkpt>
      <trkpt lat="46.00117" lon="6.47475">
        <ele>1954.98</ele>
        <time>2017-01-22T10:04:09.000Z</time>
      </trkpt>
      <trkpt lat="46.00117" lon="6.47467">
        <ele>1956.42</ele>
        <time>2017-01-22T10:04:23.000Z</time>
      </trkpt>
      <trkpt lat="46.00118" lon="6.47458">
        <ele>1957.86</ele>
        <time>2017-01-22T10:04:35.000Z</time>
      </trkpt>
      <trkpt lat="46.0012" lon="6.47456">
        <ele>1959.78</ele>
        <time>2017-01-22T10:04:46.000Z</time>
      </trkpt>
      <trkpt lat="46.00127" lon="6.47461">
        <ele>1961.71</ele>
        <time>2017-01-22T10:05:01.000Z</time>
      </trkpt>
      <trkpt lat="46.00134" lon="6.47463">
        <ele>1963.15</ele>
        <time>2017-01-22T10:05:16.000Z</time>
      </trkpt>
      <trkpt lat="46.00137" lon="6.47459">
        <ele>1965.07</ele>
        <time>2017-01-22T10:05:27.000Z</time>
      </trkpt>
      <trkpt lat="46.00137" lon="6.47447">
        <ele>1966.99</ele>
        <time>2017-01-22T10:05:41.000Z</time>
      </trkpt>
      <trkpt lat="46.00138" lon="6.47441">
        <ele>1967.96</ele>
        <time>2017-01-22T10:05:53.000Z</time>
      </trkpt>
      <trkpt lat="46.00143" lon="6.47438">
        <ele>1970.36</ele>
        <time>2017-01-22T10:06:04.000Z</time>
      </trkpt>
      <trkpt lat="46.00147" lon="6.47444">
        <ele>1971.8</ele>
        <time>2017-01-22T10:06:16.000Z</time>
      </trkpt>
      <trkpt lat="46.00151" lon="6.47449">
        <ele>1973.24</ele>
        <time>2017-01-22T10:06:28.000Z</time>
      </trkpt>
      <trkpt lat="46.00155" lon="6.47454">
        <ele>1975.65</ele>
        <time>2017-01-22T10:06:40.000Z</time>
      </trkpt>
      <trkpt lat="46.00159" lon="6.47456">
        <ele>1977.09</ele>
        <time>2017-01-22T10:06:51.000Z</time>
      </trkpt>
      <trkpt lat="46.0016" lon="6.47455">
        <ele>1978.05</ele>
        <time>2017-01-22T10:07:05.000Z</time>
      </trkpt>
      <trkpt lat="46.00164" lon="6.47456">
        <ele>1979.49</ele>
        <time>2017-01-22T10:07:26.000Z</time>
      </trkpt>
      <trkpt lat="46.00166" lon="6.47455">
        <ele>1980.45</ele>
        <time>2017-01-22T10:07:38.000Z</time>
      </trkpt>
      <trkpt lat="46.00165" lon="6.47449">
        <ele>1981.41</ele>
        <time>2017-01-22T10:07:51.000Z</time>
      </trkpt>
      <trkpt lat="46.00166" lon="6.47444">
        <ele>1983.34</ele>
        <time>2017-01-22T10:08:02.000Z</time>
      </trkpt>
      <trkpt lat="46.00165" lon="6.47434">
        <ele>1984.78</ele>
        <time>2017-01-22T10:08:16.000Z</time>
      </trkpt>
      <trkpt lat="46.00167" lon="6.47423">
        <ele>1987.18</ele>
        <time>2017-01-22T10:08:31.000Z</time>
      </trkpt>
      <trkpt lat="46.00168" lon="6.47418">
        <ele>1988.14</ele>
        <time>2017-01-22T10:08:45.000Z</time>
      </trkpt>
      <trkpt lat="46.00172" lon="6.47412">
        <ele>1990.55</ele>
        <time>2017-01-22T10:09:00.000Z</time>
      </trkpt>
      <trkpt lat="46.00175" lon="6.47404">
        <ele>1991.51</ele>
        <time>2017-01-22T10:09:12.000Z</time>
      </trkpt>
      <trkpt lat="46.00176" lon="6.47394">
        <ele>1993.91</ele>
        <time>2017-01-22T10:09:29.000Z</time>
      </trkpt>
      <trkpt lat="46.00172" lon="6.47383">
        <ele>1995.83</ele>
        <time>2017-01-22T10:09:45.000Z</time>
      </trkpt>
      <trkpt lat="46.0017" lon="6.47374">
        <ele>1997.76</ele>
        <time>2017-01-22T10:09:59.000Z</time>
      </trkpt>
      <trkpt lat="46.00171" lon="6.47372">
        <ele>1998.72</ele>
        <time>2017-01-22T10:10:13.000Z</time>
      </trkpt>
      <trkpt lat="46.00178" lon="6.47374">
        <ele>1999.68</ele>
        <time>2017-01-22T10:10:24.000Z</time>
      </trkpt>
      <trkpt lat="46.00187" lon="6.47375">
        <ele>2001.6</ele>
        <time>2017-01-22T10:10:40.000Z</time>
      </trkpt>
      <trkpt lat="46.00193" lon="6.47375">
        <ele>2004.01</ele>
        <time>2017-01-22T10:10:54.000Z</time>
      </trkpt>
      <trkpt lat="46.00199" lon="6.47375">
        <ele>2005.93</ele>
        <time>2017-01-22T10:11:07.000Z</time>
      </trkpt>
      <trkpt lat="46.00206" lon="6.47377">
        <ele>2007.85</ele>
        <time>2017-01-22T10:11:20.000Z</time>
      </trkpt>
      <trkpt lat="46.00212" lon="6.47372">
        <ele>2009.77</ele>
        <time>2017-01-22T10:11:35.000Z</time>
      </trkpt>
      <trkpt lat="46.00218" lon="6.47365">
        <ele>2011.22</ele>
        <time>2017-01-22T10:11:50.000Z</time>
      </trkpt>
      <trkpt lat="46.00226" lon="6.4736">
        <ele>2013.14</ele>
        <time>2017-01-22T10:12:08.000Z</time>
      </trkpt>
      <trkpt lat="46.00232" lon="6.47361">
        <ele>2015.06</ele>
        <time>2017-01-22T10:12:22.000Z</time>
      </trkpt>
      <trkpt lat="46.00233" lon="6.47366">
        <ele>2015.54</ele>
        <time>2017-01-22T10:12:47.000Z</time>
      </trkpt>
      <trkpt lat="46.00235" lon="6.47361">
        <ele>2016.5</ele>
        <time>2017-01-22T10:12:57.000Z</time>
      </trkpt>
      <trkpt lat="46.00235" lon="6.4735">
        <ele>2018.43</ele>
        <time>2017-01-22T10:13:10.000Z</time>
      </trkpt>
      <trkpt lat="46.00235" lon="6.47343">
        <ele>2020.83</ele>
        <time>2017-01-22T10:13:23.000Z</time>
      </trkpt>
      <trkpt lat="46.0024" lon="6.47342">
        <ele>2022.27</ele>
        <time>2017-01-22T10:13:34.000Z</time>
      </trkpt>
      <trkpt lat="46.00243" lon="6.47345">
        <ele>2023.23</ele>
        <time>2017-01-22T10:13:45.000Z</time>
      </trkpt>
      <trkpt lat="46.00246" lon="6.4735">
        <ele>2024.67</ele>
        <time>2017-01-22T10:13:56.000Z</time>
      </trkpt>
      <trkpt lat="46.00249" lon="6.47356">
        <ele>2025.64</ele>
        <time>2017-01-22T10:14:09.000Z</time>
      </trkpt>
      <trkpt lat="46.00252" lon="6.47366">
        <ele>2026.6</ele>
        <time>2017-01-22T10:14:24.000Z</time>
      </trkpt>
      <trkpt lat="46.00257" lon="6.47374">
        <ele>2028.04</ele>
        <time>2017-01-22T10:14:39.000Z</time>
      </trkpt>
      <trkpt lat="46.00259" lon="6.47368">
        <ele>2029.48</ele>
        <time>2017-01-22T10:14:50.000Z</time>
      </trkpt>
      <trkpt lat="46.00261" lon="6.47361">
        <ele>2031.4</ele>
        <time>2017-01-22T10:15:03.000Z</time>
      </trkpt>
      <trkpt lat="46.00262" lon="6.47351">
        <ele>2033.33</ele>
        <time>2017-01-22T10:15:19.000Z</time>
      </trkpt>
      <trkpt lat="46.00266" lon="6.47344">
        <ele>2034.29</ele>
        <time>2017-01-22T10:15:33.000Z</time>
      </trkpt>
      <trkpt lat="46.00265" lon="6.47338">
        <ele>2035.73</ele>
        <time>2017-01-22T10:15:44.000Z</time>
      </trkpt>
      <trkpt lat="46.00269" lon="6.47332">
        <ele>2037.17</ele>
        <time>2017-01-22T10:15:57.000Z</time>
      </trkpt>
      <trkpt lat="46.00277" lon="6.47331">
        <ele>2038.13</ele>
        <time>2017-01-22T10:16:12.000Z</time>
      </trkpt>
      <trkpt lat="46.0028" lon="6.47328">
        <ele>2040.05</ele>
        <time>2017-01-22T10:16:25.000Z</time>
      </trkpt>
      <trkpt lat="46.0028" lon="6.47326">
        <ele>2041.02</ele>
        <time>2017-01-22T10:16:35.000Z</time>
      </trkpt>
      <trkpt lat="46.00274" lon="6.47322">
        <ele>2041.98</ele>
        <time>2017-01-22T10:16:50.000Z</time>
      </trkpt>
      <trkpt lat="46.00271" lon="6.47317">
        <ele>2043.42</ele>
        <time>2017-01-22T10:17:04.000Z</time>
      </trkpt>
      <trkpt lat="46.00269" lon="6.4731">
        <ele>2044.86</ele>
        <time>2017-01-22T10:17:16.000Z</time>
      </trkpt>
      <trkpt lat="46.00272" lon="6.47306">
        <ele>2046.3</ele>
        <time>2017-01-22T10:17:28.000Z</time>
      </trkpt>
      <trkpt lat="46.00273" lon="6.47303">
        <ele>2047.75</ele>
        <time>2017-01-22T10:17:38.000Z</time>
      </trkpt>
      <trkpt lat="46.00272" lon="6.47298">
        <ele>2048.71</ele>
        <time>2017-01-22T10:17:49.000Z</time>
      </trkpt>
      <trkpt lat="46.0027" lon="6.47291">
        <ele>2051.11</ele>
        <time>2017-01-22T10:18:02.000Z</time>
      </trkpt>
      <trkpt lat="46.00269" lon="6.47285">
        <ele>2053.03</ele>
        <time>2017-01-22T10:18:14.000Z</time>
      </trkpt>
      <trkpt lat="46.00273" lon="6.47282">
        <ele>2053.51</ele>
        <time>2017-01-22T10:18:26.000Z</time>
      </trkpt>
      <trkpt lat="46.00273" lon="6.47282">
        <ele>2053.99</ele>
        <time>2017-01-22T10:18:58.000Z</time>
      </trkpt>
      <trkpt lat="46.00273" lon="6.47284">
        <ele>2053.51</ele>
        <time>2017-01-22T10:19:32.000Z</time>
      </trkpt>
      <trkpt lat="46.00273" lon="6.47281">
        <ele>2053.51</ele>
        <time>2017-01-22T10:20:09.000Z</time>
      </trkpt>
      <trkpt lat="46.00275" lon="6.47285">
        <ele>2053.99</ele>
        <time>2017-01-22T10:20:50.000Z</time>
      </trkpt>
      <trkpt lat="46.00272" lon="6.47282">
        <ele>2053.99</ele>
        <time>2017-01-22T10:21:26.000Z</time>
      </trkpt>
      <trkpt lat="46.00272" lon="6.47281">
        <ele>2053.99</ele>
        <time>2017-01-22T10:21:47.000Z</time>
      </trkpt>
      <trkpt lat="46.00274" lon="6.47286">
        <ele>2053.99</ele>
        <time>2017-01-22T10:22:15.000Z</time>
      </trkpt>
      <trkpt lat="46.00272" lon="6.47282">
        <ele>2053.99</ele>
        <time>2017-01-22T10:22:42.000Z</time>
      </trkpt>
      <trkpt lat="46.0027" lon="6.47281">
        <ele>2054.47</ele>
        <time>2017-01-22T10:23:09.000Z</time>
      </trkpt>
      <trkpt lat="46.00273" lon="6.47281">
        <ele>2054.47</ele>
        <time>2017-01-22T10:23:35.000Z</time>
      </trkpt>
      <trkpt lat="46.00277" lon="6.47281">
        <ele>2055.44</ele>
        <time>2017-01-22T10:23:51.000Z</time>
      </trkpt>
      <trkpt lat="46.00273" lon="6.47278">
        <ele>2055.44</ele>
        <time>2017-01-22T10:24:10.000Z</time>
      </trkpt>
      <trkpt lat="46.00282" lon="6.47277">
        <ele>2055.92</ele>
        <time>2017-01-22T10:24:29.000Z</time>
      </trkpt>
      <trkpt lat="46.00289" lon="6.47276">
        <ele>2057.36</ele>
        <time>2017-01-22T10:24:42.000Z</time>
      </trkpt>
      <trkpt lat="46.00294" lon="6.47271">
        <ele>2059.28</ele>
        <time>2017-01-22T10:24:58.000Z</time>
      </trkpt>
      <trkpt lat="46.00299" lon="6.47266">
        <ele>2061.2</ele>
        <time>2017-01-22T10:25:10.000Z</time>
      </trkpt>
      <trkpt lat="46.00307" lon="6.47261">
        <ele>2061.2</ele>
        <time>2017-01-22T10:25:23.000Z</time>
      </trkpt>
      <trkpt lat="46.00308" lon="6.47261">
        <ele>2061.2</ele>
        <time>2017-01-22T10:25:34.000Z</time>
      </trkpt>
      <trkpt lat="46.00312" lon="6.4725">
        <ele>2061.2</ele>
        <time>2017-01-22T10:25:49.000Z</time>
      </trkpt>
      <trkpt lat="46.00313" lon="6.47249">
        <ele>2061.2</ele>
        <time>2017-01-22T10:25:50.000Z</time>
      </trkpt>
      <trkpt lat="46.00315" lon="6.47246">
        <ele>2060.24</ele>
        <time>2017-01-22T10:25:52.000Z</time>
      </trkpt>
      <trkpt lat="46.00317" lon="6.47237">
        <ele>2059.28</ele>
        <time>2017-01-22T10:25:59.000Z</time>
      </trkpt>
      <trkpt lat="46.00325" lon="6.47229">
        <ele>2059.28</ele>
        <time>2017-01-22T10:26:10.000Z</time>
      </trkpt>
      <trkpt lat="46.00332" lon="6.47232">
        <ele>2061.68</ele>
        <time>2017-01-22T10:26:25.000Z</time>
      </trkpt>
      <trkpt lat="46.00334" lon="6.47231">
        <ele>2062.17</ele>
        <time>2017-01-22T10:26:28.000Z</time>
      </trkpt>
      <trkpt lat="46.00346" lon="6.47227">
        <ele>2060.24</ele>
        <time>2017-01-22T10:26:40.000Z</time>
      </trkpt>
      <trkpt lat="46.00348" lon="6.47226">
        <ele>2060.24</ele>
        <time>2017-01-22T10:26:41.000Z</time>
      </trkpt>
      <trkpt lat="46.00356" lon="6.47231">
        <ele>2059.76</ele>
        <time>2017-01-22T10:26:50.000Z</time>
      </trkpt>
      <trkpt lat="46.00367" lon="6.47231">
        <ele>2059.76</ele>
        <time>2017-01-22T10:27:06.000Z</time>
      </trkpt>
      <trkpt lat="46.0037" lon="6.47228">
        <ele>2061.2</ele>
        <time>2017-01-22T10:27:14.000Z</time>
      </trkpt>
      <trkpt lat="46.00375" lon="6.47222">
        <ele>2063.13</ele>
        <time>2017-01-22T10:27:29.000Z</time>
      </trkpt>
      <trkpt lat="46.00382" lon="6.47219">
        <ele>2065.05</ele>
        <time>2017-01-22T10:27:43.000Z</time>
      </trkpt>
      <trkpt lat="46.00387" lon="6.47225">
        <ele>2066.49</ele>
        <time>2017-01-22T10:27:56.000Z</time>
      </trkpt>
      <trkpt lat="46.00393" lon="6.47231">
        <ele>2067.93</ele>
        <time>2017-01-22T10:28:10.000Z</time>
      </trkpt>
      <trkpt lat="46.00394" lon="6.47235">
        <ele>2069.38</ele>
        <time>2017-01-22T10:28:22.000Z</time>
      </trkpt>
      <trkpt lat="46.00399" lon="6.47246">
        <ele>2071.3</ele>
        <time>2017-01-22T10:28:36.000Z</time>
      </trkpt>
      <trkpt lat="46.00403" lon="6.47256">
        <ele>2072.74</ele>
        <time>2017-01-22T10:28:48.000Z</time>
      </trkpt>
      <trkpt lat="46.00406" lon="6.47263">
        <ele>2074.66</ele>
        <time>2017-01-22T10:29:01.000Z</time>
      </trkpt>
      <trkpt lat="46.00409" lon="6.47271">
        <ele>2076.59</ele>
        <time>2017-01-22T10:29:14.000Z</time>
      </trkpt>
      <trkpt lat="46.0041" lon="6.4728">
        <ele>2078.03</ele>
        <time>2017-01-22T10:29:27.000Z</time>
      </trkpt>
      <trkpt lat="46.00412" lon="6.47286">
        <ele>2078.99</ele>
        <time>2017-01-22T10:29:43.000Z</time>
      </trkpt>
      <trkpt lat="46.00414" lon="6.47292">
        <ele>2080.43</ele>
        <time>2017-01-22T10:29:54.000Z</time>
      </trkpt>
      <trkpt lat="46.00415" lon="6.47301">
        <ele>2082.35</ele>
        <time>2017-01-22T10:30:11.000Z</time>
      </trkpt>
      <trkpt lat="46.00416" lon="6.47306">
        <ele>2083.31</ele>
        <time>2017-01-22T10:30:26.000Z</time>
      </trkpt>
      <trkpt lat="46.00416" lon="6.47305">
        <ele>2084.28</ele>
        <time>2017-01-22T10:30:33.000Z</time>
      </trkpt>
      <trkpt lat="46.00417" lon="6.47299">
        <ele>2086.2</ele>
        <time>2017-01-22T10:30:44.000Z</time>
      </trkpt>
      <trkpt lat="46.00422" lon="6.47293">
        <ele>2088.12</ele>
        <time>2017-01-22T10:30:58.000Z</time>
      </trkpt>
      <trkpt lat="46.00427" lon="6.47289">
        <ele>2090.04</ele>
        <time>2017-01-22T10:31:13.000Z</time>
      </trkpt>
      <trkpt lat="46.00432" lon="6.47287">
        <ele>2091.97</ele>
        <time>2017-01-22T10:31:26.000Z</time>
      </trkpt>
      <trkpt lat="46.00435" lon="6.47282">
        <ele>2093.41</ele>
        <time>2017-01-22T10:31:38.000Z</time>
      </trkpt>
      <trkpt lat="46.00439" lon="6.47277">
        <ele>2095.33</ele>
        <time>2017-01-22T10:31:51.000Z</time>
      </trkpt>
      <trkpt lat="46.00442" lon="6.47277">
        <ele>2097.25</ele>
        <time>2017-01-22T10:32:02.000Z</time>
      </trkpt>
      <trkpt lat="46.00447" lon="6.47271">
        <ele>2098.7</ele>
        <time>2017-01-22T10:32:15.000Z</time>
      </trkpt>
      <trkpt lat="46.0045" lon="6.47262">
        <ele>2100.62</ele>
        <time>2017-01-22T10:32:30.000Z</time>
      </trkpt>
      <trkpt lat="46.00452" lon="6.47255">
        <ele>2102.54</ele>
        <time>2017-01-22T10:32:44.000Z</time>
      </trkpt>
      <trkpt lat="46.00455" lon="6.47248">
        <ele>2103.98</ele>
        <time>2017-01-22T10:32:57.000Z</time>
      </trkpt>
      <trkpt lat="46.00457" lon="6.47242">
        <ele>2105.91</ele>
        <time>2017-01-22T10:33:12.000Z</time>
      </trkpt>
      <trkpt lat="46.00459" lon="6.47236">
        <ele>2107.35</ele>
        <time>2017-01-22T10:33:26.000Z</time>
      </trkpt>
      <trkpt lat="46.00463" lon="6.47232">
        <ele>2108.79</ele>
        <time>2017-01-22T10:33:40.000Z</time>
      </trkpt>
      <trkpt lat="46.00466" lon="6.47226">
        <ele>2110.23</ele>
        <time>2017-01-22T10:33:57.000Z</time>
      </trkpt>
      <trkpt lat="46.00467" lon="6.47219">
        <ele>2112.63</ele>
        <time>2017-01-22T10:34:11.000Z</time>
      </trkpt>
      <trkpt lat="46.00467" lon="6.47212">
        <ele>2114.56</ele>
        <time>2017-01-22T10:34:29.000Z</time>
      </trkpt>
      <trkpt lat="46.00468" lon="6.47208">
        <ele>2116.48</ele>
        <time>2017-01-22T10:34:41.000Z</time>
      </trkpt>
      <trkpt lat="46.00468" lon="6.47208">
        <ele>2116.48</ele>
        <time>2017-01-22T10:34:59.000Z</time>
      </trkpt>
      <trkpt lat="46.00467" lon="6.47209">
        <ele>2116.96</ele>
        <time>2017-01-22T10:35:17.000Z</time>
      </trkpt>
      <trkpt lat="46.00466" lon="6.47211">
        <ele>2116</ele>
        <time>2017-01-22T10:35:29.000Z</time>
      </trkpt>
      <trkpt lat="46.00465" lon="6.4721">
        <ele>2119.36</ele>
        <time>2017-01-22T10:35:32.000Z</time>
      </trkpt>
      <trkpt lat="46.00465" lon="6.4721">
        <ele>2115.04</ele>
        <time>2017-01-22T10:35:34.000Z</time>
      </trkpt>
      <trkpt lat="46.00466" lon="6.47209">
        <ele>2115.52</ele>
        <time>2017-01-22T10:35:39.000Z</time>
      </trkpt>
      <trkpt lat="46.00465" lon="6.47208">
        <ele>2116.96</ele>
        <time>2017-01-22T10:35:55.000Z</time>
      </trkpt>
      <trkpt lat="46.00465" lon="6.47208">
        <ele>2116</ele>
        <time>2017-01-22T10:35:57.000Z</time>
      </trkpt>
      <trkpt lat="46.00465" lon="6.47208">
        <ele>2117.92</ele>
        <time>2017-01-22T10:36:12.000Z</time>
      </trkpt>
      <trkpt lat="46.00467" lon="6.4721">
        <ele>2116.48</ele>
        <time>2017-01-22T10:36:32.000Z</time>
      </trkpt>
      <trkpt lat="46.00466" lon="6.4721">
        <ele>2116.48</ele>
        <time>2017-01-22T10:36:50.000Z</time>
      </trkpt>
      <trkpt lat="46.00468" lon="6.47213">
        <ele>2116.48</ele>
        <time>2017-01-22T10:37:10.000Z</time>
      </trkpt>
      <trkpt lat="46.00466" lon="6.4721">
        <ele>2116.48</ele>
        <time>2017-01-22T10:37:30.000Z</time>
      </trkpt>
      <trkpt lat="46.00468" lon="6.47208">
        <ele>2117.92</ele>
        <time>2017-01-22T10:37:37.000Z</time>
      </trkpt>
      <trkpt lat="46.00467" lon="6.47204">
        <ele>2118.88</ele>
        <time>2017-01-22T10:37:50.000Z</time>
      </trkpt>
      <trkpt lat="46.00469" lon="6.47201">
        <ele>2119.36</ele>
        <time>2017-01-22T10:38:04.000Z</time>
      </trkpt>
      <trkpt lat="46.00471" lon="6.47196">
        <ele>2120.32</ele>
        <time>2017-01-22T10:38:23.000Z</time>
      </trkpt>
      <trkpt lat="46.00472" lon="6.47195">
        <ele>2121.29</ele>
        <time>2017-01-22T10:38:35.000Z</time>
      </trkpt>
      <trkpt lat="46.00475" lon="6.47192">
        <ele>2122.25</ele>
        <time>2017-01-22T10:38:46.000Z</time>
      </trkpt>
      <trkpt lat="46.00476" lon="6.47187">
        <ele>2123.69</ele>
        <time>2017-01-22T10:38:59.000Z</time>
      </trkpt>
      <trkpt lat="46.00478" lon="6.4718">
        <ele>2125.61</ele>
        <time>2017-01-22T10:39:13.000Z</time>
      </trkpt>
      <trkpt lat="46.0048" lon="6.47174">
        <ele>2127.05</ele>
        <time>2017-01-22T10:39:25.000Z</time>
      </trkpt>
      <trkpt lat="46.00481" lon="6.47169">
        <ele>2128.02</ele>
        <time>2017-01-22T10:39:37.000Z</time>
      </trkpt>
      <trkpt lat="46.00481" lon="6.47165">
        <ele>2128.98</ele>
        <time>2017-01-22T10:39:54.000Z</time>
      </trkpt>
      <trkpt lat="46.00483" lon="6.47162">
        <ele>2130.9</ele>
        <time>2017-01-22T10:40:07.000Z</time>
      </trkpt>
      <trkpt lat="46.0048" lon="6.47161">
        <ele>2131.38</ele>
        <time>2017-01-22T10:40:19.000Z</time>
      </trkpt>
      <trkpt lat="46.00481" lon="6.47158">
        <ele>2131.86</ele>
        <time>2017-01-22T10:40:31.000Z</time>
      </trkpt>
      <trkpt lat="46.00481" lon="6.47152">
        <ele>2133.78</ele>
        <time>2017-01-22T10:40:43.000Z</time>
      </trkpt>
      <trkpt lat="46.00483" lon="6.4715">
        <ele>2133.78</ele>
        <time>2017-01-22T10:40:56.000Z</time>
      </trkpt>
      <trkpt lat="46.00483" lon="6.47148">
        <ele>2134.74</ele>
        <time>2017-01-22T10:41:07.000Z</time>
      </trkpt>
      <trkpt lat="46.00484" lon="6.47141">
        <ele>2136.19</ele>
        <time>2017-01-22T10:41:20.000Z</time>
      </trkpt>
      <trkpt lat="46.00484" lon="6.47135">
        <ele>2137.63</ele>
        <time>2017-01-22T10:41:32.000Z</time>
      </trkpt>
      <trkpt lat="46.00484" lon="6.4713">
        <ele>2139.07</ele>
        <time>2017-01-22T10:41:43.000Z</time>
      </trkpt>
      <trkpt lat="46.00485" lon="6.47123">
        <ele>2140.51</ele>
        <time>2017-01-22T10:41:57.000Z</time>
      </trkpt>
      <trkpt lat="46.00485" lon="6.4712">
        <ele>2141.95</ele>
        <time>2017-01-22T10:42:10.000Z</time>
      </trkpt>
      <trkpt lat="46.00486" lon="6.47117">
        <ele>2142.92</ele>
        <time>2017-01-22T10:42:22.000Z</time>
      </trkpt>
      <trkpt lat="46.00487" lon="6.4711">
        <ele>2144.84</ele>
        <time>2017-01-22T10:42:34.000Z</time>
      </trkpt>
      <trkpt lat="46.00488" lon="6.47107">
        <ele>2146.28</ele>
        <time>2017-01-22T10:42:46.000Z</time>
      </trkpt>
      <trkpt lat="46.0049" lon="6.47106">
        <ele>2147.24</ele>
        <time>2017-01-22T10:42:58.000Z</time>
      </trkpt>
      <trkpt lat="46.0049" lon="6.47101">
        <ele>2147.72</ele>
        <time>2017-01-22T10:43:16.000Z</time>
      </trkpt>
      <trkpt lat="46.00491" lon="6.47098">
        <ele>2148.68</ele>
        <time>2017-01-22T10:43:28.000Z</time>
      </trkpt>
      <trkpt lat="46.00491" lon="6.47102">
        <ele>2149.65</ele>
        <time>2017-01-22T10:43:42.000Z</time>
      </trkpt>
      <trkpt lat="46.00493" lon="6.47106">
        <ele>2150.61</ele>
        <time>2017-01-22T10:43:56.000Z</time>
      </trkpt>
      <trkpt lat="46.00495" lon="6.47109">
        <ele>2152.53</ele>
        <time>2017-01-22T10:44:09.000Z</time>
      </trkpt>
      <trkpt lat="46.00498" lon="6.47112">
        <ele>2153.97</ele>
        <time>2017-01-22T10:44:21.000Z</time>
      </trkpt>
      <trkpt lat="46.005" lon="6.47116">
        <ele>2155.41</ele>
        <time>2017-01-22T10:44:34.000Z</time>
      </trkpt>
      <trkpt lat="46.00509" lon="6.47123">
        <ele>2156.37</ele>
        <time>2017-01-22T10:44:47.000Z</time>
      </trkpt>
      <trkpt lat="46.00509" lon="6.47129">
        <ele>2157.82</ele>
        <time>2017-01-22T10:44:59.000Z</time>
      </trkpt>
      <trkpt lat="46.00511" lon="6.47132">
        <ele>2158.78</ele>
        <time>2017-01-22T10:45:11.000Z</time>
      </trkpt>
      <trkpt lat="46.00512" lon="6.47135">
        <ele>2159.74</ele>
        <time>2017-01-22T10:45:22.000Z</time>
      </trkpt>
      <trkpt lat="46.00515" lon="6.47141">
        <ele>2160.7</ele>
        <time>2017-01-22T10:45:35.000Z</time>
      </trkpt>
      <trkpt lat="46.00516" lon="6.47145">
        <ele>2161.66</ele>
        <time>2017-01-22T10:45:47.000Z</time>
      </trkpt>
      <trkpt lat="46.0052" lon="6.4715">
        <ele>2162.62</ele>
        <time>2017-01-22T10:45:59.000Z</time>
      </trkpt>
      <trkpt lat="46.00522" lon="6.47155">
        <ele>2164.06</ele>
        <time>2017-01-22T10:46:11.000Z</time>
      </trkpt>
      <trkpt lat="46.00524" lon="6.47161">
        <ele>2165.51</ele>
        <time>2017-01-22T10:46:25.000Z</time>
      </trkpt>
      <trkpt lat="46.00526" lon="6.47166">
        <ele>2166.95</ele>
        <time>2017-01-22T10:46:37.000Z</time>
      </trkpt>
      <trkpt lat="46.00529" lon="6.47172">
        <ele>2167.91</ele>
        <time>2017-01-22T10:46:50.000Z</time>
      </trkpt>
      <trkpt lat="46.0053" lon="6.47178">
        <ele>2168.87</ele>
        <time>2017-01-22T10:47:02.000Z</time>
      </trkpt>
      <trkpt lat="46.00533" lon="6.47183">
        <ele>2170.31</ele>
        <time>2017-01-22T10:47:15.000Z</time>
      </trkpt>
      <trkpt lat="46.00536" lon="6.47188">
        <ele>2171.76</ele>
        <time>2017-01-22T10:47:27.000Z</time>
      </trkpt>
      <trkpt lat="46.00541" lon="6.47193">
        <ele>2172.24</ele>
        <time>2017-01-22T10:47:43.000Z</time>
      </trkpt>
      <trkpt lat="46.00543" lon="6.47197">
        <ele>2172.72</ele>
        <time>2017-01-22T10:47:55.000Z</time>
      </trkpt>
      <trkpt lat="46.00545" lon="6.47202">
        <ele>2174.16</ele>
        <time>2017-01-22T10:48:09.000Z</time>
      </trkpt>
      <trkpt lat="46.00546" lon="6.47208">
        <ele>2175.12</ele>
        <time>2017-01-22T10:48:23.000Z</time>
      </trkpt>
      <trkpt lat="46.00549" lon="6.47214">
        <ele>2176.56</ele>
        <time>2017-01-22T10:48:36.000Z</time>
      </trkpt>
      <trkpt lat="46.0055" lon="6.47218">
        <ele>2177.52</ele>
        <time>2017-01-22T10:48:49.000Z</time>
      </trkpt>
      <trkpt lat="46.00554" lon="6.47224">
        <ele>2179.45</ele>
        <time>2017-01-22T10:49:03.000Z</time>
      </trkpt>
      <trkpt lat="46.00551" lon="6.47233">
        <ele>2180.41</ele>
        <time>2017-01-22T10:49:17.000Z</time>
      </trkpt>
      <trkpt lat="46.00552" lon="6.47241">
        <ele>2181.85</ele>
        <time>2017-01-22T10:49:29.000Z</time>
      </trkpt>
      <trkpt lat="46.00551" lon="6.47245">
        <ele>2183.29</ele>
        <time>2017-01-22T10:49:44.000Z</time>
      </trkpt>
      <trkpt lat="46.0055" lon="6.47253">
        <ele>2184.25</ele>
        <time>2017-01-22T10:49:58.000Z</time>
      </trkpt>
      <trkpt lat="46.00553" lon="6.47255">
        <ele>2185.69</ele>
        <time>2017-01-22T10:50:11.000Z</time>
      </trkpt>
      <trkpt lat="46.00554" lon="6.47262">
        <ele>2186.18</ele>
        <time>2017-01-22T10:50:24.000Z</time>
      </trkpt>
      <trkpt lat="46.00555" lon="6.47263">
        <ele>2187.14</ele>
        <time>2017-01-22T10:50:36.000Z</time>
      </trkpt>
      <trkpt lat="46.00554" lon="6.47268">
        <ele>2188.58</ele>
        <time>2017-01-22T10:50:51.000Z</time>
      </trkpt>
      <trkpt lat="46.00555" lon="6.47272">
        <ele>2190.02</ele>
        <time>2017-01-22T10:51:04.000Z</time>
      </trkpt>
      <trkpt lat="46.00551" lon="6.47275">
        <ele>2190.98</ele>
        <time>2017-01-22T10:51:17.000Z</time>
      </trkpt>
      <trkpt lat="46.00549" lon="6.4728">
        <ele>2192.42</ele>
        <time>2017-01-22T10:51:29.000Z</time>
      </trkpt>
      <trkpt lat="46.00551" lon="6.47278">
        <ele>2193.39</ele>
        <time>2017-01-22T10:51:47.000Z</time>
      </trkpt>
      <trkpt lat="46.00549" lon="6.47281">
        <ele>2193.87</ele>
        <time>2017-01-22T10:52:03.000Z</time>
      </trkpt>
      <trkpt lat="46.00549" lon="6.47287">
        <ele>2195.31</ele>
        <time>2017-01-22T10:52:18.000Z</time>
      </trkpt>
      <trkpt lat="46.00547" lon="6.4729">
        <ele>2195.31</ele>
        <time>2017-01-22T10:52:34.000Z</time>
      </trkpt>
      <trkpt lat="46.00549" lon="6.4729">
        <ele>2196.27</ele>
        <time>2017-01-22T10:52:53.000Z</time>
      </trkpt>
      <trkpt lat="46.00552" lon="6.47293">
        <ele>2197.23</ele>
        <time>2017-01-22T10:53:09.000Z</time>
      </trkpt>
      <trkpt lat="46.00554" lon="6.47293">
        <ele>2198.19</ele>
        <time>2017-01-22T10:53:19.000Z</time>
      </trkpt>
      <trkpt lat="46.00555" lon="6.47299">
        <ele>2199.63</ele>
        <time>2017-01-22T10:53:34.000Z</time>
      </trkpt>
      <trkpt lat="46.00558" lon="6.47289">
        <ele>2200.11</ele>
        <time>2017-01-22T10:53:46.000Z</time>
      </trkpt>
      <trkpt lat="46.00564" lon="6.47284">
        <ele>2200.11</ele>
        <time>2017-01-22T10:54:06.000Z</time>
      </trkpt>
      <trkpt lat="46.00565" lon="6.47291">
        <ele>2200.59</ele>
        <time>2017-01-22T10:54:28.000Z</time>
      </trkpt>
      <trkpt lat="46.00565" lon="6.47295">
        <ele>2200.59</ele>
        <time>2017-01-22T10:54:50.000Z</time>
      </trkpt>
      <trkpt lat="46.00564" lon="6.47297">
        <ele>2200.59</ele>
        <time>2017-01-22T10:55:05.000Z</time>
      </trkpt>
      <trkpt lat="46.00567" lon="6.47294">
        <ele>2201.56</ele>
        <time>2017-01-22T10:55:20.000Z</time>
      </trkpt>
      <trkpt lat="46.00569" lon="6.47294">
        <ele>2202.52</ele>
        <time>2017-01-22T10:55:31.000Z</time>
      </trkpt>
      <trkpt lat="46.0057" lon="6.47289">
        <ele>2202.52</ele>
        <time>2017-01-22T10:55:48.000Z</time>
      </trkpt>
      <trkpt lat="46.00572" lon="6.47289">
        <ele>2203.48</ele>
        <time>2017-01-22T10:56:03.000Z</time>
      </trkpt>
      <trkpt lat="46.00571" lon="6.47292">
        <ele>2204.44</ele>
        <time>2017-01-22T10:56:14.000Z</time>
      </trkpt>
      <trkpt lat="46.00571" lon="6.47294">
        <ele>2205.88</ele>
        <time>2017-01-22T10:56:25.000Z</time>
      </trkpt>
      <trkpt lat="46.00572" lon="6.47298">
        <ele>2207.32</ele>
        <time>2017-01-22T10:56:38.000Z</time>
      </trkpt>
      <trkpt lat="46.00572" lon="6.473">
        <ele>2207.81</ele>
        <time>2017-01-22T10:56:41.000Z</time>
      </trkpt>
      <trkpt lat="46.00572" lon="6.47303">
        <ele>2209.25</ele>
        <time>2017-01-22T10:56:54.000Z</time>
      </trkpt>
      <trkpt lat="46.00572" lon="6.47305">
        <ele>2209.73</ele>
        <time>2017-01-22T10:57:06.000Z</time>
      </trkpt>
      <trkpt lat="46.00573" lon="6.47307">
        <ele>2211.17</ele>
        <time>2017-01-22T10:57:18.000Z</time>
      </trkpt>
      <trkpt lat="46.00574" lon="6.47313">
        <ele>2212.61</ele>
        <time>2017-01-22T10:57:31.000Z</time>
      </trkpt>
      <trkpt lat="46.00571" lon="6.47318">
        <ele>2212.61</ele>
        <time>2017-01-22T10:57:45.000Z</time>
      </trkpt>
      <trkpt lat="46.00575" lon="6.4732">
        <ele>2214.05</ele>
        <time>2017-01-22T10:57:56.000Z</time>
      </trkpt>
      <trkpt lat="46.00575" lon="6.47322">
        <ele>2214.05</ele>
        <time>2017-01-22T10:58:07.000Z</time>
      </trkpt>
      <trkpt lat="46.00575" lon="6.47319">
        <ele>2215.01</ele>
        <time>2017-01-22T10:58:20.000Z</time>
      </trkpt>
      <trkpt lat="46.00576" lon="6.4732">
        <ele>2215.98</ele>
        <time>2017-01-22T10:58:34.000Z</time>
      </trkpt>
      <trkpt lat="46.00578" lon="6.4732">
        <ele>2216.94</ele>
        <time>2017-01-22T10:58:47.000Z</time>
      </trkpt>
      <trkpt lat="46.00578" lon="6.4732">
        <ele>2217.9</ele>
        <time>2017-01-22T10:59:03.000Z</time>
      </trkpt>
      <trkpt lat="46.00579" lon="6.47318">
        <ele>2218.86</ele>
        <time>2017-01-22T10:59:16.000Z</time>
      </trkpt>
      <trkpt lat="46.00582" lon="6.47319">
        <ele>2219.82</ele>
        <time>2017-01-22T10:59:31.000Z</time>
      </trkpt>
      <trkpt lat="46.00584" lon="6.47315">
        <ele>2220.78</ele>
        <time>2017-01-22T10:59:43.000Z</time>
      </trkpt>
      <trkpt lat="46.00585" lon="6.47313">
        <ele>2222.22</ele>
        <time>2017-01-22T10:59:57.000Z</time>
      </trkpt>
      <trkpt lat="46.00587" lon="6.47313">
        <ele>2223.19</ele>
        <time>2017-01-22T11:00:08.000Z</time>
      </trkpt>
      <trkpt lat="46.00586" lon="6.47315">
        <ele>2223.19</ele>
        <time>2017-01-22T11:00:32.000Z</time>
      </trkpt>
      <trkpt lat="46.00588" lon="6.47315">
        <ele>2224.15</ele>
        <time>2017-01-22T11:00:50.000Z</time>
      </trkpt>
      <trkpt lat="46.00588" lon="6.4731">
        <ele>2224.63</ele>
        <time>2017-01-22T11:01:04.000Z</time>
      </trkpt>
      <trkpt lat="46.0059" lon="6.47308">
        <ele>2225.59</ele>
        <time>2017-01-22T11:01:16.000Z</time>
      </trkpt>
      <trkpt lat="46.00592" lon="6.47309">
        <ele>2226.55</ele>
        <time>2017-01-22T11:01:30.000Z</time>
      </trkpt>
      <trkpt lat="46.0059" lon="6.4731">
        <ele>2227.51</ele>
        <time>2017-01-22T11:01:43.000Z</time>
      </trkpt>
      <trkpt lat="46.00589" lon="6.4731">
        <ele>2227.99</ele>
        <time>2017-01-22T11:01:59.000Z</time>
      </trkpt>
      <trkpt lat="46.0059" lon="6.47312">
        <ele>2228.95</ele>
        <time>2017-01-22T11:02:10.000Z</time>
      </trkpt>
      <trkpt lat="46.0059" lon="6.47315">
        <ele>2229.92</ele>
        <time>2017-01-22T11:02:25.000Z</time>
      </trkpt>
      <trkpt lat="46.00589" lon="6.47316">
        <ele>2231.36</ele>
        <time>2017-01-22T11:02:39.000Z</time>
      </trkpt>
      <trkpt lat="46.00588" lon="6.47315">
        <ele>2232.32</ele>
        <time>2017-01-22T11:02:54.000Z</time>
      </trkpt>
      <trkpt lat="46.00592" lon="6.47312">
        <ele>2232.32</ele>
        <time>2017-01-22T11:03:12.000Z</time>
      </trkpt>
      <trkpt lat="46.00592" lon="6.47317">
        <ele>2232.32</ele>
        <time>2017-01-22T11:03:29.000Z</time>
      </trkpt>
      <trkpt lat="46.00594" lon="6.47319">
        <ele>2233.28</ele>
        <time>2017-01-22T11:03:42.000Z</time>
      </trkpt>
      <trkpt lat="46.00594" lon="6.47322">
        <ele>2233.76</ele>
        <time>2017-01-22T11:03:56.000Z</time>
      </trkpt>
      <trkpt lat="46.00596" lon="6.47323">
        <ele>2234.72</ele>
        <time>2017-01-22T11:04:09.000Z</time>
      </trkpt>
      <trkpt lat="46.00597" lon="6.47324">
        <ele>2235.2</ele>
        <time>2017-01-22T11:04:24.000Z</time>
      </trkpt>
      <trkpt lat="46.006" lon="6.47321">
        <ele>2236.16</ele>
        <time>2017-01-22T11:04:39.000Z</time>
      </trkpt>
      <trkpt lat="46.00601" lon="6.4732">
        <ele>2237.13</ele>
        <time>2017-01-22T11:04:51.000Z</time>
      </trkpt>
      <trkpt lat="46.00601" lon="6.47323">
        <ele>2238.09</ele>
        <time>2017-01-22T11:05:07.000Z</time>
      </trkpt>
      <trkpt lat="46.00602" lon="6.47319">
        <ele>2238.09</ele>
        <time>2017-01-22T11:05:19.000Z</time>
      </trkpt>
      <trkpt lat="46.00604" lon="6.47318">
        <ele>2239.05</ele>
        <time>2017-01-22T11:05:30.000Z</time>
      </trkpt>
      <trkpt lat="46.00604" lon="6.47313">
        <ele>2239.53</ele>
        <time>2017-01-22T11:05:46.000Z</time>
      </trkpt>
      <trkpt lat="46.00606" lon="6.47315">
        <ele>2240.01</ele>
        <time>2017-01-22T11:06:07.000Z</time>
      </trkpt>
      <trkpt lat="46.00607" lon="6.47313">
        <ele>2240.49</ele>
        <time>2017-01-22T11:06:27.000Z</time>
      </trkpt>
      <trkpt lat="46.00608" lon="6.47311">
        <ele>2240.97</ele>
        <time>2017-01-22T11:06:42.000Z</time>
      </trkpt>
      <trkpt lat="46.00606" lon="6.47307">
        <ele>2240.97</ele>
        <time>2017-01-22T11:06:58.000Z</time>
      </trkpt>
      <trkpt lat="46.00609" lon="6.47308">
        <ele>2241.45</ele>
        <time>2017-01-22T11:07:18.000Z</time>
      </trkpt>
      <trkpt lat="46.00607" lon="6.47311">
        <ele>2241.93</ele>
        <time>2017-01-22T11:07:37.000Z</time>
      </trkpt>
      <trkpt lat="46.00605" lon="6.47304">
        <ele>2242.89</ele>
        <time>2017-01-22T11:07:54.000Z</time>
      </trkpt>
      <trkpt lat="46.00607" lon="6.47307">
        <ele>2242.89</ele>
        <time>2017-01-22T11:08:13.000Z</time>
      </trkpt>
      <trkpt lat="46.00609" lon="6.47309">
        <ele>2243.85</ele>
        <time>2017-01-22T11:08:27.000Z</time>
      </trkpt>
      <trkpt lat="46.0061" lon="6.4731">
        <ele>2243.85</ele>
        <time>2017-01-22T11:08:41.000Z</time>
      </trkpt>
      <trkpt lat="46.0061" lon="6.47305">
        <ele>2244.82</ele>
        <time>2017-01-22T11:08:59.000Z</time>
      </trkpt>
      <trkpt lat="46.00613" lon="6.47309">
        <ele>2244.82</ele>
        <time>2017-01-22T11:09:15.000Z</time>
      </trkpt>
      <trkpt lat="46.00613" lon="6.4731">
        <ele>2245.78</ele>
        <time>2017-01-22T11:09:27.000Z</time>
      </trkpt>
      <trkpt lat="46.00613" lon="6.47309">
        <ele>2246.74</ele>
        <time>2017-01-22T11:09:41.000Z</time>
      </trkpt>
      <trkpt lat="46.00611" lon="6.4731">
        <ele>2247.7</ele>
        <time>2017-01-22T11:09:52.000Z</time>
      </trkpt>
      <trkpt lat="46.0061" lon="6.47311">
        <ele>2248.66</ele>
        <time>2017-01-22T11:10:05.000Z</time>
      </trkpt>
      <trkpt lat="46.0061" lon="6.47314">
        <ele>2249.14</ele>
        <time>2017-01-22T11:10:15.000Z</time>
      </trkpt>
      <trkpt lat="46.0061" lon="6.47319">
        <ele>2250.58</ele>
        <time>2017-01-22T11:10:29.000Z</time>
      </trkpt>
      <trkpt lat="46.00612" lon="6.47323">
        <ele>2251.54</ele>
        <time>2017-01-22T11:10:40.000Z</time>
      </trkpt>
      <trkpt lat="46.00618" lon="6.47324">
        <ele>2252.51</ele>
        <time>2017-01-22T11:10:52.000Z</time>
      </trkpt>
      <trkpt lat="46.00622" lon="6.47325">
        <ele>2253.47</ele>
        <time>2017-01-22T11:11:03.000Z</time>
      </trkpt>
      <trkpt lat="46.00623" lon="6.47327">
        <ele>2253.95</ele>
        <time>2017-01-22T11:11:18.000Z</time>
      </trkpt>
      <trkpt lat="46.00624" lon="6.47328">
        <ele>2254.91</ele>
        <time>2017-01-22T11:11:29.000Z</time>
      </trkpt>
      <trkpt lat="46.00626" lon="6.47325">
        <ele>2255.39</ele>
        <time>2017-01-22T11:11:40.000Z</time>
      </trkpt>
      <trkpt lat="46.00626" lon="6.47324">
        <ele>2256.35</ele>
        <time>2017-01-22T11:11:50.000Z</time>
      </trkpt>
      <trkpt lat="46.00626" lon="6.47322">
        <ele>2256.83</ele>
        <time>2017-01-22T11:12:05.000Z</time>
      </trkpt>
      <trkpt lat="46.00626" lon="6.47317">
        <ele>2257.31</ele>
        <time>2017-01-22T11:12:16.000Z</time>
      </trkpt>
      <trkpt lat="46.00628" lon="6.47316">
        <ele>2257.79</ele>
        <time>2017-01-22T11:12:31.000Z</time>
      </trkpt>
      <trkpt lat="46.00629" lon="6.47318">
        <ele>2259.24</ele>
        <time>2017-01-22T11:12:45.000Z</time>
      </trkpt>
      <trkpt lat="46.0063" lon="6.47323">
        <ele>2259.72</ele>
        <time>2017-01-22T11:12:58.000Z</time>
      </trkpt>
      <trkpt lat="46.0063" lon="6.47327">
        <ele>2260.2</ele>
        <time>2017-01-22T11:13:11.000Z</time>
      </trkpt>
      <trkpt lat="46.0063" lon="6.47331">
        <ele>2260.68</ele>
        <time>2017-01-22T11:13:24.000Z</time>
      </trkpt>
      <trkpt lat="46.0063" lon="6.47334">
        <ele>2261.64</ele>
        <time>2017-01-22T11:13:37.000Z</time>
      </trkpt>
      <trkpt lat="46.00631" lon="6.47339">
        <ele>2263.56</ele>
        <time>2017-01-22T11:13:49.000Z</time>
      </trkpt>
      <trkpt lat="46.00631" lon="6.47344">
        <ele>2264.52</ele>
        <time>2017-01-22T11:14:02.000Z</time>
      </trkpt>
      <trkpt lat="46.00631" lon="6.4735">
        <ele>2265.48</ele>
        <time>2017-01-22T11:14:14.000Z</time>
      </trkpt>
      <trkpt lat="46.00629" lon="6.47357">
        <ele>2266.45</ele>
        <time>2017-01-22T11:14:27.000Z</time>
      </trkpt>
      <trkpt lat="46.00626" lon="6.47359">
        <ele>2266.45</ele>
        <time>2017-01-22T11:14:48.000Z</time>
      </trkpt>
      <trkpt lat="46.0063" lon="6.47357">
        <ele>2266.45</ele>
        <time>2017-01-22T11:15:14.000Z</time>
      </trkpt>
      <trkpt lat="46.00628" lon="6.47361">
        <ele>2266.45</ele>
        <time>2017-01-22T11:15:49.000Z</time>
      </trkpt>
      <trkpt lat="46.00629" lon="6.4736">
        <ele>2266.45</ele>
        <time>2017-01-22T11:16:12.000Z</time>
      </trkpt>
      <trkpt lat="46.00628" lon="6.47358">
        <ele>2266.45</ele>
        <time>2017-01-22T11:16:27.000Z</time>
      </trkpt>
      <trkpt lat="46.00629" lon="6.47361">
        <ele>2265</ele>
        <time>2017-01-22T11:16:38.000Z</time>
      </trkpt>
      <trkpt lat="46.00629" lon="6.47362">
        <ele>2264.52</ele>
        <time>2017-01-22T11:17:08.000Z</time>
      </trkpt>
      <trkpt lat="46.00628" lon="6.47361">
        <ele>2265</ele>
        <time>2017-01-22T11:17:36.000Z</time>
      </trkpt>
      <trkpt lat="46.00625" lon="6.47359">
        <ele>2265</ele>
        <time>2017-01-22T11:18:14.000Z</time>
      </trkpt>
      <trkpt lat="46.00629" lon="6.47358">
        <ele>2265</ele>
        <time>2017-01-22T11:18:49.000Z</time>
      </trkpt>
      <trkpt lat="46.0063" lon="6.47359">
        <ele>2265</ele>
        <time>2017-01-22T11:19:31.000Z</time>
      </trkpt>
      <trkpt lat="46.00631" lon="6.47361">
        <ele>2265</ele>
        <time>2017-01-22T11:20:05.000Z</time>
      </trkpt>
      <trkpt lat="46.0063" lon="6.4736">
        <ele>2265.48</ele>
        <time>2017-01-22T11:20:43.000Z</time>
      </trkpt>
      <trkpt lat="46.00627" lon="6.47364">
        <ele>2265.48</ele>
        <time>2017-01-22T11:21:18.000Z</time>
      </trkpt>
      <trkpt lat="46.0063" lon="6.47358">
        <ele>2265.48</ele>
        <time>2017-01-22T11:21:51.000Z</time>
      </trkpt>
      <trkpt lat="46.00633" lon="6.47356">
        <ele>2265.48</ele>
        <time>2017-01-22T11:22:19.000Z</time>
      </trkpt>
      <trkpt lat="46.0063" lon="6.47361">
        <ele>2265.48</ele>
        <time>2017-01-22T11:22:53.000Z</time>
      </trkpt>
      <trkpt lat="46.0063" lon="6.4736">
        <ele>2265.48</ele>
        <time>2017-01-22T11:23:26.000Z</time>
      </trkpt>
      <trkpt lat="46.00629" lon="6.47358">
        <ele>2266.93</ele>
        <time>2017-01-22T11:23:40.000Z</time>
      </trkpt>
      <trkpt lat="46.00631" lon="6.47362">
        <ele>2266.45</ele>
        <time>2017-01-22T11:24:07.000Z</time>
      </trkpt>
      <trkpt lat="46.00633" lon="6.47358">
        <ele>2266.45</ele>
        <time>2017-01-22T11:24:30.000Z</time>
      </trkpt>
      <trkpt lat="46.00631" lon="6.47358">
        <ele>2266.45</ele>
        <time>2017-01-22T11:25:02.000Z</time>
      </trkpt>
      <trkpt lat="46.00626" lon="6.47358">
        <ele>2266.45</ele>
        <time>2017-01-22T11:25:25.000Z</time>
      </trkpt>
      <trkpt lat="46.00629" lon="6.4736">
        <ele>2266.45</ele>
        <time>2017-01-22T11:25:47.000Z</time>
      </trkpt>
      <trkpt lat="46.00631" lon="6.4736">
        <ele>2266.45</ele>
        <time>2017-01-22T11:26:18.000Z</time>
      </trkpt>
      <trkpt lat="46.00628" lon="6.47362">
        <ele>2266.45</ele>
        <time>2017-01-22T11:26:41.000Z</time>
      </trkpt>
      <trkpt lat="46.00629" lon="6.47362">
        <ele>2266.45</ele>
        <time>2017-01-22T11:27:15.000Z</time>
      </trkpt>
      <trkpt lat="46.00632" lon="6.47362">
        <ele>2266.45</ele>
        <time>2017-01-22T11:27:59.000Z</time>
      </trkpt>
      <trkpt lat="46.00629" lon="6.47361">
        <ele>2268.85</ele>
        <time>2017-01-22T11:28:38.000Z</time>
      </trkpt>
      <trkpt lat="46.00629" lon="6.47361">
        <ele>2264.52</ele>
        <time>2017-01-22T11:28:40.000Z</time>
      </trkpt>
      <trkpt lat="46.00628" lon="6.47362">
        <ele>2267.89</ele>
        <time>2017-01-22T11:28:49.000Z</time>
      </trkpt>
      <trkpt lat="46.00629" lon="6.47358">
        <ele>2269.33</ele>
        <time>2017-01-22T11:29:12.000Z</time>
      </trkpt>
      <trkpt lat="46.00629" lon="6.47358">
        <ele>2268.85</ele>
        <time>2017-01-22T11:29:26.000Z</time>
      </trkpt>
      <trkpt lat="46.00629" lon="6.47359">
        <ele>2267.89</ele>
        <time>2017-01-22T11:29:43.000Z</time>
      </trkpt>
      <trkpt lat="46.00629" lon="6.47358">
        <ele>2267.89</ele>
        <time>2017-01-22T11:30:00.000Z</time>
      </trkpt>
      <trkpt lat="46.00623" lon="6.47357">
        <ele>2267.89</ele>
        <time>2017-01-22T11:30:24.000Z</time>
      </trkpt>
      <trkpt lat="46.00627" lon="6.47359">
        <ele>2267.89</ele>
        <time>2017-01-22T11:30:44.000Z</time>
      </trkpt>
      <trkpt lat="46.00631" lon="6.47356">
        <ele>2267.41</ele>
        <time>2017-01-22T11:31:10.000Z</time>
      </trkpt>
      <trkpt lat="46.0063" lon="6.47355">
        <ele>2268.85</ele>
        <time>2017-01-22T11:31:29.000Z</time>
      </trkpt>
      <trkpt lat="46.00628" lon="6.47361">
        <ele>2268.37</ele>
        <time>2017-01-22T11:31:53.000Z</time>
      </trkpt>
      <trkpt lat="46.00627" lon="6.47363">
        <ele>2268.37</ele>
        <time>2017-01-22T11:32:13.000Z</time>
      </trkpt>
      <trkpt lat="46.00627" lon="6.47366">
        <ele>2265.48</ele>
        <time>2017-01-22T11:32:18.000Z</time>
      </trkpt>
      <trkpt lat="46.00625" lon="6.47372">
        <ele>2264.04</ele>
        <time>2017-01-22T11:32:29.000Z</time>
      </trkpt>
      <trkpt lat="46.00628" lon="6.47372">
        <ele>2262.12</ele>
        <time>2017-01-22T11:32:44.000Z</time>
      </trkpt>
      <trkpt lat="46.00629" lon="6.47372">
        <ele>2262.12</ele>
        <time>2017-01-22T11:32:57.000Z</time>
      </trkpt>
      <trkpt lat="46.00631" lon="6.47376">
        <ele>2259.72</ele>
        <time>2017-01-22T11:33:06.000Z</time>
      </trkpt>
      <trkpt lat="46.00632" lon="6.47376">
        <ele>2258.27</ele>
        <time>2017-01-22T11:33:21.000Z</time>
      </trkpt>
      <trkpt lat="46.00633" lon="6.47381">
        <ele>2256.83</ele>
        <time>2017-01-22T11:33:31.000Z</time>
      </trkpt>
      <trkpt lat="46.00636" lon="6.47385">
        <ele>2255.87</ele>
        <time>2017-01-22T11:33:45.000Z</time>
      </trkpt>
      <trkpt lat="46.00635" lon="6.47386">
        <ele>2255.87</ele>
        <time>2017-01-22T11:33:56.000Z</time>
      </trkpt>
      <trkpt lat="46.00632" lon="6.47392">
        <ele>2253.47</ele>
        <time>2017-01-22T11:33:59.000Z</time>
      </trkpt>
      <trkpt lat="46.00634" lon="6.47394">
        <ele>2252.51</ele>
        <time>2017-01-22T11:34:11.000Z</time>
      </trkpt>
      <trkpt lat="46.00636" lon="6.47398">
        <ele>2250.1</ele>
        <time>2017-01-22T11:34:19.000Z</time>
      </trkpt>
      <trkpt lat="46.00637" lon="6.47399">
        <ele>2248.66</ele>
        <time>2017-01-22T11:34:37.000Z</time>
      </trkpt>
      <trkpt lat="46.00638" lon="6.47399">
        <ele>2248.66</ele>
        <time>2017-01-22T11:34:39.000Z</time>
      </trkpt>
      <trkpt lat="46.00635" lon="6.47406">
        <ele>2245.3</ele>
        <time>2017-01-22T11:34:44.000Z</time>
      </trkpt>
      <trkpt lat="46.00635" lon="6.47406">
        <ele>2245.3</ele>
        <time>2017-01-22T11:34:51.000Z</time>
      </trkpt>
      <trkpt lat="46.00636" lon="6.47411">
        <ele>2242.41</ele>
        <time>2017-01-22T11:34:54.000Z</time>
      </trkpt>
      <trkpt lat="46.00635" lon="6.47411">
        <ele>2241.45</ele>
        <time>2017-01-22T11:35:06.000Z</time>
      </trkpt>
      <trkpt lat="46.00635" lon="6.47412">
        <ele>2241.45</ele>
        <time>2017-01-22T11:35:28.000Z</time>
      </trkpt>
      <trkpt lat="46.00634" lon="6.47415">
        <ele>2239.05</ele>
        <time>2017-01-22T11:35:32.000Z</time>
      </trkpt>
      <trkpt lat="46.00633" lon="6.47417">
        <ele>2238.57</ele>
        <time>2017-01-22T11:35:40.000Z</time>
      </trkpt>
      <trkpt lat="46.00634" lon="6.47422">
        <ele>2235.68</ele>
        <time>2017-01-22T11:35:46.000Z</time>
      </trkpt>
      <trkpt lat="46.00634" lon="6.47419">
        <ele>2234.72</ele>
        <time>2017-01-22T11:36:00.000Z</time>
      </trkpt>
      <trkpt lat="46.00635" lon="6.47423">
        <ele>2234.72</ele>
        <time>2017-01-22T11:36:21.000Z</time>
      </trkpt>
      <trkpt lat="46.00635" lon="6.47424">
        <ele>2234.72</ele>
        <time>2017-01-22T11:36:25.000Z</time>
      </trkpt>
      <trkpt lat="46.00631" lon="6.47429">
        <ele>2231.36</ele>
        <time>2017-01-22T11:36:29.000Z</time>
      </trkpt>
      <trkpt lat="46.00629" lon="6.47434">
        <ele>2228.95</ele>
        <time>2017-01-22T11:36:33.000Z</time>
      </trkpt>
      <trkpt lat="46.00637" lon="6.47415">
        <ele>2228.47</ele>
        <time>2017-01-22T11:36:54.000Z</time>
      </trkpt>
      <trkpt lat="46.0064" lon="6.47417">
        <ele>2227.51</ele>
        <time>2017-01-22T11:37:19.000Z</time>
      </trkpt>
      <trkpt lat="46.00636" lon="6.47422">
        <ele>2227.51</ele>
        <time>2017-01-22T11:37:38.000Z</time>
      </trkpt>
      <trkpt lat="46.00636" lon="6.47433">
        <ele>2224.15</ele>
        <time>2017-01-22T11:37:45.000Z</time>
      </trkpt>
      <trkpt lat="46.00634" lon="6.47436">
        <ele>2223.67</ele>
        <time>2017-01-22T11:38:00.000Z</time>
      </trkpt>
      <trkpt lat="46.00636" lon="6.47438">
        <ele>2223.19</ele>
        <time>2017-01-22T11:38:17.000Z</time>
      </trkpt>
      <trkpt lat="46.00637" lon="6.47442">
        <ele>2221.74</ele>
        <time>2017-01-22T11:38:19.000Z</time>
      </trkpt>
      <trkpt lat="46.00635" lon="6.47447">
        <ele>2219.82</ele>
        <time>2017-01-22T11:38:21.000Z</time>
      </trkpt>
      <trkpt lat="46.00636" lon="6.47448">
        <ele>2218.86</ele>
        <time>2017-01-22T11:38:23.000Z</time>
      </trkpt>
      <trkpt lat="46.00637" lon="6.47449">
        <ele>2218.86</ele>
        <time>2017-01-22T11:38:24.000Z</time>
      </trkpt>
      <trkpt lat="46.0064" lon="6.47456">
        <ele>2215.98</ele>
        <time>2017-01-22T11:38:28.000Z</time>
      </trkpt>
      <trkpt lat="46.0064" lon="6.47455">
        <ele>2215.01</ele>
        <time>2017-01-22T11:38:31.000Z</time>
      </trkpt>
      <trkpt lat="46.00639" lon="6.47459">
        <ele>2213.09</ele>
        <time>2017-01-22T11:38:34.000Z</time>
      </trkpt>
      <trkpt lat="46.00639" lon="6.47457">
        <ele>2212.13</ele>
        <time>2017-01-22T11:38:44.000Z</time>
      </trkpt>
      <trkpt lat="46.00641" lon="6.47465">
        <ele>2207.81</ele>
        <time>2017-01-22T11:38:56.000Z</time>
      </trkpt>
      <trkpt lat="46.00641" lon="6.47466">
        <ele>2206.84</ele>
        <time>2017-01-22T11:38:58.000Z</time>
      </trkpt>
      <trkpt lat="46.00639" lon="6.47472">
        <ele>2203.96</ele>
        <time>2017-01-22T11:39:11.000Z</time>
      </trkpt>
      <trkpt lat="46.00636" lon="6.47475">
        <ele>2203.48</ele>
        <time>2017-01-22T11:39:22.000Z</time>
      </trkpt>
      <trkpt lat="46.00635" lon="6.47476">
        <ele>2203</ele>
        <time>2017-01-22T11:39:44.000Z</time>
      </trkpt>
      <trkpt lat="46.00635" lon="6.47477">
        <ele>2202.52</ele>
        <time>2017-01-22T11:39:47.000Z</time>
      </trkpt>
      <trkpt lat="46.00635" lon="6.4748">
        <ele>2200.59</ele>
        <time>2017-01-22T11:39:51.000Z</time>
      </trkpt>
      <trkpt lat="46.00634" lon="6.47484">
        <ele>2196.75</ele>
        <time>2017-01-22T11:39:58.000Z</time>
      </trkpt>
      <trkpt lat="46.00633" lon="6.47484">
        <ele>2196.75</ele>
        <time>2017-01-22T11:39:59.000Z</time>
      </trkpt>
      <trkpt lat="46.00635" lon="6.4748">
        <ele>2196.27</ele>
        <time>2017-01-22T11:40:06.000Z</time>
      </trkpt>
      <trkpt lat="46.00634" lon="6.47484">
        <ele>2195.31</ele>
        <time>2017-01-22T11:40:16.000Z</time>
      </trkpt>
      <trkpt lat="46.00632" lon="6.47496">
        <ele>2192.42</ele>
        <time>2017-01-22T11:40:19.000Z</time>
      </trkpt>
      <trkpt lat="46.00632" lon="6.47495">
        <ele>2192.42</ele>
        <time>2017-01-22T11:40:20.000Z</time>
      </trkpt>
      <trkpt lat="46.00628" lon="6.47496">
        <ele>2191.46</ele>
        <time>2017-01-22T11:40:33.000Z</time>
      </trkpt>
      <trkpt lat="46.00626" lon="6.47498">
        <ele>2191.46</ele>
        <time>2017-01-22T11:40:47.000Z</time>
      </trkpt>
      <trkpt lat="46.00627" lon="6.47501">
        <ele>2190.02</ele>
        <time>2017-01-22T11:40:50.000Z</time>
      </trkpt>
      <trkpt lat="46.00627" lon="6.475">
        <ele>2189.54</ele>
        <time>2017-01-22T11:40:55.000Z</time>
      </trkpt>
      <trkpt lat="46.00626" lon="6.47504">
        <ele>2188.1</ele>
        <time>2017-01-22T11:40:57.000Z</time>
      </trkpt>
      <trkpt lat="46.00621" lon="6.47507">
        <ele>2184.25</ele>
        <time>2017-01-22T11:41:00.000Z</time>
      </trkpt>
      <trkpt lat="46.00621" lon="6.47508">
        <ele>2184.25</ele>
        <time>2017-01-22T11:41:01.000Z</time>
      </trkpt>
      <trkpt lat="46.00621" lon="6.47506">
        <ele>2183.29</ele>
        <time>2017-01-22T11:41:07.000Z</time>
      </trkpt>
      <trkpt lat="46.00621" lon="6.47512">
        <ele>2180.89</ele>
        <time>2017-01-22T11:41:11.000Z</time>
      </trkpt>
      <trkpt lat="46.0062" lon="6.47511">
        <ele>2179.93</ele>
        <time>2017-01-22T11:41:12.000Z</time>
      </trkpt>
      <trkpt lat="46.00622" lon="6.47507">
        <ele>2178.48</ele>
        <time>2017-01-22T11:41:15.000Z</time>
      </trkpt>
      <trkpt lat="46.00621" lon="6.47513">
        <ele>2178.48</ele>
        <time>2017-01-22T11:41:31.000Z</time>
      </trkpt>
      <trkpt lat="46.00625" lon="6.47505">
        <ele>2178.48</ele>
        <time>2017-01-22T11:41:55.000Z</time>
      </trkpt>
      <trkpt lat="46.00626" lon="6.47507">
        <ele>2176.56</ele>
        <time>2017-01-22T11:41:57.000Z</time>
      </trkpt>
      <trkpt lat="46.00623" lon="6.47518">
        <ele>2173.2</ele>
        <time>2017-01-22T11:42:00.000Z</time>
      </trkpt>
      <trkpt lat="46.00623" lon="6.47519">
        <ele>2170.79</ele>
        <time>2017-01-22T11:42:03.000Z</time>
      </trkpt>
      <trkpt lat="46.00619" lon="6.47537">
        <ele>2169.35</ele>
        <time>2017-01-22T11:42:19.000Z</time>
      </trkpt>
      <trkpt lat="46.00616" lon="6.47543">
        <ele>2167.43</ele>
        <time>2017-01-22T11:42:23.000Z</time>
      </trkpt>
      <trkpt lat="46.00607" lon="6.47553">
        <ele>2166.47</ele>
        <time>2017-01-22T11:42:40.000Z</time>
      </trkpt>
      <trkpt lat="46.00606" lon="6.47553">
        <ele>2164.55</ele>
        <time>2017-01-22T11:42:47.000Z</time>
      </trkpt>
      <trkpt lat="46.00608" lon="6.47554">
        <ele>2161.66</ele>
        <time>2017-01-22T11:42:51.000Z</time>
      </trkpt>
      <trkpt lat="46.00609" lon="6.47553">
        <ele>2160.22</ele>
        <time>2017-01-22T11:42:52.000Z</time>
      </trkpt>
      <trkpt lat="46.00608" lon="6.47556">
        <ele>2157.34</ele>
        <time>2017-01-22T11:42:56.000Z</time>
      </trkpt>
      <trkpt lat="46.00605" lon="6.47555">
        <ele>2155.89</ele>
        <time>2017-01-22T11:43:00.000Z</time>
      </trkpt>
      <trkpt lat="46.00606" lon="6.47551">
        <ele>2155.89</ele>
        <time>2017-01-22T11:43:04.000Z</time>
      </trkpt>
      <trkpt lat="46.00604" lon="6.47554">
        <ele>2153.97</ele>
        <time>2017-01-22T11:43:06.000Z</time>
      </trkpt>
      <trkpt lat="46.006" lon="6.4756">
        <ele>2151.57</ele>
        <time>2017-01-22T11:43:17.000Z</time>
      </trkpt>
      <trkpt lat="46.006" lon="6.4756">
        <ele>2151.57</ele>
        <time>2017-01-22T11:43:19.000Z</time>
      </trkpt>
      <trkpt lat="46.00598" lon="6.47561">
        <ele>2149.65</ele>
        <time>2017-01-22T11:43:23.000Z</time>
      </trkpt>
      <trkpt lat="46.006" lon="6.47547">
        <ele>2149.65</ele>
        <time>2017-01-22T11:43:34.000Z</time>
      </trkpt>
      <trkpt lat="46.006" lon="6.47552">
        <ele>2147.72</ele>
        <time>2017-01-22T11:43:36.000Z</time>
      </trkpt>
      <trkpt lat="46.00588" lon="6.47558">
        <ele>2144.84</ele>
        <time>2017-01-22T11:43:40.000Z</time>
      </trkpt>
      <trkpt lat="46.00574" lon="6.4757">
        <ele>2141.47</ele>
        <time>2017-01-22T11:43:45.000Z</time>
      </trkpt>
      <trkpt lat="46.0057" lon="6.47578">
        <ele>2140.51</ele>
        <time>2017-01-22T11:43:59.000Z</time>
      </trkpt>
      <trkpt lat="46.0057" lon="6.47578">
        <ele>2140.51</ele>
        <time>2017-01-22T11:44:02.000Z</time>
      </trkpt>
      <trkpt lat="46.00573" lon="6.47581">
        <ele>2137.15</ele>
        <time>2017-01-22T11:44:05.000Z</time>
      </trkpt>
      <trkpt lat="46.00574" lon="6.47581">
        <ele>2137.15</ele>
        <time>2017-01-22T11:44:06.000Z</time>
      </trkpt>
      <trkpt lat="46.00577" lon="6.47594">
        <ele>2132.34</ele>
        <time>2017-01-22T11:44:10.000Z</time>
      </trkpt>
      <trkpt lat="46.00581" lon="6.47599">
        <ele>2128.98</ele>
        <time>2017-01-22T11:44:12.000Z</time>
      </trkpt>
      <trkpt lat="46.00582" lon="6.47604">
        <ele>2126.57</ele>
        <time>2017-01-22T11:44:13.000Z</time>
      </trkpt>
      <trkpt lat="46.00579" lon="6.47612">
        <ele>2124.17</ele>
        <time>2017-01-22T11:44:16.000Z</time>
      </trkpt>
      <trkpt lat="46.00581" lon="6.47613">
        <ele>2124.17</ele>
        <time>2017-01-22T11:44:19.000Z</time>
      </trkpt>
      <trkpt lat="46.00586" lon="6.47618">
        <ele>2120.32</ele>
        <time>2017-01-22T11:44:23.000Z</time>
      </trkpt>
      <trkpt lat="46.00587" lon="6.47622">
        <ele>2119.84</ele>
        <time>2017-01-22T11:44:25.000Z</time>
      </trkpt>
      <trkpt lat="46.00591" lon="6.47646">
        <ele>2116.96</ele>
        <time>2017-01-22T11:44:33.000Z</time>
      </trkpt>
      <trkpt lat="46.00601" lon="6.47668">
        <ele>2113.6</ele>
        <time>2017-01-22T11:44:39.000Z</time>
      </trkpt>
      <trkpt lat="46.00608" lon="6.47683">
        <ele>2111.67</ele>
        <time>2017-01-22T11:44:42.000Z</time>
      </trkpt>
      <trkpt lat="46.00614" lon="6.47695">
        <ele>2110.23</ele>
        <time>2017-01-22T11:44:44.000Z</time>
      </trkpt>
      <trkpt lat="46.00626" lon="6.47697">
        <ele>2108.31</ele>
        <time>2017-01-22T11:44:46.000Z</time>
      </trkpt>
      <trkpt lat="46.00654" lon="6.47721">
        <ele>2104.46</ele>
        <time>2017-01-22T11:44:53.000Z</time>
      </trkpt>
      <trkpt lat="46.00674" lon="6.47727">
        <ele>2102.54</ele>
        <time>2017-01-22T11:45:03.000Z</time>
      </trkpt>
      <trkpt lat="46.00685" lon="6.47737">
        <ele>2101.1</ele>
        <time>2017-01-22T11:45:11.000Z</time>
      </trkpt>
      <trkpt lat="46.00685" lon="6.47751">
        <ele>2099.18</ele>
        <time>2017-01-22T11:45:20.000Z</time>
      </trkpt>
      <trkpt lat="46.00685" lon="6.47751">
        <ele>2099.18</ele>
        <time>2017-01-22T11:45:42.000Z</time>
      </trkpt>
      <trkpt lat="46.0069" lon="6.47749">
        <ele>2098.7</ele>
        <time>2017-01-22T11:46:06.000Z</time>
      </trkpt>
      <trkpt lat="46.00691" lon="6.47754">
        <ele>2098.7</ele>
        <time>2017-01-22T11:46:30.000Z</time>
      </trkpt>
      <trkpt lat="46.00682" lon="6.47756">
        <ele>2094.85</ele>
        <time>2017-01-22T11:46:33.000Z</time>
      </trkpt>
      <trkpt lat="46.00681" lon="6.47755">
        <ele>2094.37</ele>
        <time>2017-01-22T11:46:35.000Z</time>
      </trkpt>
      <trkpt lat="46.00676" lon="6.47768">
        <ele>2091</ele>
        <time>2017-01-22T11:46:41.000Z</time>
      </trkpt>
      <trkpt lat="46.00674" lon="6.47769">
        <ele>2090.52</ele>
        <time>2017-01-22T11:46:42.000Z</time>
      </trkpt>
      <trkpt lat="46.00655" lon="6.47777">
        <ele>2087.16</ele>
        <time>2017-01-22T11:46:49.000Z</time>
      </trkpt>
      <trkpt lat="46.00635" lon="6.47788">
        <ele>2083.79</ele>
        <time>2017-01-22T11:46:54.000Z</time>
      </trkpt>
      <trkpt lat="46.00632" lon="6.4779">
        <ele>2083.31</ele>
        <time>2017-01-22T11:46:58.000Z</time>
      </trkpt>
      <trkpt lat="46.00622" lon="6.47803">
        <ele>2081.87</ele>
        <time>2017-01-22T11:47:09.000Z</time>
      </trkpt>
      <trkpt lat="46.00621" lon="6.47806">
        <ele>2080.43</ele>
        <time>2017-01-22T11:47:30.000Z</time>
      </trkpt>
      <trkpt lat="46.00621" lon="6.47806">
        <ele>2080.43</ele>
        <time>2017-01-22T11:47:33.000Z</time>
      </trkpt>
      <trkpt lat="46.00622" lon="6.47813">
        <ele>2079.47</ele>
        <time>2017-01-22T11:47:37.000Z</time>
      </trkpt>
      <trkpt lat="46.00622" lon="6.47813">
        <ele>2078.51</ele>
        <time>2017-01-22T11:47:41.000Z</time>
      </trkpt>
      <trkpt lat="46.00628" lon="6.47815">
        <ele>2075.14</ele>
        <time>2017-01-22T11:47:45.000Z</time>
      </trkpt>
      <trkpt lat="46.00632" lon="6.47822">
        <ele>2070.82</ele>
        <time>2017-01-22T11:47:48.000Z</time>
      </trkpt>
      <trkpt lat="46.00634" lon="6.47829">
        <ele>2067.45</ele>
        <time>2017-01-22T11:47:51.000Z</time>
      </trkpt>
      <trkpt lat="46.00639" lon="6.47839">
        <ele>2061.68</ele>
        <time>2017-01-22T11:47:56.000Z</time>
      </trkpt>
      <trkpt lat="46.00638" lon="6.47843">
        <ele>2061.68</ele>
        <time>2017-01-22T11:47:57.000Z</time>
      </trkpt>
      <trkpt lat="46.00634" lon="6.47852">
        <ele>2060.24</ele>
        <time>2017-01-22T11:48:11.000Z</time>
      </trkpt>
      <trkpt lat="46.00639" lon="6.47852">
        <ele>2056.88</ele>
        <time>2017-01-22T11:48:15.000Z</time>
      </trkpt>
      <trkpt lat="46.00639" lon="6.47852">
        <ele>2056.88</ele>
        <time>2017-01-22T11:48:16.000Z</time>
      </trkpt>
      <trkpt lat="46.00638" lon="6.47851">
        <ele>2056.4</ele>
        <time>2017-01-22T11:48:32.000Z</time>
      </trkpt>
      <trkpt lat="46.00638" lon="6.4785">
        <ele>2056.4</ele>
        <time>2017-01-22T11:48:39.000Z</time>
      </trkpt>
      <trkpt lat="46.00644" lon="6.47848">
        <ele>2054.96</ele>
        <time>2017-01-22T11:48:45.000Z</time>
      </trkpt>
      <trkpt lat="46.00647" lon="6.47857">
        <ele>2050.63</ele>
        <time>2017-01-22T11:48:49.000Z</time>
      </trkpt>
      <trkpt lat="46.0065" lon="6.47857">
        <ele>2048.71</ele>
        <time>2017-01-22T11:48:50.000Z</time>
      </trkpt>
      <trkpt lat="46.00652" lon="6.47855">
        <ele>2048.23</ele>
        <time>2017-01-22T11:48:52.000Z</time>
      </trkpt>
      <trkpt lat="46.00651" lon="6.47856">
        <ele>2048.23</ele>
        <time>2017-01-22T11:48:55.000Z</time>
      </trkpt>
      <trkpt lat="46.00652" lon="6.47865">
        <ele>2044.86</ele>
        <time>2017-01-22T11:48:59.000Z</time>
      </trkpt>
      <trkpt lat="46.0065" lon="6.47869">
        <ele>2044.38</ele>
        <time>2017-01-22T11:49:01.000Z</time>
      </trkpt>
      <trkpt lat="46.00649" lon="6.47875">
        <ele>2043.42</ele>
        <time>2017-01-22T11:49:08.000Z</time>
      </trkpt>
      <trkpt lat="46.00652" lon="6.47878">
        <ele>2040.54</ele>
        <time>2017-01-22T11:49:12.000Z</time>
      </trkpt>
      <trkpt lat="46.00661" lon="6.47871">
        <ele>2037.65</ele>
        <time>2017-01-22T11:49:21.000Z</time>
      </trkpt>
      <trkpt lat="46.0066" lon="6.47869">
        <ele>2037.65</ele>
        <time>2017-01-22T11:49:26.000Z</time>
      </trkpt>
      <trkpt lat="46.00658" lon="6.47881">
        <ele>2033.81</ele>
        <time>2017-01-22T11:49:31.000Z</time>
      </trkpt>
      <trkpt lat="46.00655" lon="6.47892">
        <ele>2032.36</ele>
        <time>2017-01-22T11:49:42.000Z</time>
      </trkpt>
      <trkpt lat="46.00651" lon="6.47915">
        <ele>2028.52</ele>
        <time>2017-01-22T11:49:48.000Z</time>
      </trkpt>
      <trkpt lat="46.00648" lon="6.47927">
        <ele>2027.08</ele>
        <time>2017-01-22T11:49:51.000Z</time>
      </trkpt>
      <trkpt lat="46.00644" lon="6.47947">
        <ele>2025.15</ele>
        <time>2017-01-22T11:50:03.000Z</time>
      </trkpt>
      <trkpt lat="46.00644" lon="6.47955">
        <ele>2024.67</ele>
        <time>2017-01-22T11:50:14.000Z</time>
      </trkpt>
      <trkpt lat="46.00641" lon="6.47978">
        <ele>2021.31</ele>
        <time>2017-01-22T11:50:23.000Z</time>
      </trkpt>
      <trkpt lat="46.00642" lon="6.47979">
        <ele>2021.31</ele>
        <time>2017-01-22T11:50:28.000Z</time>
      </trkpt>
      <trkpt lat="46.00644" lon="6.47987">
        <ele>2019.87</ele>
        <time>2017-01-22T11:50:39.000Z</time>
      </trkpt>
      <trkpt lat="46.00645" lon="6.47989">
        <ele>2019.39</ele>
        <time>2017-01-22T11:50:40.000Z</time>
      </trkpt>
      <trkpt lat="46.00647" lon="6.47986">
        <ele>2017.46</ele>
        <time>2017-01-22T11:50:42.000Z</time>
      </trkpt>
      <trkpt lat="46.0065" lon="6.47985">
        <ele>2015.54</ele>
        <time>2017-01-22T11:50:43.000Z</time>
      </trkpt>
      <trkpt lat="46.00652" lon="6.47986">
        <ele>2014.58</ele>
        <time>2017-01-22T11:50:44.000Z</time>
      </trkpt>
      <trkpt lat="46.00655" lon="6.48004">
        <ele>2012.18</ele>
        <time>2017-01-22T11:50:49.000Z</time>
      </trkpt>
      <trkpt lat="46.00658" lon="6.48023">
        <ele>2009.77</ele>
        <time>2017-01-22T11:50:53.000Z</time>
      </trkpt>
      <trkpt lat="46.00669" lon="6.48047">
        <ele>2006.41</ele>
        <time>2017-01-22T11:51:00.000Z</time>
      </trkpt>
      <trkpt lat="46.00677" lon="6.48061">
        <ele>2004.97</ele>
        <time>2017-01-22T11:51:03.000Z</time>
      </trkpt>
      <trkpt lat="46.00681" lon="6.48067">
        <ele>2004.01</ele>
        <time>2017-01-22T11:51:06.000Z</time>
      </trkpt>
      <trkpt lat="46.00684" lon="6.48069">
        <ele>2003.04</ele>
        <time>2017-01-22T11:51:08.000Z</time>
      </trkpt>
      <trkpt lat="46.00697" lon="6.48063">
        <ele>1999.2</ele>
        <time>2017-01-22T11:51:12.000Z</time>
      </trkpt>
      <trkpt lat="46.00703" lon="6.4806">
        <ele>1996.32</ele>
        <time>2017-01-22T11:51:13.000Z</time>
      </trkpt>
      <trkpt lat="46.00719" lon="6.48046">
        <ele>1991.99</ele>
        <time>2017-01-22T11:51:16.000Z</time>
      </trkpt>
      <trkpt lat="46.00726" lon="6.48043">
        <ele>1991.51</ele>
        <time>2017-01-22T11:51:24.000Z</time>
      </trkpt>
      <trkpt lat="46.00727" lon="6.48041">
        <ele>1991.03</ele>
        <time>2017-01-22T11:51:41.000Z</time>
      </trkpt>
      <trkpt lat="46.00724" lon="6.48041">
        <ele>1991.51</ele>
        <time>2017-01-22T11:52:05.000Z</time>
      </trkpt>
      <trkpt lat="46.00726" lon="6.48044">
        <ele>1991.51</ele>
        <time>2017-01-22T11:52:21.000Z</time>
      </trkpt>
      <trkpt lat="46.00725" lon="6.48047">
        <ele>1991.03</ele>
        <time>2017-01-22T11:52:56.000Z</time>
      </trkpt>
      <trkpt lat="46.00722" lon="6.48057">
        <ele>1991.03</ele>
        <time>2017-01-22T11:53:14.000Z</time>
      </trkpt>
      <trkpt lat="46.00723" lon="6.48058">
        <ele>1991.03</ele>
        <time>2017-01-22T11:53:49.000Z</time>
      </trkpt>
      <trkpt lat="46.00723" lon="6.48059">
        <ele>1991.03</ele>
        <time>2017-01-22T11:54:14.000Z</time>
      </trkpt>
      <trkpt lat="46.00727" lon="6.48054">
        <ele>1991.03</ele>
        <time>2017-01-22T11:54:42.000Z</time>
      </trkpt>
      <trkpt lat="46.0073" lon="6.48052">
        <ele>1991.03</ele>
        <time>2017-01-22T11:55:13.000Z</time>
      </trkpt>
      <trkpt lat="46.00728" lon="6.48052">
        <ele>1991.03</ele>
        <time>2017-01-22T11:55:47.000Z</time>
      </trkpt>
      <trkpt lat="46.00728" lon="6.48055">
        <ele>1991.03</ele>
        <time>2017-01-22T11:56:17.000Z</time>
      </trkpt>
      <trkpt lat="46.00723" lon="6.48058">
        <ele>1991.03</ele>
        <time>2017-01-22T11:56:44.000Z</time>
      </trkpt>
      <trkpt lat="46.00723" lon="6.48061">
        <ele>1991.03</ele>
        <time>2017-01-22T11:57:19.000Z</time>
      </trkpt>
      <trkpt lat="46.00726" lon="6.48057">
        <ele>1991.03</ele>
        <time>2017-01-22T11:57:45.000Z</time>
      </trkpt>
      <trkpt lat="46.0073" lon="6.48058">
        <ele>1991.03</ele>
        <time>2017-01-22T11:58:12.000Z</time>
      </trkpt>
      <trkpt lat="46.00731" lon="6.48056">
        <ele>1991.03</ele>
        <time>2017-01-22T11:58:32.000Z</time>
      </trkpt>
      <trkpt lat="46.00732" lon="6.48052">
        <ele>1991.03</ele>
        <time>2017-01-22T11:59:04.000Z</time>
      </trkpt>
      <trkpt lat="46.00729" lon="6.4805">
        <ele>1991.03</ele>
        <time>2017-01-22T11:59:32.000Z</time>
      </trkpt>
      <trkpt lat="46.00726" lon="6.48056">
        <ele>1991.03</ele>
        <time>2017-01-22T12:00:00.000Z</time>
      </trkpt>
      <trkpt lat="46.00733" lon="6.48053">
        <ele>1991.99</ele>
        <time>2017-01-22T12:00:22.000Z</time>
      </trkpt>
      <trkpt lat="46.00732" lon="6.48052">
        <ele>1991.51</ele>
        <time>2017-01-22T12:00:47.000Z</time>
      </trkpt>
      <trkpt lat="46.00728" lon="6.48054">
        <ele>1993.43</ele>
        <time>2017-01-22T12:00:52.000Z</time>
      </trkpt>
      <trkpt lat="46.00724" lon="6.48047">
        <ele>1992.95</ele>
        <time>2017-01-22T12:01:12.000Z</time>
      </trkpt>
      <trkpt lat="46.00726" lon="6.48052">
        <ele>1988.62</ele>
        <time>2017-01-22T12:01:34.000Z</time>
      </trkpt>
      <trkpt lat="46.00727" lon="6.48052">
        <ele>1990.55</ele>
        <time>2017-01-22T12:01:35.000Z</time>
      </trkpt>
      <trkpt lat="46.00727" lon="6.48052">
        <ele>1991.51</ele>
        <time>2017-01-22T12:01:37.000Z</time>
      </trkpt>
      <trkpt lat="46.00726" lon="6.48052">
        <ele>1992.95</ele>
        <time>2017-01-22T12:01:39.000Z</time>
      </trkpt>
      <trkpt lat="46.00724" lon="6.48053">
        <ele>1993.43</ele>
        <time>2017-01-22T12:01:44.000Z</time>
      </trkpt>
      <trkpt lat="46.00724" lon="6.48057">
        <ele>1992.95</ele>
        <time>2017-01-22T12:01:59.000Z</time>
      </trkpt>
      <trkpt lat="46.00719" lon="6.48061">
        <ele>1993.43</ele>
        <time>2017-01-22T12:02:15.000Z</time>
      </trkpt>
      <trkpt lat="46.00719" lon="6.48056">
        <ele>1994.87</ele>
        <time>2017-01-22T12:02:26.000Z</time>
      </trkpt>
      <trkpt lat="46.00731" lon="6.48043">
        <ele>1995.35</ele>
        <time>2017-01-22T12:02:41.000Z</time>
      </trkpt>
      <trkpt lat="46.00734" lon="6.48042">
        <ele>1995.83</ele>
        <time>2017-01-22T12:02:59.000Z</time>
      </trkpt>
      <trkpt lat="46.00736" lon="6.48041">
        <ele>1997.76</ele>
        <time>2017-01-22T12:03:10.000Z</time>
      </trkpt>
      <trkpt lat="46.00739" lon="6.48037">
        <ele>1998.24</ele>
        <time>2017-01-22T12:03:22.000Z</time>
      </trkpt>
      <trkpt lat="46.00745" lon="6.48036">
        <ele>2000.16</ele>
        <time>2017-01-22T12:03:38.000Z</time>
      </trkpt>
      <trkpt lat="46.00754" lon="6.48039">
        <ele>2002.08</ele>
        <time>2017-01-22T12:03:51.000Z</time>
      </trkpt>
      <trkpt lat="46.00761" lon="6.48041">
        <ele>2004.01</ele>
        <time>2017-01-22T12:04:07.000Z</time>
      </trkpt>
      <trkpt lat="46.00763" lon="6.48041">
        <ele>2004.01</ele>
        <time>2017-01-22T12:04:09.000Z</time>
      </trkpt>
      <trkpt lat="46.00771" lon="6.48042">
        <ele>2004.49</ele>
        <time>2017-01-22T12:04:21.000Z</time>
      </trkpt>
      <trkpt lat="46.00773" lon="6.48048">
        <ele>2005.93</ele>
        <time>2017-01-22T12:04:34.000Z</time>
      </trkpt>
      <trkpt lat="46.00776" lon="6.48053">
        <ele>2007.37</ele>
        <time>2017-01-22T12:04:47.000Z</time>
      </trkpt>
      <trkpt lat="46.00778" lon="6.48057">
        <ele>2008.33</ele>
        <time>2017-01-22T12:04:59.000Z</time>
      </trkpt>
      <trkpt lat="46.00782" lon="6.48059">
        <ele>2009.29</ele>
        <time>2017-01-22T12:05:15.000Z</time>
      </trkpt>
      <trkpt lat="46.00779" lon="6.48064">
        <ele>2010.73</ele>
        <time>2017-01-22T12:05:30.000Z</time>
      </trkpt>
      <trkpt lat="46.00787" lon="6.48063">
        <ele>2012.18</ele>
        <time>2017-01-22T12:05:41.000Z</time>
      </trkpt>
      <trkpt lat="46.00795" lon="6.48054">
        <ele>2012.18</ele>
        <time>2017-01-22T12:05:52.000Z</time>
      </trkpt>
      <trkpt lat="46.00795" lon="6.48056">
        <ele>2013.14</ele>
        <time>2017-01-22T12:06:03.000Z</time>
      </trkpt>
      <trkpt lat="46.00795" lon="6.48058">
        <ele>2014.58</ele>
        <time>2017-01-22T12:06:14.000Z</time>
      </trkpt>
      <trkpt lat="46.00794" lon="6.48064">
        <ele>2016.02</ele>
        <time>2017-01-22T12:06:26.000Z</time>
      </trkpt>
      <trkpt lat="46.00795" lon="6.48068">
        <ele>2016.5</ele>
        <time>2017-01-22T12:06:41.000Z</time>
      </trkpt>
      <trkpt lat="46.008" lon="6.48074">
        <ele>2018.43</ele>
        <time>2017-01-22T12:06:56.000Z</time>
      </trkpt>
      <trkpt lat="46.00799" lon="6.48083">
        <ele>2020.83</ele>
        <time>2017-01-22T12:07:12.000Z</time>
      </trkpt>
      <trkpt lat="46.00798" lon="6.48085">
        <ele>2020.35</ele>
        <time>2017-01-22T12:07:26.000Z</time>
      </trkpt>
      <trkpt lat="46.00798" lon="6.48085">
        <ele>2022.27</ele>
        <time>2017-01-22T12:07:41.000Z</time>
      </trkpt>
      <trkpt lat="46.00801" lon="6.4808">
        <ele>2023.23</ele>
        <time>2017-01-22T12:07:56.000Z</time>
      </trkpt>
      <trkpt lat="46.00802" lon="6.4808">
        <ele>2023.23</ele>
        <time>2017-01-22T12:08:21.000Z</time>
      </trkpt>
      <trkpt lat="46.00803" lon="6.48081">
        <ele>2023.71</ele>
        <time>2017-01-22T12:08:41.000Z</time>
      </trkpt>
      <trkpt lat="46.00809" lon="6.48083">
        <ele>2024.19</ele>
        <time>2017-01-22T12:08:53.000Z</time>
      </trkpt>
      <trkpt lat="46.0081" lon="6.48082">
        <ele>2025.64</ele>
        <time>2017-01-22T12:09:06.000Z</time>
      </trkpt>
      <trkpt lat="46.00813" lon="6.48083">
        <ele>2027.56</ele>
        <time>2017-01-22T12:09:20.000Z</time>
      </trkpt>
      <trkpt lat="46.00816" lon="6.48082">
        <ele>2029</ele>
        <time>2017-01-22T12:09:32.000Z</time>
      </trkpt>
      <trkpt lat="46.00819" lon="6.48084">
        <ele>2029.96</ele>
        <time>2017-01-22T12:09:44.000Z</time>
      </trkpt>
      <trkpt lat="46.00824" lon="6.48084">
        <ele>2031.88</ele>
        <time>2017-01-22T12:09:58.000Z</time>
      </trkpt>
      <trkpt lat="46.00826" lon="6.48081">
        <ele>2031.88</ele>
        <time>2017-01-22T12:10:11.000Z</time>
      </trkpt>
      <trkpt lat="46.0083" lon="6.48078">
        <ele>2031.88</ele>
        <time>2017-01-22T12:10:26.000Z</time>
      </trkpt>
      <trkpt lat="46.00829" lon="6.48082">
        <ele>2033.33</ele>
        <time>2017-01-22T12:10:39.000Z</time>
      </trkpt>
      <trkpt lat="46.00828" lon="6.48088">
        <ele>2034.77</ele>
        <time>2017-01-22T12:10:53.000Z</time>
      </trkpt>
      <trkpt lat="46.00828" lon="6.48093">
        <ele>2036.21</ele>
        <time>2017-01-22T12:11:07.000Z</time>
      </trkpt>
      <trkpt lat="46.00827" lon="6.48101">
        <ele>2038.13</ele>
        <time>2017-01-22T12:11:21.000Z</time>
      </trkpt>
      <trkpt lat="46.00825" lon="6.48108">
        <ele>2039.57</ele>
        <time>2017-01-22T12:11:34.000Z</time>
      </trkpt>
      <trkpt lat="46.00827" lon="6.48115">
        <ele>2041.5</ele>
        <time>2017-01-22T12:11:49.000Z</time>
      </trkpt>
      <trkpt lat="46.00826" lon="6.48114">
        <ele>2041.5</ele>
        <time>2017-01-22T12:12:08.000Z</time>
      </trkpt>
      <trkpt lat="46.00827" lon="6.48116">
        <ele>2041.5</ele>
        <time>2017-01-22T12:12:30.000Z</time>
      </trkpt>
      <trkpt lat="46.00825" lon="6.48119">
        <ele>2041.98</ele>
        <time>2017-01-22T12:12:51.000Z</time>
      </trkpt>
      <trkpt lat="46.00825" lon="6.48127">
        <ele>2043.9</ele>
        <time>2017-01-22T12:13:04.000Z</time>
      </trkpt>
      <trkpt lat="46.00824" lon="6.48135">
        <ele>2044.86</ele>
        <time>2017-01-22T12:13:16.000Z</time>
      </trkpt>
      <trkpt lat="46.00823" lon="6.48142">
        <ele>2047.26</ele>
        <time>2017-01-22T12:13:32.000Z</time>
      </trkpt>
      <trkpt lat="46.00824" lon="6.4815">
        <ele>2048.71</ele>
        <time>2017-01-22T12:13:48.000Z</time>
      </trkpt>
      <trkpt lat="46.00822" lon="6.48154">
        <ele>2049.67</ele>
        <time>2017-01-22T12:14:02.000Z</time>
      </trkpt>
      <trkpt lat="46.00821" lon="6.48159">
        <ele>2050.15</ele>
        <time>2017-01-22T12:14:22.000Z</time>
      </trkpt>
      <trkpt lat="46.00818" lon="6.48167">
        <ele>2051.59</ele>
        <time>2017-01-22T12:14:35.000Z</time>
      </trkpt>
      <trkpt lat="46.00817" lon="6.48173">
        <ele>2053.03</ele>
        <time>2017-01-22T12:14:51.000Z</time>
      </trkpt>
      <trkpt lat="46.00814" lon="6.48177">
        <ele>2053.51</ele>
        <time>2017-01-22T12:15:05.000Z</time>
      </trkpt>
      <trkpt lat="46.00811" lon="6.4818">
        <ele>2054.47</ele>
        <time>2017-01-22T12:15:18.000Z</time>
      </trkpt>
      <trkpt lat="46.00811" lon="6.48181">
        <ele>2055.44</ele>
        <time>2017-01-22T12:15:31.000Z</time>
      </trkpt>
      <trkpt lat="46.00809" lon="6.48186">
        <ele>2056.4</ele>
        <time>2017-01-22T12:15:43.000Z</time>
      </trkpt>
      <trkpt lat="46.0081" lon="6.48193">
        <ele>2057.84</ele>
        <time>2017-01-22T12:15:54.000Z</time>
      </trkpt>
      <trkpt lat="46.00806" lon="6.48198">
        <ele>2058.8</ele>
        <time>2017-01-22T12:16:06.000Z</time>
      </trkpt>
      <trkpt lat="46.00802" lon="6.48203">
        <ele>2060.72</ele>
        <time>2017-01-22T12:16:17.000Z</time>
      </trkpt>
      <trkpt lat="46.00799" lon="6.48201">
        <ele>2060.24</ele>
        <time>2017-01-22T12:16:42.000Z</time>
      </trkpt>
      <trkpt lat="46.00799" lon="6.48203">
        <ele>2060.72</ele>
        <time>2017-01-22T12:16:58.000Z</time>
      </trkpt>
      <trkpt lat="46.00801" lon="6.48201">
        <ele>2061.68</ele>
        <time>2017-01-22T12:17:09.000Z</time>
      </trkpt>
      <trkpt lat="46.00806" lon="6.482">
        <ele>2063.61</ele>
        <time>2017-01-22T12:17:24.000Z</time>
      </trkpt>
      <trkpt lat="46.00811" lon="6.482">
        <ele>2065.05</ele>
        <time>2017-01-22T12:17:37.000Z</time>
      </trkpt>
      <trkpt lat="46.00814" lon="6.48201">
        <ele>2066.49</ele>
        <time>2017-01-22T12:17:50.000Z</time>
      </trkpt>
      <trkpt lat="46.00817" lon="6.48201">
        <ele>2066.49</ele>
        <time>2017-01-22T12:18:03.000Z</time>
      </trkpt>
      <trkpt lat="46.0082" lon="6.48205">
        <ele>2067.93</ele>
        <time>2017-01-22T12:18:22.000Z</time>
      </trkpt>
      <trkpt lat="46.00816" lon="6.48215">
        <ele>2070.34</ele>
        <time>2017-01-22T12:18:37.000Z</time>
      </trkpt>
      <trkpt lat="46.00811" lon="6.48218">
        <ele>2071.3</ele>
        <time>2017-01-22T12:18:49.000Z</time>
      </trkpt>
      <trkpt lat="46.00812" lon="6.48219">
        <ele>2071.3</ele>
        <time>2017-01-22T12:18:59.000Z</time>
      </trkpt>
      <trkpt lat="46.00815" lon="6.48221">
        <ele>2072.26</ele>
        <time>2017-01-22T12:19:17.000Z</time>
      </trkpt>
      <trkpt lat="46.00821" lon="6.4822">
        <ele>2073.7</ele>
        <time>2017-01-22T12:19:29.000Z</time>
      </trkpt>
      <trkpt lat="46.00828" lon="6.48219">
        <ele>2075.62</ele>
        <time>2017-01-22T12:19:44.000Z</time>
      </trkpt>
      <trkpt lat="46.00834" lon="6.48216">
        <ele>2077.07</ele>
        <time>2017-01-22T12:19:58.000Z</time>
      </trkpt>
      <trkpt lat="46.00839" lon="6.48213">
        <ele>2078.51</ele>
        <time>2017-01-22T12:20:11.000Z</time>
      </trkpt>
      <trkpt lat="46.00842" lon="6.48211">
        <ele>2079.47</ele>
        <time>2017-01-22T12:20:23.000Z</time>
      </trkpt>
      <trkpt lat="46.00841" lon="6.48211">
        <ele>2079.95</ele>
        <time>2017-01-22T12:20:42.000Z</time>
      </trkpt>
      <trkpt lat="46.00846" lon="6.48208">
        <ele>2080.91</ele>
        <time>2017-01-22T12:20:57.000Z</time>
      </trkpt>
      <trkpt lat="46.00854" lon="6.48208">
        <ele>2083.31</ele>
        <time>2017-01-22T12:21:12.000Z</time>
      </trkpt>
      <trkpt lat="46.0086" lon="6.48213">
        <ele>2084.28</ele>
        <time>2017-01-22T12:21:23.000Z</time>
      </trkpt>
      <trkpt lat="46.00865" lon="6.48219">
        <ele>2086.2</ele>
        <time>2017-01-22T12:21:35.000Z</time>
      </trkpt>
      <trkpt lat="46.00864" lon="6.48229">
        <ele>2086.68</ele>
        <time>2017-01-22T12:21:52.000Z</time>
      </trkpt>
      <trkpt lat="46.00864" lon="6.4823">
        <ele>2086.68</ele>
        <time>2017-01-22T12:22:12.000Z</time>
      </trkpt>
      <trkpt lat="46.00867" lon="6.48236">
        <ele>2088.12</ele>
        <time>2017-01-22T12:22:23.000Z</time>
      </trkpt>
      <trkpt lat="46.00872" lon="6.48242">
        <ele>2090.52</ele>
        <time>2017-01-22T12:22:39.000Z</time>
      </trkpt>
      <trkpt lat="46.00875" lon="6.48248">
        <ele>2091.97</ele>
        <time>2017-01-22T12:22:51.000Z</time>
      </trkpt>
      <trkpt lat="46.00876" lon="6.48251">
        <ele>2092.93</ele>
        <time>2017-01-22T12:23:07.000Z</time>
      </trkpt>
      <trkpt lat="46.00871" lon="6.4826">
        <ele>2094.85</ele>
        <time>2017-01-22T12:23:23.000Z</time>
      </trkpt>
      <trkpt lat="46.00868" lon="6.48268">
        <ele>2097.25</ele>
        <time>2017-01-22T12:23:37.000Z</time>
      </trkpt>
      <trkpt lat="46.00867" lon="6.48276">
        <ele>2098.21</ele>
        <time>2017-01-22T12:23:52.000Z</time>
      </trkpt>
      <trkpt lat="46.00869" lon="6.48279">
        <ele>2099.66</ele>
        <time>2017-01-22T12:24:03.000Z</time>
      </trkpt>
      <trkpt lat="46.00871" lon="6.48281">
        <ele>2100.62</ele>
        <time>2017-01-22T12:24:14.000Z</time>
      </trkpt>
      <trkpt lat="46.00872" lon="6.48287">
        <ele>2102.54</ele>
        <time>2017-01-22T12:24:27.000Z</time>
      </trkpt>
      <trkpt lat="46.00877" lon="6.48295">
        <ele>2103.98</ele>
        <time>2017-01-22T12:24:41.000Z</time>
      </trkpt>
      <trkpt lat="46.0088" lon="6.48297">
        <ele>2104.46</ele>
        <time>2017-01-22T12:24:54.000Z</time>
      </trkpt>
      <trkpt lat="46.0088" lon="6.48297">
        <ele>2104.46</ele>
        <time>2017-01-22T12:25:07.000Z</time>
      </trkpt>
      <trkpt lat="46.0088" lon="6.48297">
        <ele>2107.35</ele>
        <time>2017-01-22T12:25:14.000Z</time>
      </trkpt>
      <trkpt lat="46.0088" lon="6.48297">
        <ele>2103.98</ele>
        <time>2017-01-22T12:25:15.000Z</time>
      </trkpt>
      <trkpt lat="46.00878" lon="6.48299">
        <ele>2103.02</ele>
        <time>2017-01-22T12:25:34.000Z</time>
      </trkpt>
      <trkpt lat="46.00878" lon="6.48299">
        <ele>2103.02</ele>
        <time>2017-01-22T12:25:57.000Z</time>
      </trkpt>
      <trkpt lat="46.00878" lon="6.483">
        <ele>2103.02</ele>
        <time>2017-01-22T12:26:23.000Z</time>
      </trkpt>
      <trkpt lat="46.0088" lon="6.483">
        <ele>2103.02</ele>
        <time>2017-01-22T12:26:47.000Z</time>
      </trkpt>
      <trkpt lat="46.0088" lon="6.48299">
        <ele>2103.02</ele>
        <time>2017-01-22T12:27:17.000Z</time>
      </trkpt>
      <trkpt lat="46.00879" lon="6.48299">
        <ele>2103.02</ele>
        <time>2017-01-22T12:27:50.000Z</time>
      </trkpt>
      <trkpt lat="46.00879" lon="6.48298">
        <ele>2103.02</ele>
        <time>2017-01-22T12:28:24.000Z</time>
      </trkpt>
      <trkpt lat="46.0088" lon="6.48298">
        <ele>2103.02</ele>
        <time>2017-01-22T12:28:54.000Z</time>
      </trkpt>
      <trkpt lat="46.0088" lon="6.48298">
        <ele>2103.02</ele>
        <time>2017-01-22T12:29:33.000Z</time>
      </trkpt>
      <trkpt lat="46.0088" lon="6.48298">
        <ele>2103.02</ele>
        <time>2017-01-22T12:30:11.000Z</time>
      </trkpt>
      <trkpt lat="46.00881" lon="6.48296">
        <ele>2103.02</ele>
        <time>2017-01-22T12:30:50.000Z</time>
      </trkpt>
      <trkpt lat="46.0088" lon="6.48298">
        <ele>2102.54</ele>
        <time>2017-01-22T12:31:17.000Z</time>
      </trkpt>
      <trkpt lat="46.0088" lon="6.48299">
        <ele>2106.39</ele>
        <time>2017-01-22T12:31:20.000Z</time>
      </trkpt>
      <trkpt lat="46.0088" lon="6.48298">
        <ele>2102.06</ele>
        <time>2017-01-22T12:31:22.000Z</time>
      </trkpt>
      <trkpt lat="46.00882" lon="6.48297">
        <ele>2103.98</ele>
        <time>2017-01-22T12:31:35.000Z</time>
      </trkpt>
      <trkpt lat="46.0088" lon="6.48297">
        <ele>2103.98</ele>
        <time>2017-01-22T12:32:14.000Z</time>
      </trkpt>
      <trkpt lat="46.00881" lon="6.48295">
        <ele>2103.98</ele>
        <time>2017-01-22T12:32:56.000Z</time>
      </trkpt>
      <trkpt lat="46.00881" lon="6.48294">
        <ele>2103.98</ele>
        <time>2017-01-22T12:33:32.000Z</time>
      </trkpt>
      <trkpt lat="46.00881" lon="6.48293">
        <ele>2103.98</ele>
        <time>2017-01-22T12:34:14.000Z</time>
      </trkpt>
      <trkpt lat="46.00882" lon="6.48294">
        <ele>2105.42</ele>
        <time>2017-01-22T12:34:50.000Z</time>
      </trkpt>
      <trkpt lat="46.00883" lon="6.48295">
        <ele>2105.42</ele>
        <time>2017-01-22T12:35:15.000Z</time>
      </trkpt>
      <trkpt lat="46.00885" lon="6.48295">
        <ele>2105.42</ele>
        <time>2017-01-22T12:35:26.000Z</time>
      </trkpt>
      <trkpt lat="46.00884" lon="6.48296">
        <ele>2105.42</ele>
        <time>2017-01-22T12:35:37.000Z</time>
      </trkpt>
      <trkpt lat="46.00885" lon="6.483">
        <ele>2105.42</ele>
        <time>2017-01-22T12:35:42.000Z</time>
      </trkpt>
      <trkpt lat="46.00885" lon="6.48312">
        <ele>2104.46</ele>
        <time>2017-01-22T12:35:56.000Z</time>
      </trkpt>
      <trkpt lat="46.00887" lon="6.48316">
        <ele>2103.02</ele>
        <time>2017-01-22T12:36:01.000Z</time>
      </trkpt>
      <trkpt lat="46.00889" lon="6.48327">
        <ele>2101.1</ele>
        <time>2017-01-22T12:36:10.000Z</time>
      </trkpt>
      <trkpt lat="46.0089" lon="6.4833">
        <ele>2101.1</ele>
        <time>2017-01-22T12:36:40.000Z</time>
      </trkpt>
      <trkpt lat="46.0089" lon="6.48335">
        <ele>2099.66</ele>
        <time>2017-01-22T12:36:42.000Z</time>
      </trkpt>
      <trkpt lat="46.0088" lon="6.48336">
        <ele>2094.85</ele>
        <time>2017-01-22T12:36:46.000Z</time>
      </trkpt>
      <trkpt lat="46.00879" lon="6.48334">
        <ele>2093.89</ele>
        <time>2017-01-22T12:36:54.000Z</time>
      </trkpt>
      <trkpt lat="46.00877" lon="6.4834">
        <ele>2091.97</ele>
        <time>2017-01-22T12:36:58.000Z</time>
      </trkpt>
      <trkpt lat="46.00877" lon="6.48342">
        <ele>2091.97</ele>
        <time>2017-01-22T12:36:59.000Z</time>
      </trkpt>
      <trkpt lat="46.00872" lon="6.48347">
        <ele>2089.08</ele>
        <time>2017-01-22T12:37:03.000Z</time>
      </trkpt>
      <trkpt lat="46.00872" lon="6.48354">
        <ele>2086.68</ele>
        <time>2017-01-22T12:37:07.000Z</time>
      </trkpt>
      <trkpt lat="46.00867" lon="6.48358">
        <ele>2083.79</ele>
        <time>2017-01-22T12:37:15.000Z</time>
      </trkpt>
      <trkpt lat="46.00866" lon="6.48358">
        <ele>2083.79</ele>
        <time>2017-01-22T12:37:29.000Z</time>
      </trkpt>
      <trkpt lat="46.00853" lon="6.48366">
        <ele>2081.39</ele>
        <time>2017-01-22T12:37:40.000Z</time>
      </trkpt>
      <trkpt lat="46.00853" lon="6.48365">
        <ele>2080.43</ele>
        <time>2017-01-22T12:38:09.000Z</time>
      </trkpt>
      <trkpt lat="46.00843" lon="6.48372">
        <ele>2077.07</ele>
        <time>2017-01-22T12:38:19.000Z</time>
      </trkpt>
      <trkpt lat="46.00837" lon="6.48374">
        <ele>2075.62</ele>
        <time>2017-01-22T12:38:26.000Z</time>
      </trkpt>
      <trkpt lat="46.00837" lon="6.48374">
        <ele>2074.66</ele>
        <time>2017-01-22T12:38:27.000Z</time>
      </trkpt>
      <trkpt lat="46.00838" lon="6.48381">
        <ele>2071.3</ele>
        <time>2017-01-22T12:38:31.000Z</time>
      </trkpt>
      <trkpt lat="46.0084" lon="6.48381">
        <ele>2070.82</ele>
        <time>2017-01-22T12:38:36.000Z</time>
      </trkpt>
      <trkpt lat="46.00839" lon="6.48385">
        <ele>2067.45</ele>
        <time>2017-01-22T12:38:40.000Z</time>
      </trkpt>
      <trkpt lat="46.00838" lon="6.48385">
        <ele>2066.49</ele>
        <time>2017-01-22T12:38:41.000Z</time>
      </trkpt>
      <trkpt lat="46.00839" lon="6.4839">
        <ele>2063.13</ele>
        <time>2017-01-22T12:38:45.000Z</time>
      </trkpt>
      <trkpt lat="46.00838" lon="6.48386">
        <ele>2063.13</ele>
        <time>2017-01-22T12:38:59.000Z</time>
      </trkpt>
      <trkpt lat="46.00837" lon="6.48392">
        <ele>2060.72</ele>
        <time>2017-01-22T12:39:02.000Z</time>
      </trkpt>
      <trkpt lat="46.00837" lon="6.48398">
        <ele>2056.4</ele>
        <time>2017-01-22T12:39:06.000Z</time>
      </trkpt>
      <trkpt lat="46.00838" lon="6.48398">
        <ele>2056.4</ele>
        <time>2017-01-22T12:39:07.000Z</time>
      </trkpt>
      <trkpt lat="46.00837" lon="6.48398">
        <ele>2055.92</ele>
        <time>2017-01-22T12:39:20.000Z</time>
      </trkpt>
      <trkpt lat="46.00834" lon="6.48406">
        <ele>2052.07</ele>
        <time>2017-01-22T12:39:23.000Z</time>
      </trkpt>
      <trkpt lat="46.00832" lon="6.48407">
        <ele>2052.07</ele>
        <time>2017-01-22T12:39:24.000Z</time>
      </trkpt>
      <trkpt lat="46.00832" lon="6.48408">
        <ele>2051.59</ele>
        <time>2017-01-22T12:39:26.000Z</time>
      </trkpt>
      <trkpt lat="46.00838" lon="6.48414">
        <ele>2047.75</ele>
        <time>2017-01-22T12:39:35.000Z</time>
      </trkpt>
      <trkpt lat="46.00839" lon="6.48415">
        <ele>2047.75</ele>
        <time>2017-01-22T12:39:38.000Z</time>
      </trkpt>
      <trkpt lat="46.00834" lon="6.48422">
        <ele>2042.94</ele>
        <time>2017-01-22T12:39:41.000Z</time>
      </trkpt>
      <trkpt lat="46.00831" lon="6.48423">
        <ele>2042.46</ele>
        <time>2017-01-22T12:39:46.000Z</time>
      </trkpt>
      <trkpt lat="46.00825" lon="6.48428">
        <ele>2040.05</ele>
        <time>2017-01-22T12:39:57.000Z</time>
      </trkpt>
      <trkpt lat="46.00827" lon="6.48433">
        <ele>2039.09</ele>
        <time>2017-01-22T12:40:11.000Z</time>
      </trkpt>
      <trkpt lat="46.00825" lon="6.48433">
        <ele>2039.09</ele>
        <time>2017-01-22T12:40:18.000Z</time>
      </trkpt>
      <trkpt lat="46.00821" lon="6.48441">
        <ele>2037.65</ele>
        <time>2017-01-22T12:40:22.000Z</time>
      </trkpt>
      <trkpt lat="46.00812" lon="6.48448">
        <ele>2035.25</ele>
        <time>2017-01-22T12:40:34.000Z</time>
      </trkpt>
      <trkpt lat="46.00809" lon="6.48447">
        <ele>2035.25</ele>
        <time>2017-01-22T12:40:57.000Z</time>
      </trkpt>
      <trkpt lat="46.0081" lon="6.48448">
        <ele>2034.77</ele>
        <time>2017-01-22T12:41:16.000Z</time>
      </trkpt>
      <trkpt lat="46.00806" lon="6.48451">
        <ele>2033.33</ele>
        <time>2017-01-22T12:41:22.000Z</time>
      </trkpt>
      <trkpt lat="46.00809" lon="6.48458">
        <ele>2029.48</ele>
        <time>2017-01-22T12:41:25.000Z</time>
      </trkpt>
      <trkpt lat="46.0081" lon="6.48459">
        <ele>2028.52</ele>
        <time>2017-01-22T12:41:26.000Z</time>
      </trkpt>
      <trkpt lat="46.00806" lon="6.48465">
        <ele>2024.67</ele>
        <time>2017-01-22T12:41:29.000Z</time>
      </trkpt>
      <trkpt lat="46.008" lon="6.48463">
        <ele>2023.71</ele>
        <time>2017-01-22T12:41:38.000Z</time>
      </trkpt>
      <trkpt lat="46.00797" lon="6.48462">
        <ele>2023.71</ele>
        <time>2017-01-22T12:41:42.000Z</time>
      </trkpt>
      <trkpt lat="46.00797" lon="6.48465">
        <ele>2022.27</ele>
        <time>2017-01-22T12:41:44.000Z</time>
      </trkpt>
      <trkpt lat="46.00805" lon="6.4847">
        <ele>2019.87</ele>
        <time>2017-01-22T12:41:51.000Z</time>
      </trkpt>
      <trkpt lat="46.00805" lon="6.48473">
        <ele>2019.87</ele>
        <time>2017-01-22T12:42:01.000Z</time>
      </trkpt>
      <trkpt lat="46.00804" lon="6.48484">
        <ele>2015.54</ele>
        <time>2017-01-22T12:42:05.000Z</time>
      </trkpt>
      <trkpt lat="46.00807" lon="6.48488">
        <ele>2012.18</ele>
        <time>2017-01-22T12:42:07.000Z</time>
      </trkpt>
      <trkpt lat="46.00815" lon="6.48495">
        <ele>2011.7</ele>
        <time>2017-01-22T12:42:29.000Z</time>
      </trkpt>
      <trkpt lat="46.00815" lon="6.48497">
        <ele>2011.7</ele>
        <time>2017-01-22T12:42:40.000Z</time>
      </trkpt>
      <trkpt lat="46.00809" lon="6.48506">
        <ele>2007.85</ele>
        <time>2017-01-22T12:42:44.000Z</time>
      </trkpt>
      <trkpt lat="46.00811" lon="6.48515">
        <ele>2004.01</ele>
        <time>2017-01-22T12:42:47.000Z</time>
      </trkpt>
      <trkpt lat="46.00813" lon="6.48516">
        <ele>2002.56</ele>
        <time>2017-01-22T12:42:49.000Z</time>
      </trkpt>
      <trkpt lat="46.0081" lon="6.48523">
        <ele>1999.2</ele>
        <time>2017-01-22T12:42:52.000Z</time>
      </trkpt>
      <trkpt lat="46.00808" lon="6.48525">
        <ele>1999.2</ele>
        <time>2017-01-22T12:42:53.000Z</time>
      </trkpt>
      <trkpt lat="46.00806" lon="6.4853">
        <ele>1996.32</ele>
        <time>2017-01-22T12:42:55.000Z</time>
      </trkpt>
      <trkpt lat="46.0081" lon="6.48537">
        <ele>1992.47</ele>
        <time>2017-01-22T12:42:58.000Z</time>
      </trkpt>
      <trkpt lat="46.00806" lon="6.48541">
        <ele>1991.03</ele>
        <time>2017-01-22T12:43:00.000Z</time>
      </trkpt>
      <trkpt lat="46.00806" lon="6.48544">
        <ele>1991.03</ele>
        <time>2017-01-22T12:43:22.000Z</time>
      </trkpt>
      <trkpt lat="46.00808" lon="6.48544">
        <ele>1991.03</ele>
        <time>2017-01-22T12:43:31.000Z</time>
      </trkpt>
      <trkpt lat="46.00808" lon="6.48551">
        <ele>1987.66</ele>
        <time>2017-01-22T12:43:35.000Z</time>
      </trkpt>
      <trkpt lat="46.0081" lon="6.4856">
        <ele>1984.3</ele>
        <time>2017-01-22T12:43:39.000Z</time>
      </trkpt>
      <trkpt lat="46.00808" lon="6.48572">
        <ele>1979.97</ele>
        <time>2017-01-22T12:43:42.000Z</time>
      </trkpt>
      <trkpt lat="46.00807" lon="6.4858">
        <ele>1976.61</ele>
        <time>2017-01-22T12:43:44.000Z</time>
      </trkpt>
      <trkpt lat="46.00806" lon="6.48584">
        <ele>1972.76</ele>
        <time>2017-01-22T12:43:45.000Z</time>
      </trkpt>
      <trkpt lat="46.00804" lon="6.48604">
        <ele>1964.59</ele>
        <time>2017-01-22T12:43:49.000Z</time>
      </trkpt>
      <trkpt lat="46.00805" lon="6.48609">
        <ele>1963.63</ele>
        <time>2017-01-22T12:43:50.000Z</time>
      </trkpt>
      <trkpt lat="46.00808" lon="6.48618">
        <ele>1959.78</ele>
        <time>2017-01-22T12:43:52.000Z</time>
      </trkpt>
      <trkpt lat="46.00812" lon="6.48626">
        <ele>1955.94</ele>
        <time>2017-01-22T12:43:54.000Z</time>
      </trkpt>
      <trkpt lat="46.00811" lon="6.48631">
        <ele>1953.06</ele>
        <time>2017-01-22T12:43:57.000Z</time>
      </trkpt>
      <trkpt lat="46.00812" lon="6.48628">
        <ele>1953.54</ele>
        <time>2017-01-22T12:44:17.000Z</time>
      </trkpt>
      <trkpt lat="46.00813" lon="6.48636">
        <ele>1954.02</ele>
        <time>2017-01-22T12:44:47.000Z</time>
      </trkpt>
      <trkpt lat="46.00811" lon="6.48635">
        <ele>1954.02</ele>
        <time>2017-01-22T12:45:04.000Z</time>
      </trkpt>
      <trkpt lat="46.00808" lon="6.48636">
        <ele>1954.02</ele>
        <time>2017-01-22T12:45:26.000Z</time>
      </trkpt>
      <trkpt lat="46.00809" lon="6.4864">
        <ele>1954.5</ele>
        <time>2017-01-22T12:45:55.000Z</time>
      </trkpt>
      <trkpt lat="46.00809" lon="6.48643">
        <ele>1954.5</ele>
        <time>2017-01-22T12:46:05.000Z</time>
      </trkpt>
      <trkpt lat="46.00807" lon="6.48654">
        <ele>1949.69</ele>
        <time>2017-01-22T12:46:08.000Z</time>
      </trkpt>
      <trkpt lat="46.00806" lon="6.48659">
        <ele>1943.44</ele>
        <time>2017-01-22T12:46:10.000Z</time>
      </trkpt>
      <trkpt lat="46.00806" lon="6.48655">
        <ele>1945.36</ele>
        <time>2017-01-22T12:46:11.000Z</time>
      </trkpt>
      <trkpt lat="46.00808" lon="6.48651">
        <ele>1946.33</ele>
        <time>2017-01-22T12:46:24.000Z</time>
      </trkpt>
      <trkpt lat="46.00808" lon="6.48645">
        <ele>1946.33</ele>
        <time>2017-01-22T12:46:39.000Z</time>
      </trkpt>
      <trkpt lat="46.00811" lon="6.48643">
        <ele>1946.33</ele>
        <time>2017-01-22T12:46:56.000Z</time>
      </trkpt>
      <trkpt lat="46.00805" lon="6.48649">
        <ele>1943.44</ele>
        <time>2017-01-22T12:47:01.000Z</time>
      </trkpt>
      <trkpt lat="46.0079" lon="6.48658">
        <ele>1937.19</ele>
        <time>2017-01-22T12:47:05.000Z</time>
      </trkpt>
      <trkpt lat="46.00785" lon="6.48661">
        <ele>1936.23</ele>
        <time>2017-01-22T12:47:06.000Z</time>
      </trkpt>
      <trkpt lat="46.00769" lon="6.48671">
        <ele>1931.91</ele>
        <time>2017-01-22T12:47:10.000Z</time>
      </trkpt>
      <trkpt lat="46.00763" lon="6.48674">
        <ele>1931.43</ele>
        <time>2017-01-22T12:47:17.000Z</time>
      </trkpt>
      <trkpt lat="46.00758" lon="6.4868">
        <ele>1931.43</ele>
        <time>2017-01-22T12:47:40.000Z</time>
      </trkpt>
      <trkpt lat="46.00758" lon="6.4868">
        <ele>1931.43</ele>
        <time>2017-01-22T12:47:42.000Z</time>
      </trkpt>
      <trkpt lat="46.00762" lon="6.48685">
        <ele>1929.02</ele>
        <time>2017-01-22T12:47:47.000Z</time>
      </trkpt>
      <trkpt lat="46.00758" lon="6.4869">
        <ele>1927.58</ele>
        <time>2017-01-22T12:47:50.000Z</time>
      </trkpt>
      <trkpt lat="46.00756" lon="6.48691">
        <ele>1926.62</ele>
        <time>2017-01-22T12:47:51.000Z</time>
      </trkpt>
      <trkpt lat="46.00754" lon="6.48692">
        <ele>1926.62</ele>
        <time>2017-01-22T12:47:54.000Z</time>
      </trkpt>
      <trkpt lat="46.00756" lon="6.48702">
        <ele>1922.29</ele>
        <time>2017-01-22T12:47:58.000Z</time>
      </trkpt>
      <trkpt lat="46.00756" lon="6.48705">
        <ele>1920.37</ele>
        <time>2017-01-22T12:47:59.000Z</time>
      </trkpt>
      <trkpt lat="46.00761" lon="6.48714">
        <ele>1914.6</ele>
        <time>2017-01-22T12:48:04.000Z</time>
      </trkpt>
      <trkpt lat="46.00758" lon="6.48714">
        <ele>1914.6</ele>
        <time>2017-01-22T12:48:08.000Z</time>
      </trkpt>
      <trkpt lat="46.0075" lon="6.48719">
        <ele>1910.76</ele>
        <time>2017-01-22T12:48:12.000Z</time>
      </trkpt>
      <trkpt lat="46.00744" lon="6.48715">
        <ele>1909.8</ele>
        <time>2017-01-22T12:48:22.000Z</time>
      </trkpt>
      <trkpt lat="46.00744" lon="6.48714">
        <ele>1909.32</ele>
        <time>2017-01-22T12:48:31.000Z</time>
      </trkpt>
      <trkpt lat="46.00743" lon="6.48715">
        <ele>1908.35</ele>
        <time>2017-01-22T12:48:32.000Z</time>
      </trkpt>
      <trkpt lat="46.00745" lon="6.48725">
        <ele>1904.99</ele>
        <time>2017-01-22T12:48:35.000Z</time>
      </trkpt>
      <trkpt lat="46.00746" lon="6.48726">
        <ele>1904.99</ele>
        <time>2017-01-22T12:48:36.000Z</time>
      </trkpt>
      <trkpt lat="46.00745" lon="6.48728">
        <ele>1903.55</ele>
        <time>2017-01-22T12:48:50.000Z</time>
      </trkpt>
      <trkpt lat="46.00743" lon="6.48729">
        <ele>1902.59</ele>
        <time>2017-01-22T12:48:51.000Z</time>
      </trkpt>
      <trkpt lat="46.00737" lon="6.4873">
        <ele>1901.14</ele>
        <time>2017-01-22T12:48:54.000Z</time>
      </trkpt>
      <trkpt lat="46.00732" lon="6.4873">
        <ele>1900.18</ele>
        <time>2017-01-22T12:48:56.000Z</time>
      </trkpt>
      <trkpt lat="46.00729" lon="6.48729">
        <ele>1899.22</ele>
        <time>2017-01-22T12:48:58.000Z</time>
      </trkpt>
      <trkpt lat="46.00729" lon="6.4873">
        <ele>1898.74</ele>
        <time>2017-01-22T12:49:04.000Z</time>
      </trkpt>
      <trkpt lat="46.00729" lon="6.48738">
        <ele>1895.86</ele>
        <time>2017-01-22T12:49:07.000Z</time>
      </trkpt>
      <trkpt lat="46.00725" lon="6.48745">
        <ele>1892.97</ele>
        <time>2017-01-22T12:49:10.000Z</time>
      </trkpt>
      <trkpt lat="46.00725" lon="6.48755">
        <ele>1889.13</ele>
        <time>2017-01-22T12:49:13.000Z</time>
      </trkpt>
      <trkpt lat="46.00723" lon="6.48765">
        <ele>1885.28</ele>
        <time>2017-01-22T12:49:17.000Z</time>
      </trkpt>
      <trkpt lat="46.00717" lon="6.48767">
        <ele>1883.84</ele>
        <time>2017-01-22T12:49:27.000Z</time>
      </trkpt>
      <trkpt lat="46.00716" lon="6.48768">
        <ele>1883.84</ele>
        <time>2017-01-22T12:49:31.000Z</time>
      </trkpt>
      <trkpt lat="46.00705" lon="6.48776">
        <ele>1880.48</ele>
        <time>2017-01-22T12:49:35.000Z</time>
      </trkpt>
      <trkpt lat="46.00689" lon="6.48783">
        <ele>1878.07</ele>
        <time>2017-01-22T12:49:39.000Z</time>
      </trkpt>
      <trkpt lat="46.00672" lon="6.48786">
        <ele>1874.23</ele>
        <time>2017-01-22T12:49:47.000Z</time>
      </trkpt>
      <trkpt lat="46.00671" lon="6.48786">
        <ele>1874.23</ele>
        <time>2017-01-22T12:49:48.000Z</time>
      </trkpt>
      <trkpt lat="46.0067" lon="6.48789">
        <ele>1873.75</ele>
        <time>2017-01-22T12:49:50.000Z</time>
      </trkpt>
      <trkpt lat="46.00676" lon="6.48788">
        <ele>1870.86</ele>
        <time>2017-01-22T12:49:59.000Z</time>
      </trkpt>
      <trkpt lat="46.0067" lon="6.48795">
        <ele>1866.54</ele>
        <time>2017-01-22T12:50:03.000Z</time>
      </trkpt>
      <trkpt lat="46.00666" lon="6.48794">
        <ele>1866.06</ele>
        <time>2017-01-22T12:50:05.000Z</time>
      </trkpt>
      <trkpt lat="46.00653" lon="6.48798">
        <ele>1862.69</ele>
        <time>2017-01-22T12:50:09.000Z</time>
      </trkpt>
      <trkpt lat="46.00648" lon="6.48797">
        <ele>1861.73</ele>
        <time>2017-01-22T12:50:11.000Z</time>
      </trkpt>
      <trkpt lat="46.00638" lon="6.48793">
        <ele>1858.37</ele>
        <time>2017-01-22T12:50:14.000Z</time>
      </trkpt>
      <trkpt lat="46.00626" lon="6.48794">
        <ele>1856.44</ele>
        <time>2017-01-22T12:50:19.000Z</time>
      </trkpt>
      <trkpt lat="46.00623" lon="6.48792">
        <ele>1855</ele>
        <time>2017-01-22T12:50:28.000Z</time>
      </trkpt>
      <trkpt lat="46.00623" lon="6.48792">
        <ele>1855</ele>
        <time>2017-01-22T12:50:35.000Z</time>
      </trkpt>
      <trkpt lat="46.00622" lon="6.48795">
        <ele>1853.08</ele>
        <time>2017-01-22T12:50:37.000Z</time>
      </trkpt>
      <trkpt lat="46.00622" lon="6.48795">
        <ele>1851.16</ele>
        <time>2017-01-22T12:50:39.000Z</time>
      </trkpt>
      <trkpt lat="46.00619" lon="6.4879">
        <ele>1851.64</ele>
        <time>2017-01-22T12:50:56.000Z</time>
      </trkpt>
      <trkpt lat="46.00623" lon="6.48793">
        <ele>1851.16</ele>
        <time>2017-01-22T12:51:02.000Z</time>
      </trkpt>
      <trkpt lat="46.00614" lon="6.48807">
        <ele>1847.79</ele>
        <time>2017-01-22T12:51:06.000Z</time>
      </trkpt>
      <trkpt lat="46.00603" lon="6.48817">
        <ele>1843.95</ele>
        <time>2017-01-22T12:51:09.000Z</time>
      </trkpt>
      <trkpt lat="46.00589" lon="6.48825">
        <ele>1841.54</ele>
        <time>2017-01-22T12:51:15.000Z</time>
      </trkpt>
      <trkpt lat="46.00582" lon="6.48843">
        <ele>1837.7</ele>
        <time>2017-01-22T12:51:20.000Z</time>
      </trkpt>
      <trkpt lat="46.00583" lon="6.4884">
        <ele>1838.18</ele>
        <time>2017-01-22T12:51:30.000Z</time>
      </trkpt>
      <trkpt lat="46.00584" lon="6.4886">
        <ele>1835.77</ele>
        <time>2017-01-22T12:51:36.000Z</time>
      </trkpt>
      <trkpt lat="46.00583" lon="6.48876">
        <ele>1835.29</ele>
        <time>2017-01-22T12:51:40.000Z</time>
      </trkpt>
      <trkpt lat="46.00583" lon="6.4888">
        <ele>1834.81</ele>
        <time>2017-01-22T12:51:56.000Z</time>
      </trkpt>
      <trkpt lat="46.00586" lon="6.48883">
        <ele>1835.29</ele>
        <time>2017-01-22T12:52:11.000Z</time>
      </trkpt>
      <trkpt lat="46.00587" lon="6.48892">
        <ele>1834.81</ele>
        <time>2017-01-22T12:52:24.000Z</time>
      </trkpt>
      <trkpt lat="46.00587" lon="6.48916">
        <ele>1832.89</ele>
        <time>2017-01-22T12:52:31.000Z</time>
      </trkpt>
      <trkpt lat="46.00592" lon="6.48942">
        <ele>1830.01</ele>
        <time>2017-01-22T12:52:41.000Z</time>
      </trkpt>
      <trkpt lat="46.00593" lon="6.48942">
        <ele>1829.53</ele>
        <time>2017-01-22T12:53:14.000Z</time>
      </trkpt>
      <trkpt lat="46.00592" lon="6.48943">
        <ele>1829.05</ele>
        <time>2017-01-22T12:53:26.000Z</time>
      </trkpt>
      <trkpt lat="46.00591" lon="6.48947">
        <ele>1828.56</ele>
        <time>2017-01-22T12:53:39.000Z</time>
      </trkpt>
      <trkpt lat="46.00591" lon="6.48947">
        <ele>1828.56</ele>
        <time>2017-01-22T12:53:40.000Z</time>
      </trkpt>
      <trkpt lat="46.00586" lon="6.48957">
        <ele>1825.68</ele>
        <time>2017-01-22T12:53:44.000Z</time>
      </trkpt>
      <trkpt lat="46.00585" lon="6.48956">
        <ele>1825.68</ele>
        <time>2017-01-22T12:53:45.000Z</time>
      </trkpt>
      <trkpt lat="46.00585" lon="6.48957">
        <ele>1825.68</ele>
        <time>2017-01-22T12:53:49.000Z</time>
      </trkpt>
      <trkpt lat="46.00587" lon="6.48961">
        <ele>1823.76</ele>
        <time>2017-01-22T12:53:59.000Z</time>
      </trkpt>
      <trkpt lat="46.00588" lon="6.48964">
        <ele>1823.76</ele>
        <time>2017-01-22T12:54:02.000Z</time>
      </trkpt>
      <trkpt lat="46.00587" lon="6.48967">
        <ele>1822.32</ele>
        <time>2017-01-22T12:54:04.000Z</time>
      </trkpt>
      <trkpt lat="46.00586" lon="6.48967">
        <ele>1821.84</ele>
        <time>2017-01-22T12:54:18.000Z</time>
      </trkpt>
      <trkpt lat="46.00586" lon="6.4897">
        <ele>1821.35</ele>
        <time>2017-01-22T12:54:25.000Z</time>
      </trkpt>
      <trkpt lat="46.00586" lon="6.48976">
        <ele>1819.91</ele>
        <time>2017-01-22T12:54:34.000Z</time>
      </trkpt>
      <trkpt lat="46.00587" lon="6.48978">
        <ele>1819.91</ele>
        <time>2017-01-22T12:54:36.000Z</time>
      </trkpt>
      <trkpt lat="46.00587" lon="6.48982">
        <ele>1817.03</ele>
        <time>2017-01-22T12:54:47.000Z</time>
      </trkpt>
      <trkpt lat="46.00587" lon="6.48983">
        <ele>1817.03</ele>
        <time>2017-01-22T12:54:50.000Z</time>
      </trkpt>
      <trkpt lat="46.00587" lon="6.48984">
        <ele>1816.55</ele>
        <time>2017-01-22T12:55:04.000Z</time>
      </trkpt>
      <trkpt lat="46.00587" lon="6.48987">
        <ele>1816.55</ele>
        <time>2017-01-22T12:55:10.000Z</time>
      </trkpt>
      <trkpt lat="46.00589" lon="6.49002">
        <ele>1809.82</ele>
        <time>2017-01-22T12:55:14.000Z</time>
      </trkpt>
      <trkpt lat="46.00583" lon="6.4901">
        <ele>1807.9</ele>
        <time>2017-01-22T12:55:18.000Z</time>
      </trkpt>
      <trkpt lat="46.00588" lon="6.49033">
        <ele>1804.53</ele>
        <time>2017-01-22T12:55:24.000Z</time>
      </trkpt>
      <trkpt lat="46.00591" lon="6.49033">
        <ele>1804.53</ele>
        <time>2017-01-22T12:55:35.000Z</time>
      </trkpt>
      <trkpt lat="46.00591" lon="6.49038">
        <ele>1804.05</ele>
        <time>2017-01-22T12:55:46.000Z</time>
      </trkpt>
      <trkpt lat="46.0059" lon="6.49051">
        <ele>1802.13</ele>
        <time>2017-01-22T12:55:50.000Z</time>
      </trkpt>
      <trkpt lat="46.0059" lon="6.49072">
        <ele>1800.69</ele>
        <time>2017-01-22T12:55:53.000Z</time>
      </trkpt>
      <trkpt lat="46.0059" lon="6.49113">
        <ele>1797.8</ele>
        <time>2017-01-22T12:55:59.000Z</time>
      </trkpt>
      <trkpt lat="46.0059" lon="6.49154">
        <ele>1795.4</ele>
        <time>2017-01-22T12:56:09.000Z</time>
      </trkpt>
      <trkpt lat="46.00593" lon="6.49172">
        <ele>1793.96</ele>
        <time>2017-01-22T12:56:21.000Z</time>
      </trkpt>
      <trkpt lat="46.00593" lon="6.49178">
        <ele>1793.96</ele>
        <time>2017-01-22T12:56:31.000Z</time>
      </trkpt>
      <trkpt lat="46.00594" lon="6.49188">
        <ele>1793</ele>
        <time>2017-01-22T12:56:39.000Z</time>
      </trkpt>
      <trkpt lat="46.00596" lon="6.49199">
        <ele>1792.03</ele>
        <time>2017-01-22T12:56:44.000Z</time>
      </trkpt>
      <trkpt lat="46.00602" lon="6.49231">
        <ele>1789.63</ele>
        <time>2017-01-22T12:56:59.000Z</time>
      </trkpt>
      <trkpt lat="46.00602" lon="6.49231">
        <ele>1789.63</ele>
        <time>2017-01-22T12:57:06.000Z</time>
      </trkpt>
      <trkpt lat="46.00597" lon="6.49241">
        <ele>1786.75</ele>
        <time>2017-01-22T12:57:12.000Z</time>
      </trkpt>
      <trkpt lat="46.00597" lon="6.49243">
        <ele>1786.75</ele>
        <time>2017-01-22T12:57:14.000Z</time>
      </trkpt>
      <trkpt lat="46.006" lon="6.49265">
        <ele>1783.86</ele>
        <time>2017-01-22T12:57:24.000Z</time>
      </trkpt>
      <trkpt lat="46.00602" lon="6.49272">
        <ele>1782.9</ele>
        <time>2017-01-22T12:57:41.000Z</time>
      </trkpt>
      <trkpt lat="46.00602" lon="6.49274">
        <ele>1782.42</ele>
        <time>2017-01-22T12:57:47.000Z</time>
      </trkpt>
      <trkpt lat="46.00599" lon="6.49274">
        <ele>1781.46</ele>
        <time>2017-01-22T12:57:59.000Z</time>
      </trkpt>
      <trkpt lat="46.00595" lon="6.49271">
        <ele>1780.98</ele>
        <time>2017-01-22T12:58:15.000Z</time>
      </trkpt>
      <trkpt lat="46.00594" lon="6.49269">
        <ele>1780.98</ele>
        <time>2017-01-22T12:58:31.000Z</time>
      </trkpt>
      <trkpt lat="46.00594" lon="6.49276">
        <ele>1778.58</ele>
        <time>2017-01-22T12:58:39.000Z</time>
      </trkpt>
      <trkpt lat="46.00593" lon="6.49276">
        <ele>1778.58</ele>
        <time>2017-01-22T12:58:45.000Z</time>
      </trkpt>
      <trkpt lat="46.0059" lon="6.49278">
        <ele>1777.61</ele>
        <time>2017-01-22T12:58:49.000Z</time>
      </trkpt>
      <trkpt lat="46.00587" lon="6.49277">
        <ele>1775.69</ele>
        <time>2017-01-22T12:59:00.000Z</time>
      </trkpt>
      <trkpt lat="46.00584" lon="6.49278">
        <ele>1774.73</ele>
        <time>2017-01-22T12:59:10.000Z</time>
      </trkpt>
      <trkpt lat="46.00583" lon="6.49273">
        <ele>1773.29</ele>
        <time>2017-01-22T12:59:21.000Z</time>
      </trkpt>
      <trkpt lat="46.00583" lon="6.49272">
        <ele>1773.29</ele>
        <time>2017-01-22T12:59:25.000Z</time>
      </trkpt>
      <trkpt lat="46.00576" lon="6.49261">
        <ele>1770.89</ele>
        <time>2017-01-22T12:59:34.000Z</time>
      </trkpt>
      <trkpt lat="46.00573" lon="6.49257">
        <ele>1769.92</ele>
        <time>2017-01-22T12:59:44.000Z</time>
      </trkpt>
      <trkpt lat="46.00572" lon="6.49261">
        <ele>1768.96</ele>
        <time>2017-01-22T12:59:52.000Z</time>
      </trkpt>
      <trkpt lat="46.00572" lon="6.49272">
        <ele>1767.52</ele>
        <time>2017-01-22T13:00:03.000Z</time>
      </trkpt>
      <trkpt lat="46.00576" lon="6.49293">
        <ele>1764.64</ele>
        <time>2017-01-22T13:00:13.000Z</time>
      </trkpt>
      <trkpt lat="46.00579" lon="6.49304">
        <ele>1763.2</ele>
        <time>2017-01-22T13:00:23.000Z</time>
      </trkpt>
      <trkpt lat="46.00578" lon="6.49305">
        <ele>1763.2</ele>
        <time>2017-01-22T13:00:53.000Z</time>
      </trkpt>
      <trkpt lat="46.00579" lon="6.49303">
        <ele>1762.71</ele>
        <time>2017-01-22T13:01:25.000Z</time>
      </trkpt>
      <trkpt lat="46.00579" lon="6.49305">
        <ele>1762.71</ele>
        <time>2017-01-22T13:02:01.000Z</time>
      </trkpt>
      <trkpt lat="46.00579" lon="6.49304">
        <ele>1762.71</ele>
        <time>2017-01-22T13:02:31.000Z</time>
      </trkpt>
      <trkpt lat="46.0058" lon="6.49305">
        <ele>1762.71</ele>
        <time>2017-01-22T13:03:03.000Z</time>
      </trkpt>
      <trkpt lat="46.00579" lon="6.49303">
        <ele>1762.71</ele>
        <time>2017-01-22T13:03:26.000Z</time>
      </trkpt>
      <trkpt lat="46.00578" lon="6.49306">
        <ele>1762.23</ele>
        <time>2017-01-22T13:03:51.000Z</time>
      </trkpt>
      <trkpt lat="46.00584" lon="6.49328">
        <ele>1758.87</ele>
        <time>2017-01-22T13:04:02.000Z</time>
      </trkpt>
      <trkpt lat="46.00586" lon="6.4933">
        <ele>1758.39</ele>
        <time>2017-01-22T13:04:13.000Z</time>
      </trkpt>
      <trkpt lat="46.00586" lon="6.49333">
        <ele>1758.39</ele>
        <time>2017-01-22T13:04:28.000Z</time>
      </trkpt>
      <trkpt lat="46.00581" lon="6.49354">
        <ele>1755.02</ele>
        <time>2017-01-22T13:04:32.000Z</time>
      </trkpt>
      <trkpt lat="46.00582" lon="6.49379">
        <ele>1750.7</ele>
        <time>2017-01-22T13:04:35.000Z</time>
      </trkpt>
      <trkpt lat="46.00588" lon="6.49404">
        <ele>1746.85</ele>
        <time>2017-01-22T13:04:38.000Z</time>
      </trkpt>
      <trkpt lat="46.00592" lon="6.4942">
        <ele>1743.49</ele>
        <time>2017-01-22T13:04:40.000Z</time>
      </trkpt>
      <trkpt lat="46.00605" lon="6.49463">
        <ele>1736.76</ele>
        <time>2017-01-22T13:04:45.000Z</time>
      </trkpt>
      <trkpt lat="46.00611" lon="6.49486">
        <ele>1733.39</ele>
        <time>2017-01-22T13:04:48.000Z</time>
      </trkpt>
      <trkpt lat="46.00616" lon="6.495">
        <ele>1730.51</ele>
        <time>2017-01-22T13:04:54.000Z</time>
      </trkpt>
      <trkpt lat="46.00619" lon="6.49499">
        <ele>1730.99</ele>
        <time>2017-01-22T13:05:23.000Z</time>
      </trkpt>
      <trkpt lat="46.00618" lon="6.495">
        <ele>1730.99</ele>
        <time>2017-01-22T13:05:35.000Z</time>
      </trkpt>
      <trkpt lat="46.00623" lon="6.49501">
        <ele>1729.55</ele>
        <time>2017-01-22T13:05:46.000Z</time>
      </trkpt>
      <trkpt lat="46.00623" lon="6.49501">
        <ele>1729.07</ele>
        <time>2017-01-22T13:05:55.000Z</time>
      </trkpt>
      <trkpt lat="46.00625" lon="6.49505">
        <ele>1727.15</ele>
        <time>2017-01-22T13:05:59.000Z</time>
      </trkpt>
      <trkpt lat="46.00625" lon="6.49502">
        <ele>1727.15</ele>
        <time>2017-01-22T13:06:12.000Z</time>
      </trkpt>
      <trkpt lat="46.00627" lon="6.49504">
        <ele>1725.7</ele>
        <time>2017-01-22T13:06:16.000Z</time>
      </trkpt>
      <trkpt lat="46.00627" lon="6.49505">
        <ele>1725.22</ele>
        <time>2017-01-22T13:06:24.000Z</time>
      </trkpt>
      <trkpt lat="46.00629" lon="6.49511">
        <ele>1721.38</ele>
        <time>2017-01-22T13:06:33.000Z</time>
      </trkpt>
      <trkpt lat="46.0063" lon="6.49512">
        <ele>1720.9</ele>
        <time>2017-01-22T13:06:51.000Z</time>
      </trkpt>
      <trkpt lat="46.00631" lon="6.49515">
        <ele>1719.46</ele>
        <time>2017-01-22T13:06:55.000Z</time>
      </trkpt>
      <trkpt lat="46.00631" lon="6.49517">
        <ele>1718.49</ele>
        <time>2017-01-22T13:07:04.000Z</time>
      </trkpt>
      <trkpt lat="46.00632" lon="6.4952">
        <ele>1716.09</ele>
        <time>2017-01-22T13:07:08.000Z</time>
      </trkpt>
      <trkpt lat="46.00638" lon="6.49518">
        <ele>1716.09</ele>
        <time>2017-01-22T13:07:25.000Z</time>
      </trkpt>
      <trkpt lat="46.00639" lon="6.49518">
        <ele>1716.09</ele>
        <time>2017-01-22T13:07:40.000Z</time>
      </trkpt>
      <trkpt lat="46.00639" lon="6.49522">
        <ele>1715.13</ele>
        <time>2017-01-22T13:07:48.000Z</time>
      </trkpt>
      <trkpt lat="46.00637" lon="6.49527">
        <ele>1711.76</ele>
        <time>2017-01-22T13:07:52.000Z</time>
      </trkpt>
      <trkpt lat="46.00639" lon="6.49526">
        <ele>1711.76</ele>
        <time>2017-01-22T13:08:06.000Z</time>
      </trkpt>
      <trkpt lat="46.0064" lon="6.49531">
        <ele>1709.36</ele>
        <time>2017-01-22T13:08:18.000Z</time>
      </trkpt>
      <trkpt lat="46.0064" lon="6.49531">
        <ele>1709.36</ele>
        <time>2017-01-22T13:08:20.000Z</time>
      </trkpt>
      <trkpt lat="46.00641" lon="6.49538">
        <ele>1706</ele>
        <time>2017-01-22T13:08:23.000Z</time>
      </trkpt>
      <trkpt lat="46.00642" lon="6.49543">
        <ele>1702.15</ele>
        <time>2017-01-22T13:08:25.000Z</time>
      </trkpt>
      <trkpt lat="46.00643" lon="6.49544">
        <ele>1702.15</ele>
        <time>2017-01-22T13:08:26.000Z</time>
      </trkpt>
      <trkpt lat="46.00634" lon="6.49539">
        <ele>1701.67</ele>
        <time>2017-01-22T13:08:46.000Z</time>
      </trkpt>
      <trkpt lat="46.00631" lon="6.49548">
        <ele>1698.31</ele>
        <time>2017-01-22T13:08:50.000Z</time>
      </trkpt>
      <trkpt lat="46.00634" lon="6.49552">
        <ele>1694.94</ele>
        <time>2017-01-22T13:08:54.000Z</time>
      </trkpt>
      <trkpt lat="46.00633" lon="6.49551">
        <ele>1694.94</ele>
        <time>2017-01-22T13:09:10.000Z</time>
      </trkpt>
      <trkpt lat="46.00634" lon="6.49553">
        <ele>1693.5</ele>
        <time>2017-01-22T13:09:16.000Z</time>
      </trkpt>
      <trkpt lat="46.00633" lon="6.49558">
        <ele>1691.1</ele>
        <time>2017-01-22T13:09:18.000Z</time>
      </trkpt>
      <trkpt lat="46.00638" lon="6.49556">
        <ele>1690.62</ele>
        <time>2017-01-22T13:09:32.000Z</time>
      </trkpt>
      <trkpt lat="46.0064" lon="6.49555">
        <ele>1690.14</ele>
        <time>2017-01-22T13:09:44.000Z</time>
      </trkpt>
      <trkpt lat="46.00642" lon="6.49561">
        <ele>1687.25</ele>
        <time>2017-01-22T13:09:47.000Z</time>
      </trkpt>
      <trkpt lat="46.00643" lon="6.49561">
        <ele>1687.25</ele>
        <time>2017-01-22T13:09:48.000Z</time>
      </trkpt>
      <trkpt lat="46.00644" lon="6.4956">
        <ele>1686.77</ele>
        <time>2017-01-22T13:10:03.000Z</time>
      </trkpt>
      <trkpt lat="46.00639" lon="6.49569">
        <ele>1683.41</ele>
        <time>2017-01-22T13:10:12.000Z</time>
      </trkpt>
      <trkpt lat="46.00639" lon="6.49572">
        <ele>1683.41</ele>
        <time>2017-01-22T13:10:19.000Z</time>
      </trkpt>
      <trkpt lat="46.0064" lon="6.4958">
        <ele>1680.52</ele>
        <time>2017-01-22T13:10:23.000Z</time>
      </trkpt>
      <trkpt lat="46.0064" lon="6.49579">
        <ele>1680.04</ele>
        <time>2017-01-22T13:10:34.000Z</time>
      </trkpt>
      <trkpt lat="46.00639" lon="6.49583">
        <ele>1677.64</ele>
        <time>2017-01-22T13:10:44.000Z</time>
      </trkpt>
      <trkpt lat="46.00639" lon="6.49587">
        <ele>1676.68</ele>
        <time>2017-01-22T13:10:55.000Z</time>
      </trkpt>
      <trkpt lat="46.00639" lon="6.49588">
        <ele>1676.68</ele>
        <time>2017-01-22T13:11:02.000Z</time>
      </trkpt>
      <trkpt lat="46.00638" lon="6.49591">
        <ele>1674.75</ele>
        <time>2017-01-22T13:11:11.000Z</time>
      </trkpt>
      <trkpt lat="46.00639" lon="6.49591">
        <ele>1673.79</ele>
        <time>2017-01-22T13:11:20.000Z</time>
      </trkpt>
      <trkpt lat="46.00638" lon="6.49592">
        <ele>1672.83</ele>
        <time>2017-01-22T13:11:32.000Z</time>
      </trkpt>
      <trkpt lat="46.00639" lon="6.49593">
        <ele>1671.39</ele>
        <time>2017-01-22T13:11:43.000Z</time>
      </trkpt>
      <trkpt lat="46.00638" lon="6.49595">
        <ele>1671.39</ele>
        <time>2017-01-22T13:11:55.000Z</time>
      </trkpt>
      <trkpt lat="46.00638" lon="6.49598">
        <ele>1671.39</ele>
        <time>2017-01-22T13:12:10.000Z</time>
      </trkpt>
      <trkpt lat="46.00636" lon="6.49602">
        <ele>1670.43</ele>
        <time>2017-01-22T13:12:21.000Z</time>
      </trkpt>
      <trkpt lat="46.00634" lon="6.49603">
        <ele>1669.47</ele>
        <time>2017-01-22T13:12:29.000Z</time>
      </trkpt>
      <trkpt lat="46.00636" lon="6.49612">
        <ele>1668.02</ele>
        <time>2017-01-22T13:12:33.000Z</time>
      </trkpt>
      <trkpt lat="46.00636" lon="6.49617">
        <ele>1667.06</ele>
        <time>2017-01-22T13:12:49.000Z</time>
      </trkpt>
      <trkpt lat="46.00636" lon="6.49617">
        <ele>1666.58</ele>
        <time>2017-01-22T13:12:54.000Z</time>
      </trkpt>
      <trkpt lat="46.00634" lon="6.4962">
        <ele>1664.66</ele>
        <time>2017-01-22T13:12:57.000Z</time>
      </trkpt>
      <trkpt lat="46.00635" lon="6.49621">
        <ele>1664.18</ele>
        <time>2017-01-22T13:13:08.000Z</time>
      </trkpt>
      <trkpt lat="46.00635" lon="6.49627">
        <ele>1661.78</ele>
        <time>2017-01-22T13:13:12.000Z</time>
      </trkpt>
      <trkpt lat="46.00634" lon="6.49627">
        <ele>1662.74</ele>
        <time>2017-01-22T13:13:21.000Z</time>
      </trkpt>
      <trkpt lat="46.00636" lon="6.49627">
        <ele>1661.78</ele>
        <time>2017-01-22T13:13:37.000Z</time>
      </trkpt>
      <trkpt lat="46.00639" lon="6.4963">
        <ele>1659.37</ele>
        <time>2017-01-22T13:13:41.000Z</time>
      </trkpt>
      <trkpt lat="46.00636" lon="6.49634">
        <ele>1658.41</ele>
        <time>2017-01-22T13:13:57.000Z</time>
      </trkpt>
      <trkpt lat="46.00634" lon="6.49641">
        <ele>1654.57</ele>
        <time>2017-01-22T13:14:00.000Z</time>
      </trkpt>
      <trkpt lat="46.00632" lon="6.49643">
        <ele>1654.57</ele>
        <time>2017-01-22T13:14:01.000Z</time>
      </trkpt>
      <trkpt lat="46.00633" lon="6.49641">
        <ele>1653.12</ele>
        <time>2017-01-22T13:14:13.000Z</time>
      </trkpt>
      <trkpt lat="46.00637" lon="6.49645">
        <ele>1650.72</ele>
        <time>2017-01-22T13:14:16.000Z</time>
      </trkpt>
      <trkpt lat="46.00638" lon="6.49644">
        <ele>1650.24</ele>
        <time>2017-01-22T13:14:23.000Z</time>
      </trkpt>
      <trkpt lat="46.00641" lon="6.49649">
        <ele>1646.88</ele>
        <time>2017-01-22T13:14:27.000Z</time>
      </trkpt>
      <trkpt lat="46.00642" lon="6.49645">
        <ele>1647.84</ele>
        <time>2017-01-22T13:14:38.000Z</time>
      </trkpt>
      <trkpt lat="46.00643" lon="6.49647">
        <ele>1648.32</ele>
        <time>2017-01-22T13:14:59.000Z</time>
      </trkpt>
      <trkpt lat="46.00645" lon="6.49645">
        <ele>1648.32</ele>
        <time>2017-01-22T13:15:16.000Z</time>
      </trkpt>
      <trkpt lat="46.00649" lon="6.49649">
        <ele>1644.95</ele>
        <time>2017-01-22T13:15:19.000Z</time>
      </trkpt>
      <trkpt lat="46.0065" lon="6.49649">
        <ele>1644.47</ele>
        <time>2017-01-22T13:15:21.000Z</time>
      </trkpt>
      <trkpt lat="46.00651" lon="6.49659">
        <ele>1640.15</ele>
        <time>2017-01-22T13:15:26.000Z</time>
      </trkpt>
      <trkpt lat="46.00652" lon="6.49661">
        <ele>1639.19</ele>
        <time>2017-01-22T13:15:29.000Z</time>
      </trkpt>
      <trkpt lat="46.00649" lon="6.49668">
        <ele>1635.82</ele>
        <time>2017-01-22T13:15:35.000Z</time>
      </trkpt>
      <trkpt lat="46.00649" lon="6.49668">
        <ele>1635.82</ele>
        <time>2017-01-22T13:15:39.000Z</time>
      </trkpt>
      <trkpt lat="46.00652" lon="6.49674">
        <ele>1632.46</ele>
        <time>2017-01-22T13:15:43.000Z</time>
      </trkpt>
      <trkpt lat="46.00653" lon="6.49674">
        <ele>1632.46</ele>
        <time>2017-01-22T13:15:44.000Z</time>
      </trkpt>
      <trkpt lat="46.00651" lon="6.49675">
        <ele>1632.46</ele>
        <time>2017-01-22T13:16:13.000Z</time>
      </trkpt>
      <trkpt lat="46.00651" lon="6.49673">
        <ele>1632.46</ele>
        <time>2017-01-22T13:16:34.000Z</time>
      </trkpt>
      <trkpt lat="46.00648" lon="6.49683">
        <ele>1628.61</ele>
        <time>2017-01-22T13:16:39.000Z</time>
      </trkpt>
      <trkpt lat="46.00649" lon="6.49682">
        <ele>1628.61</ele>
        <time>2017-01-22T13:16:43.000Z</time>
      </trkpt>
      <trkpt lat="46.0065" lon="6.49691">
        <ele>1624.77</ele>
        <time>2017-01-22T13:16:47.000Z</time>
      </trkpt>
      <trkpt lat="46.00651" lon="6.49692">
        <ele>1624.77</ele>
        <time>2017-01-22T13:16:48.000Z</time>
      </trkpt>
      <trkpt lat="46.00651" lon="6.49704">
        <ele>1621.4</ele>
        <time>2017-01-22T13:16:51.000Z</time>
      </trkpt>
      <trkpt lat="46.00653" lon="6.49711">
        <ele>1618.52</ele>
        <time>2017-01-22T13:16:53.000Z</time>
      </trkpt>
      <trkpt lat="46.00655" lon="6.4972">
        <ele>1614.67</ele>
        <time>2017-01-22T13:16:55.000Z</time>
      </trkpt>
      <trkpt lat="46.00659" lon="6.4973">
        <ele>1609.86</ele>
        <time>2017-01-22T13:16:57.000Z</time>
      </trkpt>
      <trkpt lat="46.00664" lon="6.49742">
        <ele>1606.02</ele>
        <time>2017-01-22T13:16:59.000Z</time>
      </trkpt>
      <trkpt lat="46.00665" lon="6.49753">
        <ele>1602.66</ele>
        <time>2017-01-22T13:17:01.000Z</time>
      </trkpt>
      <trkpt lat="46.00664" lon="6.4976">
        <ele>1598.33</ele>
        <time>2017-01-22T13:17:02.000Z</time>
      </trkpt>
      <trkpt lat="46.00665" lon="6.49761">
        <ele>1597.85</ele>
        <time>2017-01-22T13:17:07.000Z</time>
      </trkpt>
      <trkpt lat="46.00665" lon="6.49759">
        <ele>1598.33</ele>
        <time>2017-01-22T13:17:37.000Z</time>
      </trkpt>
      <trkpt lat="46.00666" lon="6.49752">
        <ele>1598.33</ele>
        <time>2017-01-22T13:17:50.000Z</time>
      </trkpt>
      <trkpt lat="46.00666" lon="6.49752">
        <ele>1598.33</ele>
        <time>2017-01-22T13:17:51.000Z</time>
      </trkpt>
      <trkpt lat="46.00665" lon="6.49766">
        <ele>1594.96</ele>
        <time>2017-01-22T13:17:55.000Z</time>
      </trkpt>
      <trkpt lat="46.00669" lon="6.49777">
        <ele>1591.12</ele>
        <time>2017-01-22T13:17:57.000Z</time>
      </trkpt>
      <trkpt lat="46.00667" lon="6.49789">
        <ele>1586.79</ele>
        <time>2017-01-22T13:17:59.000Z</time>
      </trkpt>
      <trkpt lat="46.0067" lon="6.49795">
        <ele>1582.47</ele>
        <time>2017-01-22T13:18:01.000Z</time>
      </trkpt>
      <trkpt lat="46.00671" lon="6.49799">
        <ele>1580.54</ele>
        <time>2017-01-22T13:18:03.000Z</time>
      </trkpt>
      <trkpt lat="46.00671" lon="6.49804">
        <ele>1579.1</ele>
        <time>2017-01-22T13:18:04.000Z</time>
      </trkpt>
      <trkpt lat="46.00672" lon="6.49828">
        <ele>1570.45</ele>
        <time>2017-01-22T13:18:08.000Z</time>
      </trkpt>
      <trkpt lat="46.00668" lon="6.49837">
        <ele>1566.61</ele>
        <time>2017-01-22T13:18:10.000Z</time>
      </trkpt>
      <trkpt lat="46.0066" lon="6.49835">
        <ele>1565.64</ele>
        <time>2017-01-22T13:18:18.000Z</time>
      </trkpt>
      <trkpt lat="46.0066" lon="6.49835">
        <ele>1565.64</ele>
        <time>2017-01-22T13:18:24.000Z</time>
      </trkpt>
      <trkpt lat="46.00661" lon="6.49843">
        <ele>1563.72</ele>
        <time>2017-01-22T13:18:28.000Z</time>
      </trkpt>
      <trkpt lat="46.00666" lon="6.49851">
        <ele>1562.28</ele>
        <time>2017-01-22T13:18:31.000Z</time>
      </trkpt>
      <trkpt lat="46.00669" lon="6.49856">
        <ele>1559.4</ele>
        <time>2017-01-22T13:18:33.000Z</time>
      </trkpt>
      <trkpt lat="46.00668" lon="6.49855">
        <ele>1559.4</ele>
        <time>2017-01-22T13:18:34.000Z</time>
      </trkpt>
      <trkpt lat="46.00669" lon="6.49854">
        <ele>1558.92</ele>
        <time>2017-01-22T13:18:38.000Z</time>
      </trkpt>
      <trkpt lat="46.00671" lon="6.4986">
        <ele>1555.55</ele>
        <time>2017-01-22T13:18:42.000Z</time>
      </trkpt>
      <trkpt lat="46.00673" lon="6.49859">
        <ele>1555.07</ele>
        <time>2017-01-22T13:18:53.000Z</time>
      </trkpt>
      <trkpt lat="46.00669" lon="6.49857">
        <ele>1555.07</ele>
        <time>2017-01-22T13:19:29.000Z</time>
      </trkpt>
      <trkpt lat="46.0067" lon="6.49857">
        <ele>1555.07</ele>
        <time>2017-01-22T13:19:49.000Z</time>
      </trkpt>
      <trkpt lat="46.00669" lon="6.49858">
        <ele>1555.07</ele>
        <time>2017-01-22T13:20:08.000Z</time>
      </trkpt>
      <trkpt lat="46.00677" lon="6.49857">
        <ele>1554.11</ele>
        <time>2017-01-22T13:20:27.000Z</time>
      </trkpt>
      <trkpt lat="46.0068" lon="6.49856">
        <ele>1552.19</ele>
        <time>2017-01-22T13:20:32.000Z</time>
      </trkpt>
      <trkpt lat="46.00684" lon="6.49858">
        <ele>1550.74</ele>
        <time>2017-01-22T13:20:35.000Z</time>
      </trkpt>
      <trkpt lat="46.00687" lon="6.49859">
        <ele>1549.78</ele>
        <time>2017-01-22T13:20:47.000Z</time>
      </trkpt>
      <trkpt lat="46.00694" lon="6.49866">
        <ele>1547.38</ele>
        <time>2017-01-22T13:20:59.000Z</time>
      </trkpt>
      <trkpt lat="46.00695" lon="6.49867">
        <ele>1547.38</ele>
        <time>2017-01-22T13:21:23.000Z</time>
      </trkpt>
      <trkpt lat="46.00696" lon="6.49869">
        <ele>1547.38</ele>
        <time>2017-01-22T13:21:31.000Z</time>
      </trkpt>
      <trkpt lat="46.007" lon="6.49883">
        <ele>1543.53</ele>
        <time>2017-01-22T13:21:41.000Z</time>
      </trkpt>
      <trkpt lat="46.00702" lon="6.4989">
        <ele>1541.61</ele>
        <time>2017-01-22T13:21:52.000Z</time>
      </trkpt>
      <trkpt lat="46.00702" lon="6.49891">
        <ele>1541.61</ele>
        <time>2017-01-22T13:22:07.000Z</time>
      </trkpt>
      <trkpt lat="46.00695" lon="6.49889">
        <ele>1539.69</ele>
        <time>2017-01-22T13:22:15.000Z</time>
      </trkpt>
      <trkpt lat="46.00689" lon="6.49886">
        <ele>1537.77</ele>
        <time>2017-01-22T13:22:27.000Z</time>
      </trkpt>
      <trkpt lat="46.00689" lon="6.49885">
        <ele>1537.77</ele>
        <time>2017-01-22T13:22:41.000Z</time>
      </trkpt>
      <trkpt lat="46.00699" lon="6.49903">
        <ele>1534.88</ele>
        <time>2017-01-22T13:22:52.000Z</time>
      </trkpt>
      <trkpt lat="46.00704" lon="6.49913">
        <ele>1533.44</ele>
        <time>2017-01-22T13:23:01.000Z</time>
      </trkpt>
      <trkpt lat="46.00705" lon="6.49917">
        <ele>1532.96</ele>
        <time>2017-01-22T13:23:21.000Z</time>
      </trkpt>
      <trkpt lat="46.00709" lon="6.49924">
        <ele>1531.52</ele>
        <time>2017-01-22T13:23:33.000Z</time>
      </trkpt>
      <trkpt lat="46.00709" lon="6.49926">
        <ele>1531.04</ele>
        <time>2017-01-22T13:23:38.000Z</time>
      </trkpt>
      <trkpt lat="46.00692" lon="6.49918">
        <ele>1527.19</ele>
        <time>2017-01-22T13:23:45.000Z</time>
      </trkpt>
      <trkpt lat="46.0068" lon="6.4991">
        <ele>1524.31</ele>
        <time>2017-01-22T13:23:49.000Z</time>
      </trkpt>
      <trkpt lat="46.00658" lon="6.49904">
        <ele>1519.98</ele>
        <time>2017-01-22T13:23:54.000Z</time>
      </trkpt>
      <trkpt lat="46.00655" lon="6.49902">
        <ele>1519.5</ele>
        <time>2017-01-22T13:24:01.000Z</time>
      </trkpt>
      <trkpt lat="46.00645" lon="6.49907">
        <ele>1517.1</ele>
        <time>2017-01-22T13:24:09.000Z</time>
      </trkpt>
      <trkpt lat="46.00644" lon="6.49907">
        <ele>1517.1</ele>
        <time>2017-01-22T13:24:10.000Z</time>
      </trkpt>
      <trkpt lat="46.00641" lon="6.49922">
        <ele>1511.81</ele>
        <time>2017-01-22T13:24:15.000Z</time>
      </trkpt>
      <trkpt lat="46.00637" lon="6.49924">
        <ele>1511.33</ele>
        <time>2017-01-22T13:24:16.000Z</time>
      </trkpt>
      <trkpt lat="46.00624" lon="6.49934">
        <ele>1507</ele>
        <time>2017-01-22T13:24:22.000Z</time>
      </trkpt>
      <trkpt lat="46.00622" lon="6.49937">
        <ele>1506.52</ele>
        <time>2017-01-22T13:24:23.000Z</time>
      </trkpt>
      <trkpt lat="46.00606" lon="6.49958">
        <ele>1501.24</ele>
        <time>2017-01-22T13:24:28.000Z</time>
      </trkpt>
      <trkpt lat="46.006" lon="6.49973">
        <ele>1498.83</ele>
        <time>2017-01-22T13:24:33.000Z</time>
      </trkpt>
      <trkpt lat="46.00599" lon="6.49991">
        <ele>1496.91</ele>
        <time>2017-01-22T13:24:36.000Z</time>
      </trkpt>
      <trkpt lat="46.00593" lon="6.50013">
        <ele>1493.06</ele>
        <time>2017-01-22T13:24:44.000Z</time>
      </trkpt>
      <trkpt lat="46.00593" lon="6.50013">
        <ele>1493.06</ele>
        <time>2017-01-22T13:24:47.000Z</time>
      </trkpt>
      <trkpt lat="46.00591" lon="6.5003">
        <ele>1490.18</ele>
        <time>2017-01-22T13:24:52.000Z</time>
      </trkpt>
      <trkpt lat="46.00587" lon="6.50034">
        <ele>1489.22</ele>
        <time>2017-01-22T13:24:54.000Z</time>
      </trkpt>
      <trkpt lat="46.00584" lon="6.50035">
        <ele>1489.22</ele>
        <time>2017-01-22T13:25:03.000Z</time>
      </trkpt>
      <trkpt lat="46.00579" lon="6.50053">
        <ele>1485.85</ele>
        <time>2017-01-22T13:25:07.000Z</time>
      </trkpt>
      <trkpt lat="46.00572" lon="6.50062">
        <ele>1482.49</ele>
        <time>2017-01-22T13:25:09.000Z</time>
      </trkpt>
      <trkpt lat="46.00569" lon="6.50065">
        <ele>1481.53</ele>
        <time>2017-01-22T13:25:10.000Z</time>
      </trkpt>
      <trkpt lat="46.00556" lon="6.50079">
        <ele>1478.65</ele>
        <time>2017-01-22T13:25:14.000Z</time>
      </trkpt>
      <trkpt lat="46.00548" lon="6.50088">
        <ele>1475.76</ele>
        <time>2017-01-22T13:25:16.000Z</time>
      </trkpt>
      <trkpt lat="46.00544" lon="6.50091">
        <ele>1475.28</ele>
        <time>2017-01-22T13:25:17.000Z</time>
      </trkpt>
      <trkpt lat="46.00533" lon="6.50092">
        <ele>1473.84</ele>
        <time>2017-01-22T13:25:21.000Z</time>
      </trkpt>
      <trkpt lat="46.00529" lon="6.5011">
        <ele>1469.99</ele>
        <time>2017-01-22T13:25:25.000Z</time>
      </trkpt>
      <trkpt lat="46.00528" lon="6.5013">
        <ele>1465.19</ele>
        <time>2017-01-22T13:25:29.000Z</time>
      </trkpt>
      <trkpt lat="46.00524" lon="6.50146">
        <ele>1460.86</ele>
        <time>2017-01-22T13:25:32.000Z</time>
      </trkpt>
      <trkpt lat="46.00514" lon="6.50174">
        <ele>1453.65</ele>
        <time>2017-01-22T13:25:36.000Z</time>
      </trkpt>
      <trkpt lat="46.00517" lon="6.50194">
        <ele>1448.84</ele>
        <time>2017-01-22T13:25:38.000Z</time>
      </trkpt>
      <trkpt lat="46.00507" lon="6.50227">
        <ele>1446.44</ele>
        <time>2017-01-22T13:25:42.000Z</time>
      </trkpt>
      <trkpt lat="46.00499" lon="6.50239">
        <ele>1445.96</ele>
        <time>2017-01-22T13:25:49.000Z</time>
      </trkpt>
      <trkpt lat="46.00499" lon="6.50241">
        <ele>1446.44</ele>
        <time>2017-01-22T13:26:05.000Z</time>
      </trkpt>
      <trkpt lat="46.005" lon="6.50241">
        <ele>1445.96</ele>
        <time>2017-01-22T13:26:31.000Z</time>
      </trkpt>
      <trkpt lat="46.00496" lon="6.50244">
        <ele>1445.96</ele>
        <time>2017-01-22T13:26:41.000Z</time>
      </trkpt>
      <trkpt lat="46.00485" lon="6.50239">
        <ele>1444.52</ele>
        <time>2017-01-22T13:26:48.000Z</time>
      </trkpt>
      <trkpt lat="46.00468" lon="6.50219">
        <ele>1441.15</ele>
        <time>2017-01-22T13:26:58.000Z</time>
      </trkpt>
      <trkpt lat="46.00453" lon="6.50199">
        <ele>1439.23</ele>
        <time>2017-01-22T13:27:04.000Z</time>
      </trkpt>
      <trkpt lat="46.00439" lon="6.5019">
        <ele>1437.31</ele>
        <time>2017-01-22T13:27:08.000Z</time>
      </trkpt>
      <trkpt lat="46.00429" lon="6.50193">
        <ele>1435.39</ele>
        <time>2017-01-22T13:27:12.000Z</time>
      </trkpt>
      <trkpt lat="46.00422" lon="6.50202">
        <ele>1433.94</ele>
        <time>2017-01-22T13:27:15.000Z</time>
      </trkpt>
      <trkpt lat="46.00401" lon="6.50219">
        <ele>1428.66</ele>
        <time>2017-01-22T13:27:20.000Z</time>
      </trkpt>
      <trkpt lat="46.00386" lon="6.50226">
        <ele>1426.73</ele>
        <time>2017-01-22T13:27:29.000Z</time>
      </trkpt>
      <trkpt lat="46.00386" lon="6.50227">
        <ele>1426.25</ele>
        <time>2017-01-22T13:27:44.000Z</time>
      </trkpt>
      <trkpt lat="46.00385" lon="6.50231">
        <ele>1425.77</ele>
        <time>2017-01-22T13:27:47.000Z</time>
      </trkpt>
      <trkpt lat="46.00381" lon="6.50245">
        <ele>1423.85</ele>
        <time>2017-01-22T13:27:52.000Z</time>
      </trkpt>
      <trkpt lat="46.00379" lon="6.50266">
        <ele>1421.45</ele>
        <time>2017-01-22T13:27:55.000Z</time>
      </trkpt>
      <trkpt lat="46.00373" lon="6.50292">
        <ele>1418.56</ele>
        <time>2017-01-22T13:27:58.000Z</time>
      </trkpt>
      <trkpt lat="46.00369" lon="6.50307">
        <ele>1417.6</ele>
        <time>2017-01-22T13:28:00.000Z</time>
      </trkpt>
      <trkpt lat="46.00364" lon="6.5033">
        <ele>1416.16</ele>
        <time>2017-01-22T13:28:04.000Z</time>
      </trkpt>
      <trkpt lat="46.00362" lon="6.50365">
        <ele>1412.79</ele>
        <time>2017-01-22T13:28:10.000Z</time>
      </trkpt>
      <trkpt lat="46.00364" lon="6.50381">
        <ele>1410.39</ele>
        <time>2017-01-22T13:28:13.000Z</time>
      </trkpt>
      <trkpt lat="46.0036" lon="6.50398">
        <ele>1409.43</ele>
        <time>2017-01-22T13:28:16.000Z</time>
      </trkpt>
      <trkpt lat="46.00358" lon="6.50409">
        <ele>1407.99</ele>
        <time>2017-01-22T13:28:18.000Z</time>
      </trkpt>
      <trkpt lat="46.0035" lon="6.50414">
        <ele>1407.03</ele>
        <time>2017-01-22T13:28:24.000Z</time>
      </trkpt>
      <trkpt lat="46.00348" lon="6.50412">
        <ele>1406.55</ele>
        <time>2017-01-22T13:28:31.000Z</time>
      </trkpt>
      <trkpt lat="46.00344" lon="6.50418">
        <ele>1405.1</ele>
        <time>2017-01-22T13:28:34.000Z</time>
      </trkpt>
      <trkpt lat="46.00343" lon="6.50445">
        <ele>1402.7</ele>
        <time>2017-01-22T13:28:45.000Z</time>
      </trkpt>
      <trkpt lat="46.00344" lon="6.50469">
        <ele>1400.78</ele>
        <time>2017-01-22T13:28:56.000Z</time>
      </trkpt>
      <trkpt lat="46.00341" lon="6.5047">
        <ele>1399.82</ele>
        <time>2017-01-22T13:29:08.000Z</time>
      </trkpt>
      <trkpt lat="46.00341" lon="6.5047">
        <ele>1399.82</ele>
        <time>2017-01-22T13:29:11.000Z</time>
      </trkpt>
      <trkpt lat="46.00336" lon="6.50467">
        <ele>1399.82</ele>
        <time>2017-01-22T13:29:14.000Z</time>
      </trkpt>
      <trkpt lat="46.00333" lon="6.50462">
        <ele>1397.89</ele>
        <time>2017-01-22T13:29:16.000Z</time>
      </trkpt>
      <trkpt lat="46.00331" lon="6.5046">
        <ele>1397.41</ele>
        <time>2017-01-22T13:29:24.000Z</time>
      </trkpt>
      <trkpt lat="46.00328" lon="6.5046">
        <ele>1395.49</ele>
        <time>2017-01-22T13:29:28.000Z</time>
      </trkpt>
      <trkpt lat="46.00328" lon="6.50461">
        <ele>1395.49</ele>
        <time>2017-01-22T13:29:35.000Z</time>
      </trkpt>
      <trkpt lat="46.00322" lon="6.50457">
        <ele>1393.09</ele>
        <time>2017-01-22T13:29:40.000Z</time>
      </trkpt>
      <trkpt lat="46.00321" lon="6.50454">
        <ele>1392.61</ele>
        <time>2017-01-22T13:29:41.000Z</time>
      </trkpt>
      <trkpt lat="46.00314" lon="6.5044">
        <ele>1389.72</ele>
        <time>2017-01-22T13:29:49.000Z</time>
      </trkpt>
      <trkpt lat="46.00308" lon="6.50454">
        <ele>1386.36</ele>
        <time>2017-01-22T13:29:59.000Z</time>
      </trkpt>
      <trkpt lat="46.00301" lon="6.50448">
        <ele>1382.99</ele>
        <time>2017-01-22T13:30:03.000Z</time>
      </trkpt>
      <trkpt lat="46.003" lon="6.50446">
        <ele>1382.03</ele>
        <time>2017-01-22T13:30:17.000Z</time>
      </trkpt>
      <trkpt lat="46.00299" lon="6.50444">
        <ele>1381.55</ele>
        <time>2017-01-22T13:30:19.000Z</time>
      </trkpt>
      <trkpt lat="46.00296" lon="6.50449">
        <ele>1379.63</ele>
        <time>2017-01-22T13:30:22.000Z</time>
      </trkpt>
      <trkpt lat="46.00295" lon="6.5045">
        <ele>1379.15</ele>
        <time>2017-01-22T13:30:23.000Z</time>
      </trkpt>
      <trkpt lat="46.00294" lon="6.50463">
        <ele>1377.71</ele>
        <time>2017-01-22T13:30:33.000Z</time>
      </trkpt>
      <trkpt lat="46.00294" lon="6.50464">
        <ele>1377.23</ele>
        <time>2017-01-22T13:30:36.000Z</time>
      </trkpt>
      <trkpt lat="46.00287" lon="6.50456">
        <ele>1374.82</ele>
        <time>2017-01-22T13:30:43.000Z</time>
      </trkpt>
      <trkpt lat="46.00286" lon="6.50456">
        <ele>1374.82</ele>
        <time>2017-01-22T13:30:48.000Z</time>
      </trkpt>
      <trkpt lat="46.00279" lon="6.50465">
        <ele>1372.42</ele>
        <time>2017-01-22T13:30:53.000Z</time>
      </trkpt>
      <trkpt lat="46.00278" lon="6.50473">
        <ele>1371.94</ele>
        <time>2017-01-22T13:31:02.000Z</time>
      </trkpt>
      <trkpt lat="46.00278" lon="6.50473">
        <ele>1371.94</ele>
        <time>2017-01-22T13:31:03.000Z</time>
      </trkpt>
      <trkpt lat="46.00272" lon="6.5049">
        <ele>1369.54</ele>
        <time>2017-01-22T13:31:09.000Z</time>
      </trkpt>
      <trkpt lat="46.00272" lon="6.50495">
        <ele>1368.57</ele>
        <time>2017-01-22T13:31:11.000Z</time>
      </trkpt>
      <trkpt lat="46.00272" lon="6.50499">
        <ele>1368.57</ele>
        <time>2017-01-22T13:31:14.000Z</time>
      </trkpt>
      <trkpt lat="46.00267" lon="6.50509">
        <ele>1368.09</ele>
        <time>2017-01-22T13:31:19.000Z</time>
      </trkpt>
      <trkpt lat="46.00259" lon="6.50536">
        <ele>1365.69</ele>
        <time>2017-01-22T13:31:30.000Z</time>
      </trkpt>
      <trkpt lat="46.00252" lon="6.5056">
        <ele>1363.77</ele>
        <time>2017-01-22T13:31:40.000Z</time>
      </trkpt>
      <trkpt lat="46.00244" lon="6.50556">
        <ele>1362.33</ele>
        <time>2017-01-22T13:31:44.000Z</time>
      </trkpt>
      <trkpt lat="46.0024" lon="6.50545">
        <ele>1360.88</ele>
        <time>2017-01-22T13:31:46.000Z</time>
      </trkpt>
      <trkpt lat="46.00239" lon="6.5054">
        <ele>1360.4</ele>
        <time>2017-01-22T13:31:47.000Z</time>
      </trkpt>
      <trkpt lat="46.0024" lon="6.50501">
        <ele>1357.04</ele>
        <time>2017-01-22T13:31:55.000Z</time>
      </trkpt>
      <trkpt lat="46.00232" lon="6.50481">
        <ele>1353.67</ele>
        <time>2017-01-22T13:32:04.000Z</time>
      </trkpt>
      <trkpt lat="46.0023" lon="6.50477">
        <ele>1352.71</ele>
        <time>2017-01-22T13:32:08.000Z</time>
      </trkpt>
      <trkpt lat="46.00229" lon="6.50472">
        <ele>1350.79</ele>
        <time>2017-01-22T13:32:11.000Z</time>
      </trkpt>
      <trkpt lat="46.00229" lon="6.50469">
        <ele>1350.79</ele>
        <time>2017-01-22T13:32:12.000Z</time>
      </trkpt>
      <trkpt lat="46.00232" lon="6.50449">
        <ele>1349.35</ele>
        <time>2017-01-22T13:32:22.000Z</time>
      </trkpt>
    </trkseg>
  </trk>
</gpx>